[[{"header":{"parameterUnit":"m.s-1","parameterCategory":1,"la1":30.6,"la2":28.766,"lo1":-90.7593,"lo2":-88.6598,"dy":0.0162,"dx":0.0183,"nx":116,"ny":114,"refTime":"2023-07-29T12:00:00:Z","depth":0,"parameterNumber":2,"parameterNumberName":"U-component_of_WINDS"},"data":[0.0,0.0,0.0,0.0,0.0,0.0,0.0,0.0,0.0,0.0,0.0,0.0,0.0,0.0,0.0,0.0,0.0,0.0,0.0,0.0,0.0,0.0,0.0,0.0,0.0,0.0,0.0,0.0,0.0,0.0,0.0,0.0,0.0,0.0,0.0,0.0,0.0,0.0,0.0,0.0,0.0,0.0,0.0,0.0,0.0,0.0,0.0,0.0,0.0,0.0,0.0,0.0,0.0,0.0,0.0,0.0,0.0,0.0,0.0,0.0,0.0,0.0,0.0,0.0,0.0,0.0,0.0,0.0,0.0,0.0,0.0,0.0,0.0,0.0,0.0,0.0,0.0,0.0,0.0,0.0,0.0,0.0,0.0,0.0,0.0,0.0,0.0,0.0,0.0,0.0,0.0,0.0,0.0,0.0,0.0,0.0,0.0,0.0,0.0,0.0,0.0,0.0,0.0,0.0,0.0,0.0,0.0,0.0,0.0,0.0,0.0,0.0,0.0,0.0,0.0,0.0,0.0,0.0,0.0,0.0,0.0,0.0,0.0,0.0,0.0,0.0,0.0,0.0,0.0,0.0,0.0,0.0,0.0,0.0,0.0,0.0,0.0,0.0,0.0,0.0,0.0,0.0,0.0,0.0,0.0,0.0,0.0,0.0,0.0,0.0,0.0,0.0,0.0,0.0,0.0,0.0,0.0,0.0,0.0,0.0,0.0,0.0,0.0,0.0,0.0,0.0,0.0,0.0,0.0,0.0,0.0,0.0,0.0,0.0,0.0,0.0,0.0,0.0,0.0,0.0,0.0,0.0,0.0,0.0,0.0,0.0,0.0,0.0,0.0,0.0,0.0,0.0,0.0,0.0,0.0,0.0,0.0,0.0,0.0,0.0,0.0,0.0,0.0,0.0,0.0,0.0,0.0,0.0,0.0,0.0,0.0,0.0,0.0,0.0,0.0,0.0,0.0,0.0,0.0,0.0,0.0,0.0,0.0,0.0,0.0,0.0,0.0,0.0,0.0,0.0,0.0,0.0,0.0,0.0,0.0,0.0,0.0,0.0,0.0,0.0,0.0,0.0,0.0,0.0,0.0,0.0,0.0,0.0,0.0,0.0,0.0,0.0,0.0,0.0,0.0,0.0,0.0,0.0,0.0,0.0,0.0,0.0,0.0,0.0,0.0,0.0,0.0,0.0,0.0,0.0,0.0,0.0,0.0,0.0,0.0,0.0,0.0,0.0,0.0,0.0,0.0,0.0,0.0,0.0,0.0,0.0,0.0,0.0,0.0,0.0,0.0,0.0,0.0,0.0,0.0,0.0,0.0,0.0,0.0,0.0,0.0,0.0,0.0,0.0,0.0,0.0,0.0,0.0,0.0,0.0,0.0,0.0,0.0,0.0,0.0,0.0,0.0,0.0,0.0,0.0,0.0,0.0,0.0,0.0,0.0,0.0,0.0,0.0,0.0,0.0,0.0,0.0,0.0,0.0,0.0,0.0,0.0,0.0,0.0,0.0,0.0,0.0,0.0,0.0,0.0,0.0,0.0,0.0,0.0,0.0,0.0,0.0,0.0,0.0,0.0,0.0,0.0,0.0,0.0,0.0,0.0,0.0,0.0,0.0,0.0,0.0,0.0,0.0,0.0,0.0,0.0,0.0,0.0,0.0,0.0,0.0,0.0,0.0,0.0,0.0,0.0,0.0,0.0,0.0,0.0,0.0,0.0,0.0,0.0,0.0,0.0,0.0,0.0,0.0,0.0,0.0,0.0,0.0,0.0,0.0,0.0,0.0,0.0,0.0,0.0,0.0,0.0,0.0,0.0,0.0,0.0,0.0,0.0,0.0,0.0,0.0,0.0,0.0,0.0,0.0,0.0,0.0,0.0,0.0,0.0,0.0,0.0,0.0,0.0,0.0,0.0,0.0,0.0,0.0,0.0,0.0,0.0,0.0,0.0,0.0,0.0,0.0,0.0,0.0,0.0,0.0,0.0,0.0,0.0,0.0,0.0,0.0,0.0,0.0,0.0,0.0,0.0,0.0,0.0,0.0,0.0,0.0,0.0,0.0,0.0,0.0,0.0,0.0,0.0,0.0,0.0,0.0,0.0,0.0,0.0,0.0,0.0,0.0,0.0,0.0,0.0,0.0,0.0,0.0,0.0,0.0,0.0,0.0,0.0,0.0,0.0,0.0,0.0,0.0,0.0,0.0,0.0,0.0,0.0,0.0,0.0,0.0,0.0,0.0,0.0,0.0,0.0,0.0,0.0,0.0,0.0,0.0,0.0,0.0,0.0,0.0,0.0,0.0,0.0,0.0,0.0,0.0,0.0,0.0,0.0,0.0,0.0,0.0,0.0,0.0,0.0,0.0,0.0,0.0,0.0,0.0,0.0,0.0,0.0,0.0,0.0,0.0,0.0,0.0,0.0,0.0,0.0,0.0,0.0,0.0,0.0,0.0,0.0,0.0,0.0,0.0,0.0,0.0,0.0,0.0,0.0,0.0,0.0,0.0,0.0,0.0,0.0,0.0,0.0,0.0,0.0,0.0,0.0,0.0,0.0,0.0,0.0,0.0,0.0,0.0,0.0,0.0,0.0,0.0,0.0,0.0,0.0,0.0,0.0,0.0,0.0,0.0,0.0,0.0,0.0,0.0,0.0,0.0,0.0,0.0,0.0,0.0,0.0,0.0,0.0,0.0,0.0,0.0,0.0,0.0,0.0,0.0,0.0,0.0,0.0,0.0,0.0,0.0,0.0,0.0,0.0,0.0,0.0,0.0,0.0,0.0,0.0,0.0,0.0,0.0,0.0,0.0,0.0,0.0,0.0,0.0,0.0,0.0,0.0,0.0,0.0,0.0,0.0,0.0,0.0,0.0,0.0,0.0,0.0,0.0,0.0,0.0,0.0,0.0,0.0,0.0,0.0,0.0,0.0,0.0,0.0,0.0,0.0,0.0,0.0,0.0,0.0,0.0,0.0,0.0,0.0,0.0,0.0,0.0,0.0,0.0,0.0,0.0,0.0,0.0,0.0,0.0,0.0,0.0,0.0,0.0,0.0,0.0,0.0,0.0,0.0,0.0,0.0,0.0,0.0,0.0,0.0,0.0,0.0,0.0,0.0,0.0,0.0,0.0,0.0,0.0,0.0,0.0,0.0,0.0,0.0,0.0,0.0,0.0,0.0,0.0,0.0,0.0,0.0,0.0,0.0,0.0,0.0,0.0,0.0,0.0,0.0,0.0,0.0,0.0,0.0,0.0,0.0,0.0,0.0,0.0,0.0,0.0,0.0,0.0,0.0,0.0,0.0,0.0,0.0,0.0,0.0,0.0,0.0,0.0,0.0,0.0,0.0,0.0,0.0,0.0,0.0,0.0,0.0,0.0,0.0,0.0,0.0,0.0,0.0,0.0,0.0,0.0,0.0,0.0,0.0,0.0,0.0,0.0,0.0,0.0,0.0,0.0,0.0,0.0,0.0,0.0,0.0,0.0,0.0,0.0,0.0,0.0,0.0,0.0,0.0,0.0,0.0,0.0,0.0,0.0,0.0,0.0,0.0,0.0,0.0,0.0,0.0,0.0,0.0,0.0,0.0,0.0,0.0,0.0,0.0,0.0,0.0,0.0,0.0,0.0,0.0,0.0,0.0,0.0,0.0,0.0,0.0,0.0,0.0,0.0,0.0,0.0,0.0,0.0,0.0,0.0,0.0,0.0,0.0,0.0,0.0,0.0,0.0,0.0,0.0,0.0,0.0,0.0,0.0,0.0,0.0,0.0,0.0,0.0,0.0,0.0,0.0,0.0,0.0,0.0,0.0,0.0,0.0,0.0,0.0,0.0,0.0,0.0,0.0,0.0,0.0,0.0,0.0,0.0,0.0,0.0,0.0,0.0,0.0,0.0,0.0,0.0,0.0,0.0,0.0,0.0,0.0,0.0,0.0,0.0,0.0,0.0,0.0,0.0,0.0,0.0,0.0,0.0,0.0,0.0,0.0,0.0,0.0,0.0,0.0,0.0,0.0,0.0,0.0,0.0,0.0,0.0,0.0,0.0,0.0,0.0,0.0,0.0,0.0,0.0,0.0,0.0,0.0,0.0,0.0,0.0,0.0,0.0,0.0,0.0,0.0,0.0,0.0,0.0,0.0,0.0,0.0,0.0,0.0,0.0,0.0,0.0,0.0,0.0,0.0,0.0,0.0,0.0,0.0,0.0,0.0,0.0,0.0,0.0,0.0,0.0,0.0,0.0,0.0,0.0,0.0,0.0,0.0,0.0,0.0,0.0,0.0,0.0,0.0,0.0,0.0,0.0,0.0,0.0,0.0,0.0,0.0,0.0,0.0,0.0,0.0,0.0,0.0,0.0,0.0,0.0,0.0,0.0,0.0,0.0,0.0,0.0,0.0,0.0,0.0,0.0,0.0,0.0,0.0,0.0,0.0,0.0,0.0,0.0,0.0,0.0,0.0,0.0,0.0,0.0,0.0,0.0,0.0,0.0,0.0,0.0,0.0,0.0,0.0,0.0,0.0,0.0,0.0,0.0,0.0,0.0,0.0,0.0,0.0,0.0,0.0,0.0,0.0,0.0,0.0,0.0,0.0,0.0,0.0,0.0,0.0,0.0,0.0,0.0,0.0,0.0,0.0,0.0,0.0,0.0,0.0,0.0,0.0,0.0,0.0,0.0,0.0,0.0,0.0,0.0,0.0,0.0,0.0,0.0,0.0,0.0,0.0,0.0,0.0,0.0,0.0,0.0,0.0,0.0,0.0,0.0,0.0,0.0,0.0,0.0,0.0,0.0,0.0,0.0,0.0,0.0,0.0,0.0,0.0,0.0,0.0,0.0,0.0,0.0,0.0,0.0,0.0,0.0,0.0,0.0,0.0,0.0,0.0,0.0,0.0,0.0,0.0,0.0,0.0,0.0,0.0,0.0,0.0,0.0,0.0,0.0,0.0,0.0,0.0,0.0,0.0,0.0,0.0,0.0,0.0,0.0,0.0,0.0,0.0,0.0,0.0,0.0,0.0,0.0,0.0,0.0,0.0,0.0,0.0,0.0,0.0,0.0,0.0,0.0,0.0,0.0,0.0,0.0,0.0,0.0,0.0,0.0,0.0,0.0,0.0,0.0,0.0,0.0,0.0,0.0,0.0,0.0,0.0,0.0,0.0,0.0,0.0,0.0,0.0,0.0,0.0,0.0,0.0,0.0,0.0,0.0,0.0,0.0,0.0,0.0,0.0,0.0,0.0,0.0,0.0,0.0,0.0,0.0,0.0,0.0,0.0,0.0,0.0,0.0,0.0,0.0,0.0,0.0,0.0,0.0,0.0,0.0,0.0,0.0,0.0,0.0,0.0,0.0,0.0,0.0,0.0,0.0,0.0,0.0,0.0,0.0,0.0,0.0,0.0,0.0,0.0,0.0,0.0,0.0,0.0,0.0,0.0,0.0,0.0,0.0,0.0,0.0,0.0,0.0,0.0,0.0,0.0,0.0,0.0,0.0,0.0,0.0,0.0,0.0,0.0,0.0,0.0,0.0,0.0,0.0,0.0,0.0,0.0,0.0,0.0,0.0,0.0,0.0,0.0,0.0,0.0,0.0,0.0,0.0,0.0,0.0,0.0,0.0,0.0,0.0,0.0,0.0,0.0,0.0,0.0,0.0,0.0,0.0,0.0,0.0,0.0,0.0,0.0,0.0,0.0,0.0,0.0,0.0,0.0,0.0,0.0,0.0,0.0,0.0,0.0,0.0,0.0,0.0,0.0,0.0,0.0,0.0,0.0,0.0,0.0,0.0,0.0,0.0,0.0,0.0,0.0,0.0,0.0,0.0,0.0,0.0,0.0,0.0,0.0,0.0,0.0,0.0,0.0,0.0,0.0,0.0,0.0,0.0,0.0,0.0,0.0,0.0,0.0,0.0,0.0,0.0,0.0,0.0,0.0,0.0,0.0,0.0,0.0,0.0,0.0,0.0,0.0,0.0,0.0,0.0,0.0,0.0,0.0,0.0,0.0,0.0,0.0,0.0,0.0,0.0,0.0,0.0,0.0,0.0,0.0,0.0,0.0,0.0,0.0,0.0,0.0,0.0,0.0,0.0,0.0,0.0,0.0,0.0,0.0,0.0,0.0,0.0,0.0,0.0,0.486,0.6126,0.0,0.0,0.0,0.0,0.0,0.0,0.0,0.0,0.0,0.0,0.0,0.0,0.0,0.0,0.0,0.0,0.0,0.0,0.0,0.0,0.0,0.0,0.0,0.0,0.0,0.0,0.0,0.0,0.0,0.0,0.0,0.0,0.0,0.0,0.0,0.0,0.0,0.0,0.0,0.0,0.0,0.0,0.0,0.0,0.0,0.0,0.0,0.0,0.0,0.0,0.0,0.0,0.0,0.0,0.0,0.0,0.0,0.0,0.0,0.0,0.0,0.0,0.0,0.0,0.0,0.0,0.0,0.0,0.0,0.0,0.0,0.0,0.0,0.0,0.0,0.0,0.0,0.0,0.0,0.0,0.0,0.0,0.0,0.0,0.0,0.0,0.0,0.0,0.0,0.0,0.0,0.0,0.0,0.0,0.0,0.0,0.0,0.0,0.0,0.0,0.0,0.0,0.0,0.0,0.0,0.0,0.0,0.0,0.0,0.0,0.0,0.0,0.0,0.0,0.1935,0.3422,0.0,0.0,0.0,0.0,0.0,0.0,0.0,0.0,0.0,0.0,0.0,0.0,0.0,0.0,0.0,0.0,0.0,0.0,0.0,0.0,0.0,0.0,0.0,0.0,0.0,0.0,0.0,0.0,0.0,0.0,0.0,0.0,0.0,0.0,0.0,0.0,0.0,0.0,0.0,0.0,0.0,0.0,0.0,0.0,0.0,0.0,0.0,0.0,0.0,0.0,0.0,0.0,0.0,0.0,0.0,0.0,0.0,0.0,0.0,0.0,0.0,0.0,0.0,0.0,0.0,0.0,0.0,0.0,0.0,0.0,0.0,0.0,0.0,0.0,0.0,0.0,0.0,0.0,0.0,0.0,0.0,0.0,0.0,0.0,0.0,0.0,0.0,0.0,0.0,0.0,0.0,0.0,0.0,0.0,0.0,0.0,0.0,0.0,0.0,0.0,0.0,0.0,0.0,0.0,0.0,0.0,0.0,0.0,-0.098,-0.1287,-0.1347,-0.2607,-0.2941,-0.2442,-0.0314,0.1109,0.1903,0.2534,0.0,0.0,0.0,0.0,0.0,0.0,0.0,0.0,0.0,0.0,0.0,0.0,0.0,0.0,0.0,0.0,0.0,0.0,0.0,0.0,0.0,0.0,0.0,0.0,0.0,0.0,0.0,0.0,0.0,0.0,0.0,0.0,0.0,0.0,0.0,0.0,0.0,0.0,1.9921,1.9111,1.8943,1.9408,2.0726,0.0,0.0,0.0,0.0,0.0,0.0,0.0,0.0,0.0,0.0,0.0,0.0,0.0,0.0,0.0,0.0,0.0,0.0,0.0,0.0,0.0,0.0,0.0,0.0,0.0,0.0,0.0,0.0,0.0,0.0,0.0,0.0,0.0,0.0,0.0,0.0,0.0,0.0,0.0,0.0,0.0,0.0,0.0,1.8491,1.6142,0.0,0.0,0.0,0.0,0.0,0.0,0.0,0.0,0.0,0.0,0.0,0.0,0.0,-0.201,-0.3058,-0.2701,-0.2582,-0.2644,-0.2768,-0.283,-0.2833,-0.3176,-0.3317,-0.3189,-0.2314,0.0,0.0443,0.1085,0.0,0.0,0.0,0.0,0.0,0.0,0.0,0.0,0.0,0.0,0.0,0.0,0.0,0.0,0.0,0.0,0.0,0.0,0.0,0.0,0.0,0.0,0.0,0.0,0.0,0.0,0.0,0.0,0.0,0.0,0.0,0.0,0.0,0.0,0.0,0.0,1.9795,1.91,1.9257,1.8255,1.75,1.7071,1.7747,1.8378,1.8919,1.8641,0.0,0.0,0.0,0.0,0.0,0.0,0.0,0.0,0.0,0.0,0.0,0.0,0.0,0.0,0.0,0.0,0.0,0.0,0.0,0.0,0.0,0.0,0.0,0.0,0.0,0.0,0.0,0.0,0.0,0.0,0.0,0.0,0.0,0.0,0.0,0.0,0.0,0.0,0.0,1.7537,1.5512,1.342,1.1561,0.9577,0.0,0.0,0.0,0.0,0.0,0.0,0.0,0.0,0.0,-0.2949,-0.2866,-0.3097,-0.3711,-0.3567,-0.3567,-0.3906,-0.3906,-0.4069,-0.4397,-0.4506,-0.4289,-0.3892,-0.3176,-0.2275,-0.1076,-0.0,0.051,0.0578,0.0,0.0,0.0,0.0,0.3841,0.526,0.0,0.0,0.0,0.0,0.0,0.0,0.0,0.0,0.0,0.0,0.0,0.0,0.0,0.0,0.0,2.5406,0.0,0.0,0.0,0.0,0.0,0.0,0.0,0.0,0.0,0.0,0.0,0.0,1.8629,1.787,1.7827,1.6635,1.5624,1.483,1.4696,1.5501,1.7002,1.6602,1.6415,0.0,0.0,0.0,0.0,0.0,0.0,0.0,0.0,0.0,0.0,0.0,0.0,0.0,0.0,0.0,0.0,0.0,0.0,0.0,0.0,0.0,0.0,0.0,0.0,0.0,0.0,0.0,0.0,0.0,0.0,0.0,0.0,0.0,0.0,0.0,0.0,0.0,0.0,1.434,1.248,1.0384,0.8287,0.617,0.0,0.0,0.0,0.0,0.0,0.0,-0.461,-0.5274,-0.5411,-0.4715,-0.4287,-0.4077,-0.4162,-0.4146,-0.442,-0.4749,-0.4717,-0.499,-0.5428,-0.547,-0.5078,-0.4338,-0.3668,-0.3004,-0.2163,-0.0815,-0.0268,-0.0266,0.0335,0.1354,0.2397,0.1805,0.2802,0.4375,0.0,0.0,0.0,0.0,0.0,0.0,0.0,0.0,0.0,0.0,0.0,0.0,0.0,0.0,2.4672,2.5445,2.4954,2.4664,0.0,0.0,0.0,0.0,0.0,0.0,0.0,0.0,0.0,1.8039,1.7751,1.6661,1.4777,1.3286,1.2451,1.2153,1.1598,1.2707,1.4928,1.4671,1.4617,1.4769,0.0,0.0,0.0,0.0,0.0,0.0,0.0,0.0,0.0,0.0,0.0,0.0,0.0,0.0,0.0,0.0,0.0,0.0,0.0,0.0,0.0,0.0,0.0,0.0,0.0,0.0,0.0,0.0,0.0,0.0,0.0,0.0,0.0,0.0,0.0,0.0,0.0,0.0,0.0,0.6613,0.4938,0.0,0.0,0.0,0.0,-0.3071,-0.459,-0.5404,-0.5359,-0.6229,-0.6386,-0.5576,-0.5637,-0.5711,-0.5718,-0.5594,-0.5527,-0.552,-0.5443,-0.5369,-0.5432,-0.5511,-0.5158,-0.4461,-0.3911,-0.3287,-0.2513,-0.1496,-0.1109,-0.1154,-0.1029,-0.0069,0.13,0.113,0.1849,0.2959,0.0,0.0,0.0,0.0,0.0,0.0,0.0,0.0,0.0,0.0,0.0,0.0,0.0,2.4726,2.4985,2.4745,2.4701,2.4461,2.3993,0.0,0.0,0.0,0.0,0.0,0.0,0.0,1.816,1.7647,1.6244,1.4892,1.3641,1.2723,1.1881,1.1161,1.113,1.1457,1.2054,1.2602,1.2899,1.3165,1.3312,1.3467,0.0,0.0,0.0,0.0,0.0,0.0,0.0,0.0,0.0,0.0,0.0,0.0,0.0,0.0,0.0,0.0,0.0,0.0,0.0,0.0,0.0,0.0,0.0,0.0,0.0,0.0,0.0,0.0,0.0,0.0,0.0,0.0,0.0,0.0,0.0,0.0,0.0,0.5006,0.347,0.0,-0.0263,-0.1714,-0.2902,-0.3888,-0.5698,-0.6775,-0.6903,-0.7716,-0.795,-0.7516,-0.7009,-0.6581,-0.6317,-0.6019,-0.5899,-0.5941,-0.5648,-0.5521,-0.5554,-0.5483,-0.51,-0.4357,-0.3813,-0.3184,-0.2387,-0.1789,-0.1245,-0.0967,-0.0948,-0.0068,0.1038,0.0559,0.1268,0.2417,0.0,0.0,0.0,0.0,0.0,0.0,0.0,0.0,0.0,0.0,0.0,2.4284,2.421,2.4984,2.517,2.434,2.4538,2.4354,2.3513,0.0,0.0,0.0,0.0,0.0,0.0,1.8561,1.7346,1.6679,1.5176,1.3795,1.2529,1.1956,1.1251,1.0457,1.053,1.047,1.0335,1.1176,1.1587,1.1764,1.2047,1.2241,1.2402,0.0,0.0,0.0,0.0,0.0,0.0,0.0,0.0,0.0,0.0,0.0,0.0,0.0,0.0,0.0,0.0,0.0,0.0,0.0,0.0,0.0,0.0,0.0,0.0,0.0,0.0,0.0,0.0,0.0,0.0,0.0,0.0,0.0,0.0,0.7685,0.5642,0.3515,0.2338,0.0736,-0.1607,-0.2703,-0.3736,-0.4754,-0.6666,-0.7756,-0.7818,-0.8454,-0.8704,-0.8407,-0.7522,-0.6878,-0.6638,-0.6325,-0.6099,-0.609,-0.5859,-0.5727,-0.5683,-0.5355,-0.4779,-0.4076,-0.3569,-0.2951,-0.2251,-0.1998,-0.1436,-0.074,-0.0815,-0.0,0.1109,0.0564,0.1136,0.2066,0.0,0.0,0.0,0.0,0.0,0.0,0.0,0.0,0.0,0.0,2.4478,2.4464,2.4266,2.5004,2.517,2.4321,2.4483,2.4324,2.3468,2.2968,0.0,0.0,0.0,0.0,1.9078,1.8927,1.765,1.5174,1.4771,1.3499,1.1407,1.0882,1.0399,0.9979,0.9662,0.9681,0.9959,1.0484,1.0713,1.0791,1.1592,1.2051,1.2378,0.0,0.0,0.0,0.0,0.0,0.0,0.0,0.0,0.0,0.0,0.0,0.0,0.0,0.0,0.0,0.0,0.0,0.0,0.0,0.0,0.0,0.0,0.0,0.0,0.0,0.0,0.0,0.0,0.0,0.0,0.0,0.0,0.0,0.7984,0.6492,0.4461,0.2136,0.1412,-0.0067,-0.2956,-0.3305,-0.4124,-0.5797,-0.7507,-0.8299,-0.7932,-0.8426,-0.8537,-0.8161,-0.7173,-0.6641,-0.6637,-0.647,-0.6309,-0.6153,-0.5985,-0.5907,-0.5907,-0.5163,-0.4422,-0.3765,-0.3264,-0.2597,-0.2029,-0.2179,-0.1548,-0.054,-0.0762,-0.0,0.1164,0.1164,0.1455,0.1746,0.0,0.0,0.0,0.0,0.0,0.0,0.0,0.0,0.0,0.0,2.5045,2.5403,2.5112,2.5412,2.5486,2.5092,2.4444,2.3844,2.3432,0.0,0.0,0.0,0.0,0.0,2.0023,1.8832,1.764,1.6334,1.4746,1.3294,1.2054,1.1046,1.0573,1.048,1.008,1.0381,1.1206,1.1147,1.1313,1.1527,1.137,1.1341,1.1484,0.0,0.0,0.0,0.0,0.0,0.0,0.0,0.0,0.0,0.0,0.0,0.0,0.0,0.0,0.0,0.0,0.0,0.0,0.0,0.0,0.0,0.0,0.0,0.0,0.0,0.0,0.0,0.0,0.0,0.0,0.0,0.7678,0.6772,0.6626,0.5155,0.3438,0.1416,0.0498,-0.0926,-0.3416,-0.3654,-0.4313,-0.5958,-0.6964,-0.7649,-0.7868,-0.8513,-0.8692,-0.8318,-0.7936,-0.7452,-0.7034,-0.6716,-0.661,-0.6703,-0.6391,-0.6316,-0.646,-0.5537,-0.4706,-0.4015,-0.3289,-0.2644,-0.2029,-0.2179,-0.1497,-0.0484,-0.0615,0.0068,0.11,0.11,0.1169,0.1307,0.0,0.0,0.0,0.0,0.0,0.0,0.0,0.0,0.0,0.0,2.5446,2.5922,2.5652,2.6004,2.6078,2.5559,2.4847,2.4184,2.3624,0.0,0.0,0.0,0.0,2.149,2.0395,1.9291,1.7983,1.6454,1.5182,1.3864,1.2434,1.1903,1.144,1.1034,1.0937,1.1169,1.1645,1.1896,1.204,1.2137,1.2258,1.2032,1.1719,1.2655,1.3,1.3149,1.4394,1.4919,1.5185,1.5959,0.0,0.0,0.0,0.0,0.0,0.0,0.0,0.0,0.0,0.0,0.0,0.0,0.0,0.0,0.0,0.0,0.0,0.0,0.0,0.0,0.0,0.0,0.0,0.0,0.6714,0.5748,0.5587,0.4493,0.2997,0.1088,0.0291,-0.1019,-0.3201,-0.3745,-0.4578,-0.5825,-0.6976,-0.7803,-0.8221,-0.8445,-0.8571,-0.8546,-0.8016,-0.7524,-0.7231,-0.6978,-0.6888,-0.6956,-0.635,-0.6131,-0.6202,-0.4938,-0.4169,-0.371,-0.2993,-0.2427,-0.2099,-0.1905,-0.129,-0.0482,0.0,0.0,0.0,0.0,0.1076,0.1076,0.0,0.0,0.0,0.0,0.0,0.0,0.0,0.0,0.0,0.0,0.0,2.6143,2.5919,2.6561,2.6645,2.5798,2.543,2.4867,0.0,0.0,0.0,2.3852,2.3443,2.243,2.0642,2.0105,1.8719,1.6322,1.6052,1.4877,1.3055,1.3212,1.281,1.1896,1.2078,1.2063,1.1994,1.2743,1.2989,1.2953,1.385,1.3546,1.26,1.3872,1.4276,1.4321,1.5255,1.5739,1.5975,1.6809,0.0,0.0,0.0,0.0,0.0,0.0,0.0,0.0,0.0,0.0,0.0,0.0,0.0,0.0,0.0,0.0,0.0,0.0,0.0,0.0,0.0,0.0,0.0,0.0,0.5748,0.4862,0.4867,0.4082,0.2857,0.1168,0.0439,-0.0731,-0.2695,-0.3636,-0.4584,-0.5498,-0.6893,-0.7905,-0.8237,-0.7931,0.0,0.0,0.0,-0.6954,-0.6954,-0.6935,-0.6849,-0.6761,-0.5881,-0.5527,-0.5454,-0.3963,-0.3291,-0.3295,-0.2461,-0.2126,-0.2029,-0.1429,-0.0876,-0.0406,-0.0346,0.0279,0.1112,0.1086,0.1076,0.1076,0.0,0.0,0.0,0.0,0.0,0.0,0.0,0.0,0.0,2.4915,2.5748,2.6255,2.5941,2.6186,2.6239,2.5879,2.5227,2.4871,0.0,0.0,2.4115,2.4812,2.4003,2.3147,2.2321,2.1009,1.9686,1.8341,1.7027,1.593,1.5129,1.4168,1.3957,1.4213,1.3726,1.3952,1.4718,1.4154,1.4363,1.5036,1.5441,1.4848,1.3887,1.5554,1.5947,1.5806,1.7523,1.7587,1.7078,1.8119,1.8175,1.7952,1.8441,0.0,0.0,0.0,0.0,0.0,0.0,0.0,0.0,0.0,0.0,0.0,0.0,0.0,0.0,0.0,0.0,0.0,0.0,0.0,0.0,0.6175,0.5053,0.4326,0.4368,0.3135,0.2071,0.1428,-0.0,-0.1342,-0.2479,-0.3141,-0.3838,-0.4745,-0.5075,-0.5433,-0.569,-0.5619,-0.5619,-0.5696,-0.5544,-0.5458,-0.5431,-0.54,-0.5333,-0.5306,-0.5098,0.0,-0.4893,-0.3944,-0.352,-0.3458,-0.2109,-0.1534,-0.1539,-0.0884,-0.034,0.0208,0.0614,0.0948,0.1084,0.1078,0.1076,0.1076,0.0,0.0,0.0,0.0,0.0,0.0,0.0,0.0,0.0,0.0,2.5831,2.6333,2.6167,2.6241,2.6227,2.6069,2.5501,0.0,0.0,2.543,2.5496,2.6173,2.5089,2.4115,2.3359,2.22,2.0984,1.971,1.8643,1.7686,1.6946,1.5736,1.5235,1.5323,1.4678,1.469,1.5172,1.5205,1.5494,1.5962,1.6695,1.6584,1.6117,1.7234,1.7683,1.7784,1.876,1.8836,1.8648,1.9137,1.9374,1.943,1.95,1.9738,1.9693,0.0,0.0,0.0,0.0,0.0,0.0,0.0,0.0,0.0,0.0,0.0,0.0,0.0,0.0,0.9394,0.8287,0.0,0.6757,0.6047,0.4712,0.3942,0.4296,0.2722,0.1477,0.1212,0.0227,-0.0824,-0.1899,-0.2617,-0.336,-0.407,-0.4443,-0.476,-0.4894,-0.4897,-0.4925,-0.4912,-0.493,-0.4927,-0.4912,-0.4867,-0.4879,-0.4876,-0.4104,-0.3768,-0.3697,-0.26,-0.2028,-0.2026,-0.1242,-0.0961,-0.0891,-0.0338,0.0203,0.0754,0.1014,0.1085,0.1097,0.1081,0.1076,0.1076,0.0,0.0,0.0,0.0,0.0,0.0,0.0,0.0,0.0,0.0,2.5765,2.6173,2.6173,2.6173,2.6117,0.0,0.0,0.0,0.0,2.662,2.6908,2.7374,2.6198,2.5147,2.4275,2.3445,2.2338,2.0979,2.0317,1.9506,1.8584,1.7456,1.6757,1.6352,1.5776,1.5556,1.5684,1.6286,1.6602,1.6904,1.7901,1.8254,1.8379,1.8932,1.9257,1.9439,1.9753,1.9889,2.0023,2.0187,2.0537,2.0894,2.0701,2.0637,2.0362,1.9189,1.8533,0.0,0.0,0.0,0.0,0.0,0.0,0.0,0.0,1.3021,1.2409,1.1341,1.0188,0.9171,0.8409,0.7607,0.6845,0.6207,0.4785,0.398,0.4448,0.2821,0.1475,0.1204,0.0676,-0.0074,-0.108,-0.1862,-0.2515,-0.2978,-0.363,-0.4007,-0.3971,-0.4028,-0.4056,-0.4068,-0.4042,-0.4028,-0.4112,-0.401,-0.3958,-0.3958,-0.2804,-0.2286,-0.2215,-0.1017,-0.0403,-0.0269,-0.0067,0.0134,0.0268,0.0671,0.1141,0.1478,0.1478,0.1498,0.1524,0.1355,0.1276,0.1344,0.0,0.0,0.0,0.0,0.0,0.0,0.0,0.0,0.0,0.0,0.0,0.0,0.0,0.0,0.0,0.0,0.0,0.0,2.697,2.7185,2.7404,2.763,2.6862,2.6183,2.5587,2.4411,2.3438,2.2731,2.1583,2.0718,2.0038,1.9092,1.8573,1.8519,1.7961,1.8002,1.8442,1.7874,1.8155,1.9028,1.9141,1.9297,1.9689,2.0339,2.0149,1.9644,2.1049,2.0959,2.0331,2.1273,2.1252,2.1081,2.1988,2.1979,2.1638,2.1449,2.0335,1.9051,1.8071,1.7045,1.631,1.6233,1.602,1.5866,0.0,1.4412,1.3198,1.2594,1.1426,1.0232,0.9169,0.8356,0.7458,0.6405,0.5452,0.4833,0.4924,0.3444,0.2313,0.2278,0.117,0.0287,0.0136,-0.0407,-0.083,-0.0944,-0.1019,-0.104,-0.1087,-0.1143,-0.1131,-0.1134,-0.1181,-0.1166,-0.117,-0.1068,-0.1054,-0.1054,-0.0821,-0.0742,-0.0742,-0.0605,-0.0201,0.0469,0.1606,0.2342,0.2813,0.2882,0.2882,0.2948,0.2948,0.2954,0.2894,0.2217,0.2013,0.2079,0.0,0.0,0.0,0.0,0.0,0.0,0.0,0.0,0.0,0.0,0.0,0.0,0.0,0.0,0.0,0.0,0.0,0.0,2.7079,2.7732,2.8139,2.8219,2.7442,2.677,2.6268,2.5431,2.465,2.3999,2.3154,2.2419,2.1741,2.1053,2.0643,2.0397,2.0234,2.0459,2.0962,2.0158,2.0484,2.1486,2.1034,2.1119,2.1596,2.2149,2.1918,2.1269,2.1063,2.073,0.0,0.0,2.1244,2.1175,2.1865,2.1963,2.1628,2.0795,2.0227,1.9599,1.8508,1.7818,1.7427,1.7347,1.7397,1.7195,1.6059,1.5175,1.4282,1.3145,1.1838,1.0789,1.0361,0.9018,0.7833,0.7352,0.606,0.5086,0.5012,0.399,0.3245,0.3133,0.2708,0.184,0.0406,0.0068,-0.0208,-0.0498,-0.0506,-0.0515,-0.0451,-0.0514,-0.0583,-0.0666,-0.0569,-0.0631,-0.0641,-0.0555,-0.0547,-0.0547,-0.0203,0.0201,0.0537,0.0872,0.1408,0.2075,0.2611,0.3013,0.3215,0.3215,0.3215,0.3215,0.3215,0.3215,0.3149,0.2882,0.2748,0.2815,0.0,0.0,0.0,0.0,0.0,0.0,0.0,0.0,0.0,0.0,0.0,0.0,0.0,0.0,0.0,0.0,0.0,0.0,0.0,2.8157,2.8749,2.8601,2.7992,2.7417,2.6928,2.6455,2.601,2.5609,2.4925,2.4403,2.4073,2.3392,2.3013,2.2899,2.2684,2.3012,2.3629,2.269,2.3044,2.4053,2.3502,2.3514,2.3883,2.3997,2.3718,2.3061,2.1701,2.1073,0.0,0.0,2.1209,2.1293,2.1541,2.1528,2.1267,2.0414,2.0122,1.9801,1.8683,1.8312,1.8095,1.8101,1.8223,1.7951,1.649,1.5996,1.5376,1.3798,1.2757,1.198,1.1337,0.9991,0.8913,0.8482,0.7239,0.6265,0.6155,0.5321,0.4711,0.445,0.428,0.3375,0.1454,0.1266,0.1143,0.0714,0.0727,0.0735,0.0662,0.0646,0.0569,0.0503,0.0482,0.0474,0.0415,0.0474,0.0537,0.0537,0.0939,0.1341,0.1876,0.2412,0.3015,0.3482,0.3751,0.3818,0.3818,0.3818,0.3818,0.3818,0.3818,0.3818,0.3818,0.3818,0.3685,0.3551,0.0,0.0,0.0,0.0,0.0,0.0,0.0,0.0,0.0,0.0,0.0,0.0,0.0,0.0,0.0,0.0,0.0,0.0,0.0,2.8462,2.9079,2.8626,2.8576,2.8273,2.7683,2.7396,2.7461,2.7912,2.6814,2.6687,2.7331,2.6087,2.5875,2.6474,2.5409,2.5576,2.6665,2.541,2.5577,2.672,2.6656,2.6635,2.6518,2.5952,2.5286,2.4578,2.3595,0.0,0.0,0.0,2.1511,2.1447,2.1209,2.0824,2.0638,2.1507,2.069,1.9515,1.8848,1.8175,1.7827,1.8299,1.8042,1.7652,1.7148,1.6961,1.6422,1.4677,1.4608,1.4179,1.1905,1.1466,1.1043,0.9971,0.9347,0.9006,0.8996,0.8026,0.6995,0.624,0.5399,0.4535,0.3708,0.3708,0.3759,0.3607,0.3609,0.3539,0.3394,0.3387,0.3301,0.3219,0.3129,0.3084,0.3086,0.3084,0.3082,0.3082,0.3082,0.3149,0.3149,0.3885,0.422,0.4287,0.5024,0.5362,0.5362,0.5362,0.5362,0.5362,0.5362,0.5362,0.5362,0.5362,0.4891,0.4353,0.0,0.0,0.0,0.0,0.0,0.0,0.0,0.0,0.0,0.0,0.0,0.0,0.0,0.0,0.0,0.0,0.0,0.0,0.0,2.8615,2.9532,2.9898,3.0174,3.0475,3.0821,3.0568,3.0645,3.112,3.0473,3.0031,2.9749,2.9518,2.9496,2.9621,2.9658,3.0297,3.1155,2.9479,2.9728,3.1005,2.8871,2.8731,2.9615,2.7708,2.7141,2.7078,0.0,0.0,0.0,0.0,2.1677,2.1767,2.1962,2.1926,2.1735,2.1269,2.0495,1.9626,1.9324,1.9454,1.9601,1.9216,1.9173,1.9016,1.7776,1.7501,1.706,1.587,1.5573,1.5266,1.4534,1.3367,1.2359,1.1672,1.0409,0.9404,0.9128,0.8783,0.8398,0.8176,0.807,0.7905,0.7572,0.5231,0.3768,0.3691,0.3749,0.3683,0.3477,0.3465,0.3448,0.3287,0.3262,0.3215,0.3215,0.3215,0.3215,0.3215,0.3685,0.3951,0.3951,0.4688,0.5024,0.5024,0.5292,0.5428,0.5428,0.5881,0.6075,0.6141,0.6535,0.6736,0.6736,0.6736,0.6597,0.6268,0.0,0.0,0.0,0.0,0.0,0.0,0.0,0.0,0.0,0.0,0.0,0.0,0.0,0.0,0.0,0.0,0.0,2.73,0.0,0.0,2.9775,3.0221,3.0787,3.1273,3.1679,3.1717,3.2115,3.2875,3.2462,3.2353,3.2629,3.2703,3.289,3.3254,3.3486,3.4101,3.4873,3.3198,3.317,3.4032,3.1671,3.1418,3.2182,2.9834,2.9267,0.0,0.0,0.0,0.0,0.0,2.2237,2.2221,2.2039,2.2136,2.2093,2.1118,2.0619,2.0369,2.0102,2.0267,2.042,2.0127,2.0144,1.9913,1.8515,1.8344,1.8108,1.6642,1.6447,1.6309,1.5731,1.4482,1.3496,1.3263,1.1787,1.0632,1.0565,1.0307,1.0031,0.9731,0.9922,0.9878,0.9572,0.7277,0.5752,0.5628,0.5705,0.5502,0.5132,0.5113,0.5056,0.4804,0.4517,0.4342,0.4342,0.4342,0.4475,0.4737,0.5206,0.5408,0.5408,0.5877,0.6148,0.6148,0.6148,0.6148,0.6145,0.6601,0.6728,0.6793,0.7256,0.7386,0.7386,0.7386,0.7386,0.7256,0.0,0.0,0.0,0.0,0.0,0.0,0.0,0.0,0.0,0.0,0.0,0.0,0.0,0.0,0.0,0.0,0.0,0.0,0.0,0.0,0.0,2.9739,3.0565,3.0919,3.0698,3.1233,3.2148,3.3364,3.2939,3.3774,3.5761,3.5496,3.6017,3.7127,3.6576,3.69,3.7686,3.6372,3.584,3.5817,3.4969,3.4591,3.4226,3.2244,0.0,0.0,0.0,0.0,0.0,2.4189,2.3148,2.2907,2.1651,2.1578,2.1795,2.113,2.1279,2.155,2.1209,2.0754,2.0416,2.0834,2.0701,2.0254,1.9243,1.9579,1.9468,1.7245,1.7315,1.7235,1.5649,1.488,1.4566,1.4703,1.3567,1.2764,1.3153,1.2609,1.186,1.1055,1.0864,1.0616,0.9811,0.9725,0.9631,0.9429,0.9168,0.8818,0.8141,0.8089,0.7891,0.7414,0.6798,0.6465,0.6465,0.6465,0.6793,0.7386,0.7386,0.7386,0.7386,0.7386,0.7386,0.7386,0.7386,0.7386,0.7386,0.7451,0.7451,0.7451,0.7517,0.7517,0.7517,0.7517,0.7517,0.7517,0.0,0.0,0.0,0.0,0.0,0.0,0.0,0.0,0.0,0.0,0.0,0.0,0.0,0.0,0.0,0.0,0.0,0.0,0.0,0.0,0.0,0.0,0.0,0.0,0.0,0.0,0.0,0.0,0.0,3.6204,3.6754,3.6827,3.7154,3.7683,3.7361,3.7803,3.8753,3.7508,3.7556,3.8366,0.0,3.5952,3.6505,0.0,0.0,0.0,0.0,0.0,2.9391,2.6199,2.484,2.4266,2.3493,2.3292,2.3257,2.3112,2.3004,2.2874,2.2165,2.2166,2.2083,2.1145,2.0868,2.0605,1.9854,1.9837,1.9691,1.862,1.8582,1.8417,1.7481,1.703,1.6698,1.6265,1.5561,1.4889,1.4583,1.4109,1.3853,1.3909,1.3612,1.3405,1.3447,1.32,1.3048,1.3039,1.0578,0.8946,0.8702,0.8317,0.7957,0.7688,0.7334,0.712,0.712,0.712,0.7256,0.7386,0.7386,0.7386,0.7386,0.7386,0.7386,0.7386,0.7386,0.7386,0.7451,0.7972,0.8231,0.8296,0.8759,0.8958,0.8958,0.8958,0.8958,0.8958,0.0,0.0,0.0,0.0,0.0,0.0,0.0,0.0,0.0,0.0,0.0,0.0,0.0,0.0,0.0,0.0,0.0,0.0,0.0,0.0,0.0,0.0,0.0,0.0,0.0,0.0,0.0,0.0,0.0,0.0,0.0,3.721,3.781,3.8419,3.828,3.8776,3.9595,0.0,0.0,0.0,0.0,0.0,0.0,0.0,0.0,0.0,0.0,0.0,3.0675,2.8338,2.6794,2.5667,2.5006,2.4709,2.4601,2.4202,2.4006,2.3781,2.3221,2.3274,2.3254,2.2499,2.2059,2.1562,2.0721,2.0381,2.01,1.9229,1.9261,1.9167,1.8364,1.791,1.753,1.7138,1.6338,1.5769,1.5759,1.526,1.493,1.4933,1.4663,1.4576,1.4612,1.4381,1.4279,1.435,1.2408,1.113,1.1007,1.0082,0.949,0.9237,0.8341,0.7907,0.7907,0.7907,0.8037,0.8301,0.8301,0.8301,0.8301,0.8301,0.8301,0.8301,0.8301,0.8301,0.8366,0.8759,0.8952,0.8952,0.935,0.9484,0.9484,0.9484,0.9484,0.9484,0.0,0.0,0.0,0.0,0.0,0.0,0.0,0.0,0.0,0.0,0.0,0.0,0.0,0.0,0.0,0.0,0.0,0.0,0.0,0.0,0.0,0.0,0.0,0.0,0.0,0.0,0.0,0.0,0.0,0.0,0.0,0.0,0.0,0.0,0.0,0.0,0.0,0.0,0.0,0.0,0.0,0.0,0.0,0.0,0.0,0.0,0.0,0.0,3.1897,3.0517,2.8736,2.7012,2.6343,2.6182,2.6022,2.5269,2.4944,2.4848,2.4495,2.4325,2.4264,2.412,2.3621,2.2848,2.1816,2.1339,2.0891,1.9687,1.9774,1.9703,1.8683,1.8215,1.7886,1.7743,1.6788,1.6258,1.6838,1.6324,1.5685,1.518,1.5056,1.49,1.4554,1.4495,1.4488,1.4602,1.429,1.3985,1.3667,1.2368,1.1525,1.1183,0.9691,0.8865,0.8865,0.8865,0.9198,0.9792,0.9792,0.9792,0.9792,0.9792,0.9792,0.9728,0.967,0.9612,0.9606,0.9548,0.9484,0.9484,0.9484,0.9548,0.9606,0.9548,0.9548,0.9606,0.0,0.0,0.0,0.0,0.0,0.0,0.0,0.0,0.0,0.0,0.0,0.0,0.0,0.0,0.0,0.0,0.0,0.0,0.0,0.0,0.0,0.0,0.0,0.0,0.0,0.0,3.3583,3.2732,3.3975,0.0,0.0,0.0,0.0,0.0,0.0,0.0,0.0,0.0,0.0,0.0,0.0,0.0,0.0,0.0,0.0,0.0,0.0,3.4539,0.0,0.0,3.0346,2.826,2.817,2.8066,2.8015,2.7851,2.7433,2.6793,2.6108,2.5533,2.4933,2.4264,2.3975,2.3765,2.3112,2.2765,2.2328,2.1081,2.0767,2.042,1.9307,1.9251,1.9256,1.8726,1.8497,1.8292,1.8252,1.7675,1.7156,1.7058,1.6455,1.6063,1.5988,1.5721,1.568,1.6045,1.5655,1.4969,1.391,1.2909,1.202,1.143,1.1163,1.101,1.101,1.101,1.101,1.1149,1.1149,1.1149,1.1149,1.1149,1.1149,1.1142,1.0541,1.0364,1.0301,0.9734,0.9484,0.9484,0.9484,0.9862,1.0238,0.9734,0.9862,1.0238,0.0,0.0,0.0,0.0,0.0,0.0,0.0,0.0,0.0,0.0,2.9716,3.0108,0.0,0.0,0.0,0.0,0.0,0.0,0.0,0.0,0.0,0.0,0.0,0.0,0.0,3.4563,3.3954,3.2921,0.0,3.4184,3.3555,3.4685,3.5302,3.5491,3.5248,3.5638,0.0,0.0,0.0,0.0,0.0,0.0,0.0,0.0,0.0,0.0,0.0,3.5419,3.5179,0.0,3.2195,3.0441,2.9799,2.9342,2.903,2.862,2.8233,2.7907,2.7551,2.7219,2.6761,2.6064,2.5371,2.4618,2.3774,2.3374,2.295,2.2072,2.1933,2.1704,2.0787,2.0468,2.0157,1.945,1.9362,1.9347,1.9227,1.8921,1.8611,1.8203,1.7814,1.7424,1.6928,1.6729,1.6702,1.6892,1.6729,1.6131,1.4936,1.3598,1.2409,1.1531,1.1516,1.1516,1.1516,1.1516,1.1516,1.1516,1.1516,1.1516,1.1516,1.1692,1.1677,1.1461,1.139,1.1185,1.0968,1.0654,1.0528,1.0528,1.0528,1.0717,1.0968,1.0654,1.0717,1.0968,0.0,0.0,0.0,0.0,0.0,0.0,0.0,2.9138,2.9249,2.9249,2.9565,3.0208,3.1293,3.2145,0.0,0.0,0.0,0.0,0.0,0.0,0.0,0.0,0.0,0.0,0.0,0.0,0.0,3.3223,3.4112,0.0,0.0,0.0,0.0,0.0,3.4613,3.4788,3.5238,3.5106,0.0,0.0,0.0,3.8113,0.0,0.0,0.0,0.0,0.0,3.6374,3.5816,3.5081,3.395,3.269,3.1638,3.0702,2.9875,2.9087,2.8843,2.8762,2.8762,2.8684,2.8427,2.7855,2.696,2.5853,2.4505,2.4114,2.3746,2.3003,2.3007,2.3021,2.2424,2.1742,2.1075,2.0556,2.0207,2.014,2.0349,2.0087,1.9667,1.9023,1.8796,1.8398,1.7641,1.743,1.7373,1.7373,1.7213,1.6701,1.5757,1.4222,1.2885,1.1958,1.195,1.195,1.195,1.2018,1.2064,1.2064,1.2132,1.217,1.2178,1.2523,1.2493,1.2185,1.2255,1.2123,1.1799,1.1608,1.1516,1.1516,1.1516,1.1571,1.1703,1.1578,1.1571,1.1695,0.0,0.0,0.0,0.0,0.0,0.0,0.0,2.9017,2.904,2.904,2.9894,3.0893,3.192,3.2258,0.0,0.0,0.0,0.0,0.0,0.0,0.0,0.0,0.0,0.0,0.0,0.0,0.0,3.2336,3.3087,0.0,0.0,0.0,0.0,0.0,0.0,3.4173,3.4506,3.4488,0.0,0.0,0.0,0.0,0.0,0.0,0.0,0.0,0.0,3.7715,3.7507,3.6501,3.5315,3.4304,3.4091,3.2777,3.1187,3.0463,2.9941,2.9685,2.9546,2.9205,2.8876,2.8492,2.8465,2.8012,2.6083,2.5853,2.5555,2.3893,2.377,2.3838,2.3464,2.2844,2.2542,2.275,2.1449,2.0841,2.189,2.0827,1.9875,1.9896,1.9146,1.8502,1.81,1.766,1.7373,1.7373,1.6732,1.6048,1.5539,1.4589,1.3789,1.3338,1.3321,1.3321,1.3321,1.3675,1.3844,1.3853,1.4208,1.4442,1.4377,1.441,1.4476,1.4351,1.3381,1.2972,1.2853,1.1892,1.1516,1.1516,1.1516,1.1888,1.232,1.1703,1.1888,1.232,0.0,0.0,0.0,0.0,0.0,0.0,0.0,2.8994,2.8994,2.8994,2.9365,3.0043,3.1078,3.1806,3.2767,0.0,0.0,0.0,0.0,0.0,0.0,0.0,0.0,0.0,0.0,0.0,3.4434,3.4369,3.4049,0.0,0.0,0.0,0.0,0.0,0.0,3.3835,3.3887,3.3615,0.0,0.0,0.0,0.0,0.0,0.0,0.0,0.0,0.0,0.0,3.7298,3.6251,3.559,3.5004,3.3978,3.3502,3.3091,3.1946,3.191,3.2105,3.1574,3.1703,3.1784,3.0693,2.9673,2.8697,2.7687,2.703,2.6424,2.6115,2.5457,2.4881,2.4755,2.3541,2.2594,2.2761,2.2469,2.2397,2.2936,2.266,2.236,2.2166,2.1134,2.0284,1.9817,1.8975,1.8285,1.8015,1.716,1.6626,1.6427,1.525,1.4523,1.4359,1.4284,1.4276,1.4276,1.4374,1.4453,1.4453,1.4607,1.4684,1.4692,1.4906,1.4889,1.4684,1.4471,1.4113,1.3688,1.3216,1.2897,1.2696,1.2696,1.2879,1.307,1.2818,1.2879,1.307,0.0,0.0,0.0,0.0,0.0,0.0,2.8994,2.8994,2.8994,2.8994,2.8994,2.9402,3.0485,3.1437,3.275,3.4594,0.0,0.0,0.0,0.0,0.0,0.0,0.0,0.0,0.0,0.0,3.5077,3.5415,3.4674,3.4494,0.0,0.0,3.3972,3.3921,0.0,0.0,0.0,0.0,0.0,0.0,0.0,0.0,0.0,0.0,0.0,0.0,0.0,0.0,0.0,0.0,0.0,3.5268,3.4268,3.4232,0.0,3.2855,3.2975,3.341,3.3077,3.3533,3.3752,3.2372,3.0959,2.9635,2.881,2.7906,2.7366,2.7653,2.7022,2.6295,2.6141,2.4801,2.3826,2.4068,2.3878,2.3898,2.4472,2.4269,2.4039,2.3916,2.2897,2.1976,2.1464,2.0202,1.9196,1.8722,1.7758,1.7191,1.7191,1.6127,1.5369,1.5141,1.5041,1.5074,1.5013,1.5113,1.5177,1.5366,1.5482,1.5411,1.5277,1.5538,1.5385,1.5026,1.5155,1.4915,1.441,1.4187,1.393,1.3673,1.3554,1.3511,1.3511,1.3511,1.3511,1.3511,0.0,0.0,0.0,0.0,0.0,0.0,0.0,2.8994,2.8994,2.8994,2.8994,2.9402,3.0485,3.1325,3.232,3.36,0.0,0.0,0.0,0.0,0.0,0.0,0.0,0.0,0.0,0.0,3.4774,3.4508,3.4379,3.4165,3.3913,3.3972,3.3998,3.3998,0.0,0.0,0.0,0.0,0.0,0.0,0.0,0.0,0.0,0.0,0.0,0.0,0.0,0.0,0.0,0.0,0.0,0.0,0.0,0.0,0.0,0.0,3.2677,3.2944,3.3599,3.4062,3.4023,3.3038,3.2406,3.1369,2.9194,2.8647,2.8437,2.7796,2.8135,2.8315,2.7696,2.707,2.6865,2.7449,2.5826,2.5075,2.671,2.5338,2.4303,2.4723,2.3982,2.3236,2.2639,2.1041,1.9899,1.9408,1.8342,1.7668,1.7668,1.7224,1.6548,1.5638,1.5609,1.5619,1.5576,1.5984,1.64,1.6883,1.7233,1.7079,1.6594,1.6594,1.6263,1.5771,1.5377,1.5206,1.5146,1.4401,1.4093,1.405,1.3665,1.3511,1.3511,1.3511,1.3511,1.3511,0.0,0.0,0.0,0.0,0.0,0.0,0.0,2.8994,2.8994,2.8994,2.9494,2.994,3.0291,3.1691,3.2761,3.3178,0.0,0.0,0.0,0.0,0.0,0.0,0.0,0.0,0.0,0.0,0.0,3.4279,3.4062,3.3902,3.3815,3.3842,3.4154,3.4687,3.4687,3.4605,0.0,0.0,0.0,0.0,0.0,0.0,3.6697,0.0,0.0,0.0,0.0,0.0,0.0,0.0,0.0,0.0,0.0,0.0,0.0,0.0,3.4806,3.488,3.4553,3.4915,3.5172,3.4333,3.3254,3.2191,3.1412,3.0529,2.9842,2.9714,2.913,2.8413,2.7829,2.7223,2.6856,2.6965,2.684,2.6844,2.7278,2.7151,2.6851,2.6576,2.5143,2.3659,2.2223,2.1308,2.0266,1.8999,1.8559,1.819,1.7729,1.7533,1.7185,1.6568,1.6523,1.6494,1.6494,1.6548,1.6836,1.7252,1.7385,1.7304,1.7166,1.7166,1.7028,1.689,1.6339,1.5996,1.5645,1.4824,1.4341,1.4059,1.3665,1.3511,1.3545,1.381,1.3913,1.3947,0.0,0.0,0.0,0.0,0.0,0.0,0.0,2.8994,2.8994,2.8994,2.9457,2.9861,3.0173,3.1494,3.2562,3.2971,0.0,0.0,0.0,0.0,0.0,0.0,0.0,0.0,0.0,0.0,3.5123,3.4197,3.4234,3.41,3.3807,3.3807,3.4229,3.499,3.499,3.5099,0.0,0.0,0.0,0.0,0.0,0.0,3.5921,0.0,0.0,0.0,0.0,0.0,0.0,0.0,0.0,0.0,0.0,0.0,0.0,0.0,3.5496,3.5693,3.5312,3.5565,3.5679,3.4873,3.3834,3.2819,3.2221,3.124,3.0544,3.0601,2.9763,2.8893,2.8567,2.7952,2.7649,2.8112,2.8078,2.8025,2.8252,2.8315,2.8071,2.7352,2.5933,2.4426,2.3149,2.1914,2.0746,1.9738,1.9284,1.8835,1.8384,1.8371,1.8047,1.7343,1.7226,1.7211,1.7211,1.7175,1.7412,1.8056,1.8056,1.792,1.7725,1.7725,1.7657,1.7373,1.6811,1.6468,0.0,1.5236,1.4744,1.4478,1.4101,1.3956,1.3982,1.423,1.4316,1.435,0.0,0.0,0.0,0.0,0.0,0.0,0.0,0.0,0.0,0.0,2.9049,2.9384,3.0118,3.0907,3.1814,0.0,0.0,0.0,0.0,0.0,0.0,0.0,0.0,0.0,0.0,3.5025,3.4884,3.4006,3.4484,3.4376,3.3623,3.3697,3.4211,3.5082,3.5082,3.5341,0.0,0.0,0.0,0.0,0.0,0.0,0.0,0.0,0.0,0.0,0.0,0.0,0.0,0.0,0.0,0.0,0.0,0.0,0.0,0.0,0.0,0.0,0.0,3.586,3.5546,3.4868,3.4178,3.3282,3.186,3.111,0.0,0.0,0.0,2.9682,2.9682,2.9168,2.9157,3.0464,2.9602,2.8893,2.9479,2.8878,2.814,2.7551,2.6413,2.5438,2.4872,2.269,2.1367,2.126,2.0252,1.9562,1.9456,1.9404,1.8923,1.8013,1.7804,1.7719,1.7781,1.7812,1.8278,1.9168,1.9137,1.8916,1.8387,1.8357,1.8056,1.751,1.695,1.6742,1.6645,1.5703,1.535,1.5316,1.4953,1.4806,1.4815,1.4775,1.4784,1.4792,0.0,0.0,0.0,0.0,0.0,0.0,0.0,0.0,0.0,0.0,0.0,2.9989,3.0173,3.0907,0.0,0.0,0.0,0.0,0.0,0.0,0.0,0.0,0.0,0.0,0.0,3.4407,3.3673,3.2053,3.2162,3.2155,3.1971,3.2596,3.4009,3.5991,3.5991,0.0,0.0,0.0,0.0,0.0,0.0,0.0,0.0,0.0,0.0,0.0,3.4818,3.4111,0.0,0.0,0.0,0.0,0.0,0.0,0.0,0.0,3.5917,3.5633,3.5864,0.0,3.4889,3.4627,3.4364,3.3788,0.0,0.0,0.0,0.0,0.0,0.0,3.0211,3.0178,3.0372,3.113,3.1032,3.0685,3.0317,2.9599,2.8986,2.8852,2.7446,2.6038,2.4991,2.3144,2.1703,2.0858,2.0124,1.95,1.8977,1.8976,1.8815,1.8578,1.8101,1.7988,1.8216,1.8578,1.921,2.01,1.9758,1.9592,1.9455,1.9096,1.8798,1.8664,1.8124,1.792,1.7823,1.6853,1.6485,1.6438,1.6085,1.5927,1.59,1.5773,1.569,1.5668,0.0,0.0,0.0,0.0,0.0,0.0,0.0,0.0,0.0,0.0,0.0,0.0,0.0,0.0,0.0,0.0,0.0,0.0,0.0,0.0,0.0,0.0,0.0,0.0,0.0,3.4023,3.3338,3.1953,3.1953,3.1953,3.1953,3.2412,3.3935,3.6321,3.7074,0.0,0.0,0.0,0.0,0.0,3.7399,0.0,0.0,0.0,0.0,0.0,3.4431,3.3352,0.0,3.199,3.1441,3.0994,0.0,0.0,0.0,0.0,3.4639,3.484,3.4966,3.4732,3.4399,3.4228,3.3957,3.3387,3.2038,0.0,0.0,0.0,0.0,0.0,3.072,3.0406,3.0456,3.1714,3.1714,3.1262,3.0538,2.9563,2.8862,2.8862,2.7809,2.6555,2.5088,2.3658,2.2173,2.0742,2.0379,1.9934,1.9287,1.9462,1.9352,1.8928,1.8661,1.8498,1.8489,1.8239,1.8599,1.9479,1.9044,1.893,1.9116,1.8868,1.8868,1.9075,1.8539,1.8269,1.825,1.7466,1.711,1.7082,1.6911,1.6816,1.6788,1.668,1.6637,1.6597,0.0,0.0,0.0,0.0,0.0,0.0,0.0,0.0,0.0,0.0,0.0,0.0,0.0,0.0,0.0,0.0,0.0,0.0,0.0,0.0,0.0,0.0,0.0,3.4018,3.3623,3.3623,3.322,3.243,3.243,3.2485,3.2614,3.2614,3.3935,3.6358,3.7845,0.0,0.0,0.0,3.8131,3.7326,3.7863,0.0,0.0,0.0,0.0,0.0,0.0,0.0,0.0,3.0749,2.9903,2.9092,2.8696,0.0,0.0,0.0,0.0,0.0,3.3697,3.3819,3.3902,3.3698,3.3268,3.2628,3.1372,0.0,0.0,0.0,0.0,2.9852,3.1099,3.0455,3.0319,3.2198,3.1961,3.1291,3.0807,2.955,2.8739,2.8739,2.8061,2.702,2.5435,2.4107,2.2711,2.1069,2.0822,2.0413,1.9836,2.0159,1.9968,1.917,1.9122,1.8956,1.8616,1.7782,1.7771,1.8589,1.8154,1.8133,1.8485,1.8485,1.8702,1.9075,1.8607,1.8405,1.8405,1.7852,1.7647,1.7647,1.7647,1.7647,1.7647,1.7579,1.751,1.751,0.0,0.0,0.0,0.0,0.0,0.0,0.0,0.0,0.0,0.0,0.0,0.0,0.0,0.0,0.0,0.0,0.0,0.0,0.0,0.0,0.0,0.0,3.4074,3.3759,3.2797,3.2797,3.2394,3.1568,3.1568,3.1935,3.2614,3.2614,3.3935,3.634,3.7257,3.8046,3.8707,3.8707,3.8603,3.8431,3.8198,0.0,0.0,0.0,0.0,0.0,0.0,0.0,0.0,2.9816,2.8765,2.7833,2.8972,0.0,0.0,0.0,0.0,0.0,3.2558,3.2899,3.3347,3.2951,3.2577,3.2073,3.1158,3.1499,0.0,0.0,3.005,3.0391,3.1082,3.1217,3.1456,3.2367,3.1961,3.1652,3.2089,3.1075,3.0251,3.0251,2.8802,2.7449,2.6594,2.4523,2.2952,2.2189,2.124,2.0413,1.9836,1.9858,1.983,1.9708,1.8748,1.8441,1.8748,1.8763,1.9023,1.9609,1.9085,1.8899,1.8961,1.8961,1.9003,1.9075,1.8998,1.9008,1.8998,1.8865,1.8865,1.8865,1.8865,1.8865,1.8798,1.8337,1.8134,1.8066,0.0,0.0,0.0,0.0,0.0,0.0,0.0,0.0,0.0,0.0,0.0,0.0,0.0,0.0,0.0,0.0,0.0,0.0,0.0,0.0,0.0,0.0,3.3276,3.311,3.2614,3.2173,3.177,3.1384,3.1384,3.1806,3.2632,3.3972,3.522,3.634,3.7588,3.8358,3.8707,3.8707,3.8707,3.8658,0.0,0.0,0.0,0.0,0.0,0.0,0.0,0.0,0.0,0.0,2.8557,2.7631,2.8296,0.0,0.0,0.0,0.0,0.0,3.1426,3.1768,3.2138,3.1742,3.1896,3.1653,3.0117,3.0635,3.1126,3.0158,3.0037,3.0351,3.1152,3.1394,3.1806,3.2882,3.2179,3.1627,3.1932,3.0872,3.006,3.006,2.9304,2.8138,2.6507,2.5102,2.348,2.1648,2.0661,2.0087,1.9811,1.9798,1.9798,1.9798,1.9239,1.8911,1.8794,1.86,1.8375,1.8288,1.7833,1.7874,1.835,1.835,1.8609,1.9075,1.9075,1.9075,1.9075,1.9075,1.9075,1.9075,1.9075,1.9075,1.9075,1.8798,1.8741,1.8664,0.0,0.0,0.0,0.0,0.0,0.0,0.0,0.0,0.0,0.0,0.0,0.0,0.0,0.0,0.0,0.0,0.0,0.0,0.0,0.0,3.2504,3.2871,3.2522,3.2228,3.2045,3.1623,3.1384,3.1384,3.1586,3.2082,3.2944,3.5018,3.6101,3.6358,3.779,3.8524,3.8707,3.8707,3.8707,3.8707,0.0,0.0,0.0,0.0,0.0,0.0,0.0,0.0,0.0,0.0,0.0,0.0,0.0,0.0,0.0,2.8256,2.916,3.011,2.9937,3.0583,3.1031,3.0106,0.0,3.1196,2.9615,3.015,3.0776,3.037,3.027,3.0463,3.1069,3.1202,3.1619,3.2809,3.2048,3.1293,3.1293,3.0335,2.9566,2.9421,2.9016,2.8026,2.6185,2.5133,2.3525,2.1087,2.0355,1.9949,1.9811,1.9798,1.9798,1.9798,1.9641,1.9313,1.8858,1.8224,1.7595,1.6977,1.6694,1.6953,1.7678,1.7833,1.8319,1.9075,1.9075,1.9075,1.9075,1.9075,1.9075,1.9075,1.9075,1.9075,1.9075,1.9075,1.9075,1.9075,0.0,0.0,0.0,0.0,0.0,0.0,0.0,0.0,0.0,0.0,0.0,0.0,0.0,0.0,0.0,0.0,0.0,0.0,0.0,0.0,3.2155,3.3642,3.2265,3.1127,3.0393,3.1035,3.1384,3.1384,3.2155,3.2926,3.3733,3.4669,3.5532,3.634,3.7184,3.7991,3.8707,3.8707,3.8707,3.8676,3.8285,0.0,0.0,0.0,0.0,0.0,0.0,0.0,0.0,0.0,0.0,0.0,0.0,0.0,2.7759,2.7759,2.8157,2.842,2.773,2.9332,3.0561,2.7793,2.877,3.0478,3.0697,3.0817,3.0905,3.0987,3.113,3.1044,3.0537,3.0558,3.0875,3.154,3.109,3.064,3.064,3.006,2.9406,2.8811,2.7281,2.617,2.603,2.396,2.2285,2.1603,2.1,2.0376,1.9823,1.9798,1.9798,1.9798,1.934,1.9047,1.8994,1.8272,1.7595,1.6987,1.6956,1.7193,1.7688,1.8143,1.8599,1.9075,1.9075,1.9075,1.9075,1.9075,1.9075,1.9075,1.9075,1.9075,1.9075,1.9075,1.9075,1.9075,0.0,0.0,0.0,0.0,0.0,0.0,0.0,0.0,0.0,0.0,0.0,0.0,0.0,0.0,0.0,0.0,0.0,0.0,0.0,0.0,3.0925,3.1531,3.098,3.0283,2.9475,3.0723,3.1641,3.2155,3.2467,3.3018,3.3825,3.4633,3.5477,3.6358,3.7661,3.8138,3.7936,3.7936,3.7936,3.7936,3.7796,3.7881,0.0,0.0,0.0,0.0,0.0,0.0,0.0,0.0,2.8258,2.784,0.0,2.7672,2.7434,2.7434,2.7895,2.8334,2.8058,2.9403,3.0463,2.8645,2.9412,0.0,0.0,3.0211,3.0498,3.045,3.0534,3.0593,3.057,3.0265,3.019,3.0829,3.0393,2.9987,2.9987,2.8771,2.7854,2.7611,2.6371,2.5205,2.4449,2.3217,2.2086,2.1117,2.0484,2.0037,1.9811,1.9798,1.9798,1.9798,1.9592,1.9344,1.8987,1.8665,1.8165,1.7536,1.7507,1.7709,1.8143,1.8299,1.863,1.9075,1.9075,1.9075,1.9075,1.9075,1.9075,1.9075,1.9075,1.9251,1.9536,1.9178,1.9251,1.9458,0.0,0.0,0.0,0.0,0.0,0.0,0.0,0.0,0.0,0.0,0.0,0.0,0.0,0.0,0.0,0.0,0.0,0.0,0.0,3.021,3.032,3.0577,3.0338,3.0063,2.9769,3.0595,3.1292,3.1843,3.21,3.2504,3.3073,3.4137,3.4945,3.5569,3.7221,3.7643,3.711,3.711,3.7179,3.7308,3.7166,3.7344,0.0,0.0,0.0,0.0,0.0,0.0,0.0,0.0,2.7964,0.0,0.0,0.0,2.7421,2.7421,2.7722,2.804,2.804,2.9161,3.004,2.8934,0.0,0.0,2.9782,3.0018,3.0461,3.0386,3.0134,2.99,2.971,2.9479,2.9334,2.9377,2.9189,2.8956,2.8753,2.7311,2.6299,2.6299,2.4984,2.3743,2.292,2.2126,2.13,2.0467,2.0024,1.9798,1.9798,1.9798,1.9798,1.9798,1.9974,1.9918,1.956,1.9352,1.9041,1.8629,1.829,1.8237,1.8371,1.8237,1.8506,1.9065,1.8909,1.893,1.9075,1.9075,1.9075,1.9075,1.9075,1.9328,1.9567,1.9189,1.9272,1.9499,0.0,0.0,0.0,0.0,0.0,0.0,0.0,0.0,0.0,0.0,0.0,0.0,0.0,0.0,0.0,0.0,0.0,0.0,0.0,3.0191,3.054,3.1329,3.0613,3.0558,3.1347,3.0595,3.021,3.021,3.0999,3.1384,3.1421,3.3036,3.3788,3.3862,3.5532,3.6285,3.6266,3.6266,3.651,3.6837,3.6433,3.6537,3.6685,0.0,0.0,0.0,0.0,0.0,0.0,0.0,2.8102,2.8102,0.0,0.0,0.0,2.7701,2.7496,2.7299,2.7299,2.8368,2.9248,2.8168,2.961,3.1083,3.0452,3.0598,3.0905,3.1035,3.017,2.9035,2.7879,2.8231,2.8231,2.6968,2.7287,2.7476,2.6866,2.5754,2.4962,2.4976,2.2958,2.1602,2.1602,2.0501,1.9811,1.9811,1.9811,1.9823,1.9823,1.9823,1.9823,1.9823,2.0376,2.0731,2.0731,2.0464,2.0316,2.0255,1.949,1.8837,1.8371,1.7936,1.8226,1.9044,1.8578,1.864,1.9065,1.9075,1.9075,1.9075,1.9075,1.9075,1.9075,1.9075,1.9075,1.9075,0.0,0.0,0.0,0.0,0.0,0.0,0.0,0.0,0.0,0.0,0.0,0.0,0.0,0.0,0.0,0.0,0.0,0.0,0.0,2.9365,2.9475,2.9714,2.9494,2.9475,2.9714,2.9494,2.9916,3.1035,3.0723,3.0852,3.1403,3.2467,3.2963,3.301,3.4465,3.475,3.4164,3.3997,3.4263,3.4906,3.5345,3.5474,3.5304,0.0,0.0,0.0,0.0,0.0,0.0,0.0,0.0,0.0,0.0,0.0,0.0,2.7421,2.7376,2.7299,2.7299,2.8185,2.8952,2.8099,2.924,3.0427,2.9683,2.9666,2.9626,2.9169,2.8102,2.7191,2.7083,2.6474,2.585,2.5473,2.5589,2.5654,2.5507,2.4072,2.3098,2.3165,2.1498,2.0309,2.0309,2.0368,2.0401,2.0401,2.0765,2.0991,2.0991,2.0991,2.0991,2.0991,2.1154,2.1242,2.1242,2.0641,2.0316,2.0255,1.949,1.9003,1.8868,1.8733,1.864,1.8578,1.8433,1.8454,1.8609,1.894,1.9075,1.9075,1.9075,1.9272,1.9588,1.9189,1.9282,1.9578,0.0,0.0,0.0,0.0,0.0,0.0,0.0,0.0,0.0,0.0,0.0,0.0,0.0,0.0,0.0,0.0,0.0,0.0,0.0,0.0,2.8994,2.8994,2.8994,2.8994,2.8994,2.8994,2.9494,3.0448,2.9971,2.9971,3.0467,3.1274,3.1659,3.1689,3.2821,3.2974,3.2379,3.2216,3.2442,3.292,3.3417,3.36,3.3523,0.0,0.0,0.0,0.0,0.0,0.0,0.0,0.0,0.0,0.0,0.0,0.0,2.7137,2.7087,2.7072,2.6957,2.786,2.8716,2.8132,2.8932,2.9658,2.8788,2.9083,2.9351,2.8701,2.7597,2.6718,2.6722,2.5681,2.4699,2.45,2.4689,2.4782,2.4554,2.3441,2.2692,2.2692,2.1371,2.0476,2.0476,2.079,2.0991,2.0991,2.1305,2.1493,2.1493,2.1493,2.1493,2.1493,2.1707,2.182,2.182,2.1032,2.0614,2.0614,1.9576,1.9075,1.9065,1.8878,1.8744,1.864,1.8464,1.8278,1.8143,1.8423,1.864,1.8796,1.8796,1.9075,1.9526,1.9168,1.9251,1.9448,0.0,0.0,0.0,0.0,0.0,0.0,0.0,0.0,0.0,0.0,0.0,0.0,0.0,0.0,0.0,0.0,0.0,0.0,0.0,0.0,2.8994,2.8994,2.8994,2.8994,2.8994,2.8994,2.8994,2.8994,2.8994,2.8994,2.9012,2.9824,3.0173,3.0118,3.0858,3.1052,3.084,3.0785,3.0862,3.1056,3.1126,3.1342,3.1573,3.0902,0.0,0.0,0.0,0.0,0.0,0.0,0.0,0.0,0.0,2.7218,2.7169,2.6891,2.6808,2.6758,2.6589,2.754,2.8498,2.819,2.8622,2.8944,2.8013,2.8773,2.9576,2.9037,2.803,2.7133,2.6522,2.5457,2.45,2.3978,2.4326,2.4445,2.3904,2.3375,2.303,2.3005,2.2031,2.1418,2.1418,2.1506,2.1556,2.1556,2.1606,2.1644,2.1644,2.1644,2.1606,2.1556,2.2046,2.2226,2.2176,2.1422,2.0991,2.0928,1.9759,1.9131,1.9054,1.864,1.863,1.892,1.8506,1.8071,1.7616,1.7657,1.7968,1.8319,1.8319,1.8599,1.9013,1.9013,1.9034,1.9075,0.0,0.0,0.0,0.0,0.0,0.0,0.0,0.0,0.0,0.0,0.0,0.0,0.0,0.0,0.0,0.0,0.0,0.0,0.0,0.0,2.8994,2.8994,2.8994,2.8994,2.8994,2.8994,2.8994,2.8994,2.8994,2.8994,2.9012,2.9824,2.9861,2.9269,2.9618,2.9717,2.9622,2.9167,2.9306,2.9902,3.056,3.0693,3.054,3.0353,2.9678,0.0,0.0,0.0,0.0,0.0,0.0,0.0,2.659,2.6742,2.6891,2.6825,2.6808,2.691,2.7436,2.7888,2.819,2.8112,2.8085,2.8127,2.8491,2.8352,2.8033,2.7474,2.6969,2.6274,2.5228,2.4099,2.3424,2.3833,2.3586,2.3298,2.3362,2.246,2.1643,2.1253,2.1012,2.084,2.084,2.1631,2.2133,2.2133,2.2535,2.2786,2.2786,2.2786,2.2585,2.2146,2.2246,2.1853,2.0994,2.0637,2.0217,1.9791,1.9857,1.9584,1.9131,1.8971,1.8589,1.8019,1.7916,1.7605,1.7162,1.7523,1.7781,1.7874,1.7874,1.8143,1.8526,1.8526,1.8754,1.9075,0.0,0.0,0.0,0.0,0.0,0.0,0.0,0.0,0.0,0.0,0.0,0.0,0.0,0.0,0.0,0.0,0.0,0.0,0.0,0.0,0.0,2.8558,2.8558,2.8558,2.8558,2.8743,2.8791,2.8791,2.8929,2.8994,2.8994,2.9439,2.9402,2.9012,2.8985,2.8882,2.8717,2.8237,2.8219,2.8472,2.8885,2.887,2.8575,2.8558,2.8144,2.7506,2.7138,0.0,0.0,0.0,0.0,0.0,0.0,0.0,2.6573,2.6436,2.6418,2.6551,2.7158,2.7624,2.7931,2.7931,2.8087,2.8142,2.785,2.7753,2.7526,2.6926,2.6329,2.5703,2.5058,2.3792,2.3004,2.3383,2.3166,2.2941,2.276,2.2237,2.1694,2.1125,2.1054,2.1054,2.1054,2.182,2.2309,2.2309,2.2824,2.2965,2.2761,2.2736,2.2485,2.1933,2.192,2.1656,2.1063,2.0346,1.9829,1.9515,1.9412,1.9219,1.886,1.876,1.8371,1.7657,1.7441,1.714,1.6746,1.6984,1.7212,1.7337,1.7337,1.7802,1.8382,1.8382,1.8671,1.9075,0.0,0.0,0.0,0.0,0.0,0.0,0.0,0.0,0.0,0.0,0.0,0.0,0.0,0.0,0.0,0.0,0.0,0.0,0.0,0.0,0.0,0.0,2.8102,2.8102,2.8102,2.836,2.8507,2.8507,2.8743,2.8839,2.8839,2.8952,2.897,2.8905,2.8626,2.8334,2.802,2.7742,2.7496,2.7282,2.725,2.7108,2.6894,2.6725,2.6554,2.6426,2.6293,2.6243,2.6243,2.6243,0.0,0.0,0.0,0.0,2.6279,2.6046,2.601,2.6102,2.6645,2.7226,2.7737,2.7867,2.8255,2.8304,2.7138,2.7219,2.7381,2.6814,2.5936,2.5268,2.5161,2.3925,2.2931,2.3033,2.3069,2.2909,2.2401,2.2295,2.2021,2.1411,2.1335,2.1343,2.1343,2.1845,2.2171,2.2171,2.2585,2.2648,2.2196,2.2171,2.192,2.1368,2.1343,2.1249,2.1094,2.0015,1.9482,1.9482,1.897,1.8775,1.8786,1.8436,1.8072,1.7533,1.7152,1.6788,1.6384,1.6384,1.6601,1.6873,1.6956,1.7543,1.8278,1.835,1.8671,1.9075,0.0,0.0,0.0,0.0,0.0,0.0,0.0,0.0,0.0,0.0,0.0,0.0,0.0,0.0,0.0,0.0,0.0,0.0,2.7155,0.0,0.0,2.8102,2.8102,2.8102,2.8102,2.8156,2.8156,2.8156,2.821,2.821,2.8237,2.8767,2.8881,2.8626,2.8308,2.7992,2.776,2.7465,2.7313,2.725,2.6973,2.708,2.7305,2.6421,2.6348,2.6574,2.594,2.5712,2.5712,2.5712,2.5712,0.0,0.0,0.0,2.6046,2.601,2.601,2.6138,2.6841,2.7369,2.785,2.8482,2.8255,2.7802,2.7624,2.7187,2.6814,2.6717,2.5936,2.5145,2.4533,2.3583,2.3076,2.3673,2.3276,2.2916,2.2965,2.2144,2.1318,2.0794,2.0781,2.0832,2.0832,2.128,2.1594,2.1594,2.1669,2.1681,2.1606,2.1594,2.1343,2.0844,2.0832,2.0325,1.931,1.9027,1.8897,1.8908,1.9238,1.9383,1.942,1.8401,1.7637,1.7069,1.7007,1.6788,1.6384,1.6384,1.6415,1.6508,1.6832,1.7307,1.7864,1.8247,1.8671,1.9075,0.0,0.0,0.0,0.0,0.0,0.0,0.0,0.0,0.0,0.0,0.0,0.0,0.0,0.0,0.0,2.4185,2.5367,2.6243,2.6657,2.7126,2.7299,2.7158,2.7299,2.7361,2.7361,2.7707,2.7869,2.7869,2.802,2.8102,2.8102,2.8386,2.8438,2.8308,2.801,2.7725,2.7474,2.7166,2.694,2.6775,2.6624,2.6445,2.6225,2.5766,2.55,2.5296,2.4997,2.4871,2.4926,2.5146,2.5068,2.491,2.5146,0.0,0.0,0.0,2.5567,2.5933,2.6667,2.7266,2.7786,2.8109,2.7948,2.7705,2.7705,2.7187,2.6701,2.6701,2.5636,2.4641,2.4364,2.3538,2.2989,2.331,2.2879,2.2516,2.2597,2.1897,2.1175,2.066,2.0642,2.054,2.0227,2.069,2.1029,2.1029,2.1317,2.1355,2.1041,2.1029,2.0765,2.02,2.0188,1.9957,1.9448,1.9096,1.8889,1.8889,1.9124,1.923,1.9274,1.8762,1.7978,1.6987,1.6987,1.6873,1.6757,1.6757,1.6757,1.6767,1.6904,1.7265,1.7781,1.8216,1.8671,1.9075,0.0,0.0,0.0,0.0,0.0,0.0,0.0,0.0,0.0,0.0,0.0,0.0,0.0,0.0,0.0,0.0,2.4379,2.5462,2.6038,2.6385,2.6454,2.6262,2.6539,2.6691,2.6691,2.7147,2.7413,2.7474,2.7678,2.7823,2.7897,2.7897,2.7897,2.7897,2.7683,2.7444,2.7147,2.6841,2.6573,2.6383,2.6191,2.5783,2.5265,2.5128,2.4744,2.4302,2.4302,2.4302,2.4343,2.4639,2.4533,2.4343,2.4639,2.4759,0.0,0.0,0.0,2.5593,2.6317,2.6961,2.7494,2.7672,2.785,2.7931,2.7753,2.7462,2.7122,2.6766,2.5638,2.4653,2.4482,2.361,2.2888,2.2888,2.2615,2.237,2.237,2.1921,2.1431,2.1042,2.0759,2.0459,2.0055,2.0292,2.0451,2.0451,2.0828,2.0878,2.0464,2.0451,2.025,1.9811,1.9798,1.9798,1.9798,1.9396,1.9146,1.8987,1.9146,1.9146,1.8987,1.8987,1.8366,1.727,1.7445,1.744,1.7273,1.7273,1.7381,1.7499,1.7322,1.7486,1.7957,1.847,1.8931,1.933,0.0,0.0,0.0,0.0,0.0,0.0,0.0,0.0,0.0,0.0,0.0,0.0,2.312,2.3742,2.37,2.2637,2.385,2.4785,2.5147,2.5603,2.5855,2.5819,2.621,0.0,2.6418,2.6453,2.6573,2.6841,2.6873,2.7038,2.7345,2.7345,2.7345,2.7345,2.7338,2.7147,2.6808,2.6556,2.6418,2.6332,2.5619,2.5341,2.5227,2.4583,2.4343,2.4302,2.4302,2.4302,2.4302,2.4302,2.4302,2.4302,2.4302,2.4343,2.4343,0.0,0.0,0.0,2.5853,2.6391,2.6895,2.7543,2.8223,2.8547,2.7867,2.8207,2.8304,2.6976,2.6286,2.5693,2.4989,2.3809,2.2888,2.2888,2.2888,2.2843,2.2843,2.2463,2.2137,2.2123,2.1202,2.061,2.056,2.0131,1.9849,1.9849,1.9874,1.9874,1.9849,1.9849,1.9836,1.9798,1.9798,1.9798,1.9798,1.9747,1.95,1.8987,1.95,1.95,1.8987,1.8987,1.8667,1.8052,1.8588,1.8509,1.806,1.806,1.8337,1.8737,1.8096,1.811,1.8599,1.9087,1.9564,2.0042,0.0,0.0,0.0,0.0,0.0,0.0,0.0,0.0,0.0,0.0,0.0,0.0,0.0,2.2131,2.2109,2.1701,2.2404,2.3077,2.3551,2.4193,2.4673,2.4823,2.5144,2.5297,2.5297,2.5783,2.6052,2.6142,2.6436,2.659,2.6708,2.6708,2.6708,2.6742,2.6906,2.6808,2.6521,2.6243,2.5868,2.5427,2.516,2.4712,2.4184,2.3937,2.3465,2.2934,2.2934,2.2725,2.2515,2.3113,2.2935,2.2606,2.3537,2.3623,2.3478,2.412,2.4385,2.462,2.5138,2.5417,2.5806,2.6783,2.7017,2.7118,2.7574,2.7338,2.7096,2.7308,2.5918,2.4697,2.4871,2.4048,2.3348,2.3348,2.3112,2.2888,2.2888,2.2752,2.2555,2.2231,2.1841,2.1348,2.066,2.0409,2.0156,1.985,1.9798,1.9798,1.9798,1.9798,1.9798,1.9798,1.9798,1.9798,1.9798,1.9798,1.9695,1.95,1.9695,1.9708,1.95,1.95,1.9239,1.8744,1.9637,1.9479,1.8578,1.8578,1.868,1.8794,1.8566,1.8814,1.931,1.9756,2.0261,2.0741,0.0,0.0,0.0,0.0,0.0,0.0,0.0,0.0,0.0,0.0,0.0,0.0,0.0,0.0,2.1207,2.0688,2.0624,2.0827,2.1377,2.2058,2.2629,2.2937,2.3284,2.3525,2.3739,0.0,0.0,0.0,0.0,0.0,2.5964,2.5964,2.5964,2.5964,2.6071,2.6158,2.626,2.599,2.5476,2.4918,2.4954,2.4315,2.3334,2.3392,2.279,2.1949,2.2158,2.1973,2.1751,2.2409,2.2172,2.1821,2.2601,2.2725,2.2725,2.3406,2.3824,2.412,2.4379,2.4583,2.4909,2.5854,2.6238,2.6497,2.7024,2.6908,2.6741,2.6866,2.555,2.4351,2.4359,2.3937,2.352,2.3253,2.2979,2.2819,2.2904,2.2888,2.2797,2.2463,2.2324,2.1827,2.0944,2.0709,2.0359,1.985,1.9798,1.9798,1.9798,1.9798,1.9798,1.9798,1.9798,1.9798,1.9798,1.9798,1.9798,1.9798,1.9798,1.9798,1.9798,1.9798,1.9604,1.9316,2.0055,1.9927,1.9156,1.9156,1.9256,1.94,1.9013,1.9307,1.996,2.0238,2.0796,2.1439,0.0,0.0,0.0,0.0,0.0,0.0,0.0,0.0,0.0,0.0,0.0,0.0,0.0,0.0,0.0,1.9572,1.851,1.8145,1.8742,1.9244,1.9698,2.0211,2.062,2.1131,2.1681,0.0,0.0,0.0,0.0,0.0,0.0,0.0,2.5026,2.5026,2.476,2.5121,2.5901,2.5675,2.5301,2.4886,2.5049,2.4221,2.2857,2.2989,2.238,2.1505,2.1974,2.2177,2.2126,2.2099,2.2099,2.1992,2.151,2.1718,2.2184,2.2184,2.2844,2.3551,0.0,0.0,0.0,2.4799,2.593,2.6809,2.6145,2.7004,2.7517,2.5694,2.5315,2.4883,2.3557,2.3466,2.3325,2.2629,2.2497,2.2623,2.2846,2.2888,2.2888,2.2888,2.2509,2.2016,2.1465,2.0944,2.0409,1.985,1.9798,1.9811,1.9798,1.9798,1.9798,1.9798,1.9798,1.9798,1.9798,1.9798,1.9798,1.9798,1.9798,1.9798,1.9798,1.9798,1.9798,1.9798,1.9798,1.9797,1.9812,1.9812,2.014,2.0589,1.9458,1.9636,2.0517,2.0517,2.1223,2.2113,0.0,0.0,0.0,0.0,0.0,0.0,0.0,0.0,0.0,0.0,0.0,0.0,0.0,1.8557,1.7322,1.6176,1.571,1.5552,1.5775,1.6299,1.7068,1.7996,1.8171,1.8558,1.9168,0.0,0.0,0.0,0.0,0.0,0.0,0.0,0.0,2.3372,2.3688,2.3971,2.4205,2.4517,2.441,2.3937,2.3613,2.3235,2.2927,2.2559,2.2288,2.1983,2.1673,2.1302,2.0933,2.0486,2.0079,1.9764,2.0105,2.0841,2.1623,2.1623,2.1799,2.2161,2.2846,0.0,0.0,0.0,0.0,0.0,2.528,2.5492,2.5665,2.598,2.5226,2.4414,2.4071,2.3213,2.2531,2.2506,2.2642,2.2819,2.2873,2.2888,2.2888,2.2888,2.2797,2.2356,2.1465,2.1636,2.1188,1.9901,2.0156,2.0207,1.9798,1.9798,1.9798,1.9798,1.9798,1.9798,1.9798,1.9798,1.9798,1.9798,1.9798,1.9798,1.9798,1.9798,1.9798,1.9798,1.9798,1.9783,1.9828,1.9828,1.988,2.0024,1.9718,2.0221,2.12,2.12,2.1882,2.2811,0.0,0.0,0.0,0.0,0.0,0.0,0.0,0.0,0.0,0.0,0.0,0.0,0.0,0.0,1.3858,1.2461,1.2028,1.1953,1.2274,1.2647,1.3477,1.4953,1.501,1.5649,1.6976,0.0,0.0,0.0,0.0,0.0,0.0,0.0,0.0,0.0,2.1746,2.2006,2.2232,2.2309,2.2714,2.326,2.3213,2.2707,2.1936,2.2102,2.177,2.1131,2.094,2.0544,2.0076,1.9959,1.9425,1.8826,1.8964,1.9825,2.0693,2.0693,2.1002,2.1513,2.2067,2.2193,2.2469,2.3435,0.0,0.0,2.3831,2.4075,2.4296,2.4239,2.3733,2.3347,2.3351,2.2828,2.2405,2.2315,2.2644,2.2888,2.2888,2.2888,2.2888,2.2888,2.2888,2.2601,2.1827,2.203,2.1732,2.0534,2.0746,2.0696,2.0156,1.9901,1.9798,1.9798,1.9798,1.9798,1.9798,1.9798,1.9798,1.9798,1.9798,1.9798,1.9798,1.9798,1.9798,1.9798,1.9798,1.9798,1.9798,1.9798,1.9798,1.9798,1.9798,2.0489,2.1493,2.1493,2.2184,2.3078,0.0,0.0,0.0,0.0,0.0,0.0,0.0,0.0,0.0,0.0,0.0,0.0,0.0,0.0,0.0,0.0,0.797,0.7838,0.857,0.8576,0.94,1.1323,1.1421,1.2444,0.0,0.0,0.0,0.0,0.0,0.0,0.0,0.0,0.0,0.0,0.0,1.975,2.0192,1.975,2.0664,2.2502,2.3111,2.2193,2.059,2.1592,2.1043,1.973,2.0114,1.9977,1.9599,1.9934,1.9437,1.8623,1.8224,1.8786,1.9592,1.953,2.0231,2.1064,2.1113,2.1161,2.1452,2.2317,2.3069,0.0,2.2352,2.2931,2.3331,2.1877,2.1967,2.2285,2.212,2.2511,2.27,2.2193,2.2526,2.2843,2.2888,2.2946,2.3004,2.3004,2.3004,2.2807,2.233,2.2273,2.203,2.1417,2.1417,2.1175,2.0709,2.0207,1.9901,2.0003,1.9901,1.9901,1.9901,1.9901,1.985,1.9798,1.9798,1.9798,1.9798,1.9798,1.9798,1.9798,1.9798,1.9798,1.9798,1.9798,1.9798,1.9798,1.9798,2.0451,2.1405,2.1468,2.2146,2.299,1.6585,0.0,0.0,0.0,0.0,0.0,0.0,0.0,0.0,0.0,0.0,0.0,1.093,0.8337,0.657,0.0,0.5175,0.4795,0.5332,0.5397,0.6242,0.8196,0.838,0.9156,1.0783,0.0,0.0,0.0,0.0,0.0,0.0,0.0,0.0,0.0,0.0,1.8567,1.8684,1.8919,1.9491,2.0229,2.0387,2.0685,2.1082,2.0772,2.0734,2.0723,2.0317,1.9824,1.9243,1.839,1.8061,1.7995,1.7944,1.8408,1.8888,1.8522,1.8555,1.8862,1.9258,1.971,2.0168,2.0801,2.141,0.0,2.2757,2.2742,2.2777,2.3263,2.3117,2.2875,2.2725,2.2815,2.2859,2.2728,2.2529,2.2463,2.2843,2.3383,2.3702,2.3702,2.3702,2.3515,2.2963,2.2808,2.2402,2.1465,2.1417,2.1369,2.1224,2.0746,2.0646,2.1077,2.0646,2.0459,2.0459,2.0459,2.0207,1.9798,1.9798,1.9798,1.9798,1.9798,1.9798,1.9798,1.9798,1.9798,1.9798,1.9798,1.9798,1.9798,1.9798,2.0225,2.0932,2.133,2.1907,2.2535,1.5705,0.0,0.0,0.0,0.0,0.0,0.0,0.0,0.0,0.0,0.0,0.8982,0.7472,0.4968,0.3292,0.3039,0.1788,0.0,0.2458,0.2764,0.3727,0.5396,0.5823,0.6921,0.8896,0.9438,0.0,0.0,0.0,0.0,0.0,0.0,0.0,0.0,0.0,1.6423,1.7003,1.6914,1.7401,1.8226,1.9216,1.9727,1.9844,1.9843,1.9544,1.9222,1.89,1.8576,1.8208,1.7171,1.6939,1.7016,1.6981,1.7459,1.7926,1.7685,1.8014,1.8469,1.8464,1.8703,1.9008,1.9569,2.013,0.0,0.0,2.1242,2.1619,2.2124,2.2027,2.2089,2.2824,2.2723,2.2615,2.2843,2.2509,2.2484,2.3276,2.3227,2.312,2.3366,2.3412,2.345,2.3517,2.3447,2.3357,2.3166,2.2888,2.2588,2.2284,2.1731,2.1435,2.1382,2.1126,2.0993,2.0993,2.0993,2.0746,2.0207,2.0207,2.0055,1.9798,1.9798,1.9798,1.9798,1.9798,1.9798,1.9798,1.9798,1.9798,1.9798,1.9798,2.0162,2.0781,2.128,2.1832,2.2397,1.4813,0.0,0.0,0.0,0.0,0.0,0.0,0.0,0.0,1.1839,0.8959,0.6209,0.4181,0.1975,0.0465,0.0201,-0.1145,-0.1351,0.0068,0.0555,0.1475,0.3006,0.3587,0.4907,0.7277,0.7318,0.0,0.0,0.0,0.0,0.0,0.0,0.0,0.0,1.352,1.4145,1.5147,1.4706,1.5263,1.6626,1.8138,1.8491,1.8059,1.8627,1.8178,1.7269,1.7276,1.7235,1.7123,1.6318,1.6122,1.6158,1.6071,1.6501,1.7007,1.6853,1.7498,1.8226,1.7845,1.7875,1.8027,1.8489,1.8996,1.9342,0.0,0.0,0.0,2.0696,2.066,2.1053,2.2415,2.2365,2.217,2.2555,2.2269,2.2426,2.3569,2.287,2.253,2.3378,2.3129,2.3273,2.4181,2.4254,2.4428,2.4863,2.4604,2.4127,2.3455,2.2942,2.2405,2.1911,2.1787,2.1684,2.1575,2.1575,2.1286,2.0759,2.066,2.0359,1.9952,1.985,1.9798,1.9798,1.9798,1.9798,1.9798,1.9798,1.9798,1.9798,1.9798,2.0162,2.0781,2.128,2.1832,2.2397,1.3869,1.3878,0.0,0.0,0.0,0.0,0.0,0.0,0.0,0.7777,0.4852,0.2765,0.2117,-0.0394,-0.1743,-0.1142,-0.2333,-0.2573,-0.1254,-0.1144,-0.0362,0.1446,0.1705,0.2555,0.3991,0.5578,0.6478,0.0,0.0,0.0,0.0,0.0,0.0,1.1819,1.2189,1.2601,1.298,1.3091,1.4141,1.571,1.5707,1.6114,1.6719,1.709,1.7092,1.694,1.6752,1.6673,1.6609,1.6175,1.6021,1.5969,1.5754,1.5985,1.6215,1.596,1.6177,1.6486,1.6602,1.6955,1.7313,1.7368,1.7852,1.8531,1.943,0.0,1.9592,2.1028,0.0,2.0822,2.1464,0.0,0.0,2.1561,2.1532,2.1894,2.3035,2.2647,2.3082,2.5236,2.4055,2.3743,2.5394,2.5575,2.5386,2.4921,2.5321,2.5286,2.4664,2.4163,2.3815,2.3601,2.313,2.2622,2.2123,2.2123,2.1827,2.1321,2.0845,2.056,2.051,2.0003,1.9798,1.9798,1.9798,1.9798,1.9798,1.9798,1.9798,1.9798,1.9798,2.0162,2.0781,2.128,2.1832,2.2397,1.2905,1.3277,0.0,0.0,0.0,0.0,0.0,0.0,0.0,0.5125,0.277,0.0798,-0.0526,-0.2058,-0.3013,-0.3015,-0.3924,-0.418,-0.3344,-0.2506,-0.1756,-0.1038,-0.0152,0.0926,0.2388,0.3103,0.3973,0.0,0.6605,0.0,0.0,0.0,0.0,0.9989,1.062,1.117,1.1769,1.2312,1.3018,1.3676,1.3526,1.3762,1.4281,1.6026,1.6419,1.5882,1.5627,1.5326,1.5064,1.467,1.4539,1.4584,1.4684,1.4923,1.5148,1.5168,1.5384,1.5644,1.5896,1.6308,1.6722,1.6747,1.7375,1.8047,1.8213,1.8394,1.8768,1.9728,0.0,0.0,0.0,0.0,0.0,0.0,2.1597,2.1785,2.3008,2.1811,2.1968,2.4926,2.4241,2.4155,2.564,2.6474,2.6489,2.5487,2.6344,2.63,2.4858,2.4969,2.4897,2.4486,2.3889,2.3464,2.3206,2.2787,2.237,2.1874,2.1636,2.1396,2.1042,2.0497,2.0258,2.0258,1.9952,1.9798,1.9798,1.9798,1.9798,1.9798,1.9798,2.0162,2.0819,2.1644,2.2121,2.2397,1.1856,1.2398,1.2539,1.215,0.0,0.0,0.0,0.0,0.4412,0.2892,0.113,-0.0669,-0.2391,-0.3286,-0.3989,-0.4333,-0.4869,-0.4951,-0.4412,-0.3214,-0.2468,-0.2437,-0.1398,-0.0235,0.1174,0.1486,0.2189,0.0,0.0,0.0,0.0,0.0,0.0,0.0,0.9122,0.9719,1.0369,1.1142,1.1627,1.1978,1.2116,1.2287,1.2748,1.5041,1.5506,1.4891,1.4746,1.4427,1.4024,1.3528,1.3365,1.3408,1.3699,1.397,1.4261,1.4656,1.4946,1.5273,1.5576,1.589,1.6087,1.6014,1.6523,1.7064,1.6998,1.7357,1.7855,1.8563,1.8345,0.0,0.0,0.0,2.0179,2.0966,0.0,2.1404,2.2552,2.1416,2.1511,2.4346,2.4521,2.4807,2.5698,2.7128,2.7374,2.5894,2.7157,2.7142,2.5197,2.5756,2.5828,2.5203,2.4709,2.4287,2.3952,2.3441,2.2925,2.237,2.2278,2.1983,2.1623,2.1042,2.0795,2.0795,2.0258,2.0003,2.0003,1.985,1.9798,1.9823,1.9974,2.0388,2.0991,2.1794,2.2284,2.2585,1.0703,1.084,1.115,1.1443,1.0431,0.0,0.5909,0.4383,0.2896,0.0966,-0.0462,-0.1728,-0.2974,-0.3981,-0.4591,-0.4591,-0.4667,-0.4433,-0.3768,-0.2932,-0.227,-0.1643,-0.1567,-0.0941,0.0314,0.1175,0.1878,0.251,0.0,0.0,0.0,0.0,0.0,0.0,0.799,0.8098,0.8422,0.9004,0.995,1.1187,1.167,1.241,1.3182,1.3909,1.4194,1.4207,1.4538,1.4427,1.3982,1.3245,1.2997,1.2997,1.3014,1.3245,1.3701,1.4524,1.5106,1.5387,1.5476,1.5548,1.5402,1.5056,1.4961,1.5245,1.6291,1.6564,1.6845,1.7886,1.8104,1.8104,1.817,1.817,1.817,1.8224,1.9147,0.0,0.0,2.1939,2.268,2.3974,2.512,2.5813,2.5785,2.752,2.7853,2.5923,2.7563,2.7795,2.5865,2.6557,2.6667,2.5994,2.595,2.5336,2.4107,2.3923,2.3543,2.2843,2.2417,2.2184,2.2184,2.1623,2.1369,2.1321,2.0795,2.056,2.051,2.0003,1.9798,1.9861,2.0413,2.0978,2.1468,2.1506,2.2184,2.3053,0.8479,0.8542,0.8822,0.9418,0.8731,0.7475,0.5659,0.3167,0.1273,0.0678,-0.0877,-0.241,-0.3772,-0.4231,-0.4748,-0.5695,-0.5791,-0.559,-0.5061,-0.4301,-0.3557,-0.3047,-0.2507,-0.1568,-0.0314,-0.0,0.0627,0.1728,0.251,0.0,0.0,0.0,0.0,0.0,0.6415,0.7052,0.7836,0.8514,0.9388,1.0335,1.0894,1.1179,1.1381,1.2906,1.3261,1.2972,1.2663,1.2603,1.2448,1.1798,1.1826,1.2226,1.2226,1.2475,1.29,1.3473,1.3691,1.3934,1.4472,1.4864,1.5087,1.4937,1.51,1.5413,1.54,1.5449,1.5565,1.5911,1.6265,1.6606,1.6968,1.7633,1.8317,1.8988,1.9425,1.9934,0.0,2.1405,2.2222,2.3355,2.4943,2.6018,2.638,2.7057,2.6968,2.5865,2.6808,2.6939,2.5836,2.6483,2.6797,2.6667,2.6228,2.5789,2.535,2.4564,2.3975,2.3572,2.3045,2.2752,2.2661,2.217,2.1921,2.1921,2.1382,2.0944,2.061,2.0795,2.0434,1.9913,2.0783,2.1304,2.1531,2.1895,2.2498,2.3188,0.74,0.7309,0.7426,0.7997,0.7306,0.6116,0.4505,0.2283,0.0692,0.0279,-0.1034,-0.2378,-0.3756,-0.4188,-0.4751,-0.5698,-0.5748,-0.5544,-0.4989,-0.4196,-0.3601,-0.3359,-0.2585,-0.1648,-0.0628,-0.0396,0.0238,0.1335,0.1821,0.2215,0.0,0.0,0.0,0.0,0.5755,0.6453,0.7099,0.794,0.8546,0.9135,0.9946,1.0272,1.0402,1.1516,1.1918,1.1757,1.1453,1.133,1.1161,1.0775,1.1027,1.1539,1.161,1.2121,1.2615,1.2756,1.3084,1.3459,1.3855,1.4391,1.4818,1.4669,1.4939,1.5203,1.4902,1.487,1.493,1.5109,1.5536,1.6008,1.6308,1.7227,1.8143,1.8618,1.9022,1.9431,0.0,2.0961,2.1843,2.2776,2.4456,2.563,2.5758,2.6551,2.6547,2.5279,2.637,2.6721,2.5937,2.6535,2.6937,2.7159,2.6681,2.6329,2.6144,2.5099,2.4405,2.4031,2.3343,2.2992,2.2947,2.2615,2.2463,2.2417,2.1921,2.1479,2.1202,2.1334,2.0881,2.0156,2.1043,2.1465,2.1556,2.2108,2.2799,2.3527,0.7386,0.7052,0.6909,0.7154,0.6146,0.453,0.2458,0.1718,0.0864,-0.0352,-0.0981,-0.1798,-0.3092,-0.3973,-0.4522,-0.4596,-0.4561,-0.432,-0.3695,-0.2948,-0.2447,-0.2429,-0.1882,-0.1255,-0.055,0.008,0.0723,0.1335,0.1286,0.1686,0.0,0.0,0.0,0.0,0.5867,0.6261,0.6338,0.718,0.7553,0.7681,0.9038,0.9822,1.0278,0.9952,1.0133,1.0468,1.0849,1.0624,1.0201,1.0322,1.0572,1.0987,1.1265,1.2093,1.2889,1.2534,1.3215,1.3956,1.3554,1.3999,1.4487,1.4153,1.435,1.4668,1.4755,1.48,1.4925,1.5349,1.5892,1.6196,1.6196,1.6971,1.7503,1.7111,1.7935,1.8879,1.9465,2.0665,2.1656,2.2213,2.3796,2.4629,2.4149,2.6145,2.6512,2.4287,2.6261,2.7099,2.6067,2.6638,2.7078,2.7357,2.721,2.6885,2.6332,2.5501,2.4787,2.4277,2.3389,2.2978,2.3127,2.2992,2.2888,2.2888,2.2417,2.2217,2.217,2.167,2.1126,2.0725,2.1263,2.157,2.1687,2.2159,2.3075,2.4117,0.6227,0.5674,0.5057,0.4558,0.3717,0.2695,0.1742,0.1023,0.0142,-0.1009,-0.1255,-0.1761,-0.3086,-0.3437,-0.382,-0.4389,-0.4423,-0.4173,-0.3616,-0.3325,-0.2827,-0.188,-0.1646,-0.1097,0.0079,0.0237,0.0632,0.1335,0.1265,0.1422,0.1649,0.0,0.0,0.0,0.5002,0.5709,0.6338,0.718,0.8081,0.9028,0.9817,1.0059,0.9946,0.9682,0.9412,0.9197,0.9503,0.9822,1.002,0.9608,0.9703,1.0016,1.0527,1.1247,1.1946,1.1989,1.2626,1.3177,1.2783,1.2826,1.3091,1.3545,1.3733,1.4001,1.4611,1.4724,1.4789,1.4909,1.5043,1.5414,1.609,1.6429,1.6961,1.7884,1.8626,1.92,1.9437,2.0577,2.1427,2.162,2.2795,2.3872,2.4642,2.4835,2.4874,2.4689,2.5293,2.5764,2.5973,2.6608,2.6858,2.6639,2.6135,2.5779,2.5664,2.501,2.4563,2.4233,2.3644,2.3334,2.3231,2.3127,2.3112,2.3187,2.2843,2.254,2.2282,2.2449,2.2002,2.1331,2.2711,2.3353,2.3412,2.3039,2.364,2.4632,0.5686,0.4771,0.3908,0.3253,0.2386,0.1687,0.1389,0.0752,-0.0,-0.0889,-0.1228,-0.1758,-0.2674,-0.3107,-0.3342,-0.3426,-0.3743,-0.3689,-0.309,-0.3022,-0.2597,-0.1644,-0.1333,-0.0706,0.0314,0.0555,0.1111,0.1806,0.1823,0.206,0.243,0.0,0.0,0.0,0.5162,0.5867,0.6338,0.718,0.8103,0.9158,0.9624,0.9892,0.0,0.9628,0.9292,0.9022,0.8932,0.901,0.9079,0.9018,0.9213,0.9582,1.0264,1.1114,1.1768,1.1691,1.2386,1.3057,1.2338,1.2629,1.3194,1.3442,1.3879,1.4324,1.4624,1.4804,1.4915,1.4915,1.5129,1.5551,1.6299,1.6815,1.752,1.8534,1.8828,1.8945,1.8934,2.0098,2.09,2.0949,2.2445,2.3662,2.4064,2.3822,2.3892,2.45,2.5376,2.5873,2.5973,2.715,2.7225,2.5972,2.6169,2.6005,2.5506,2.5101,2.4728,2.4371,2.3644,2.3334,2.3363,2.3246,2.3246,2.3275,2.3142,2.2918,2.2678,2.2888,2.2509,2.189,2.3105,2.3797,2.4063,2.3955,2.432,2.482,0.5686,0.4501,0.3364,0.2759,0.1898,0.1285,0.1232,0.0697,0.0078,-0.0529,-0.1127,-0.1695,-0.2175,-0.2843,-0.2931,-0.2248,-0.2868,-0.3011,-0.233,-0.2265,-0.1984,-0.1403,-0.0781,-0.0157,0.0393,0.1122,0.1847,0.2522,0.2641,0.3119,0.0,0.0,0.0,0.5004,0.5944,0.6338,0.649,0.733,0.8093,0.8893,0.9174,0.9695,1.0272,0.9682,0.946,0.9364,0.8861,0.8387,0.8099,0.8546,0.8924,0.9314,1.0214,1.1107,1.186,1.1567,1.2307,1.3083,1.2112,1.2834,1.375,1.3554,1.4256,1.4949,1.4786,1.4992,1.5232,1.5283,1.5657,1.6178,1.6778,1.7628,1.8449,1.8916,1.864,1.8361,1.8299,1.9511,2.0373,2.0377,2.2285,0.0,2.3115,2.3129,2.3418,2.3919,2.573,2.6463,2.5785,2.7594,2.7651,2.5485,2.6362,2.6455,2.5615,2.5263,2.4936,2.4582,2.3614,2.329,2.3509,2.3363,2.3319,2.3363,2.3319,2.3246,2.3127,2.3127,2.2898,2.2616,2.3137,2.3753,2.4354,2.4886,2.5018,2.5,0.6374,0.5245,0.3926,0.3103,0.2063,0.1299,0.1288,0.0702,-0.0076,-0.1104,-0.1369,-0.1615,-0.2109,-0.2314,-0.2338,-0.2241,-0.2372,-0.2265,-0.1688,-0.1721,-0.1213,-0.0076,0.0076,0.0461,0.1099,0.1892,0.2385,0.2661,0.3252,0.3728,0.0,0.0,0.5004,0.5004,0.5944,0.6644,0.733,0.8169,0.8932,0.9728,0.997,1.0188,1.0272,0.9682,0.934,0.9162,0.8789,0.8621,0.8534,0.8148,0.8233,0.8639,0.9475,1.0302,1.1001,1.1551,1.1922,1.2104,1.2269,1.2269,1.2385,1.3297,1.3656,1.4042,1.4923,1.5172,1.5309,1.5634,1.585,1.626,1.7135,1.7912,1.8431,1.8495,1.8433,1.8257,1.7895,1.9168,2.0206,2.035,2.1187,2.2115,2.304,2.3097,2.314,2.325,2.5067,2.5661,2.4568,2.6381,2.6813,2.5456,2.4656,2.4717,2.56,2.4462,2.4134,2.4567,2.3851,2.3523,2.3566,2.3494,2.3494,2.3566,2.3348,2.3275,2.3246,2.3171,2.371,2.4578,2.4248,2.4826,2.5859,2.5467,2.5594,2.5897,0.5978,0.5122,0.4138,0.3623,0.2332,0.148,0.1844,0.1018,-0.0,-0.0835,-0.1247,-0.1638,-0.2181,-0.2248,-0.2248,-0.2174,-0.2038,-0.1786,-0.1487,-0.1279,-0.0685,0.0231,0.0305,0.0842,0.1883,0.2276,0.3013,0.397,0.4325,0.4805,0.0,0.5601,0.5774,0.5709,0.6103,0.6721,0.7561,0.8322,0.909,0.9696,1.0131,1.0248,1.0018,0.9628,0.94,0.9232,0.8825,0.8681,0.8597,0.8075,0.8189,0.8747,0.9835,1.0489,1.0997,1.1843,1.2269,1.2389,1.2166,1.2398,1.2792,1.3143,1.3528,1.4016,1.4769,1.5086,1.5326,1.572,1.5861,1.6189,1.7207,1.7947,1.8405,1.8744,1.8733,1.8661,1.8454,1.9372,2.0138,2.0214,2.0883,2.1644,2.2506,2.2623,2.2819,2.3098,2.501,2.5384,2.3709,2.6451,2.6909,2.4384,2.4476,2.4522,2.4567,2.4238,2.4089,2.4088,2.3731,2.3566,2.3595,2.3566,2.3566,2.3595,2.348,2.3451,2.3437,2.3613,2.4097,2.4714,2.5101,2.5691,2.6286,2.6328,2.668,2.7088,0.5641,0.5102,0.4509,0.4145,0.2846,0.2063,0.2463,0.1482,0.0386,-0.0309,-0.0897,-0.1453,-0.1868,-0.1937,-0.192,-0.181,-0.1524,-0.1264,-0.1109,-0.0743,-0.0225,0.046,0.0681,0.1291,0.2491,0.2815,0.3724,0.5186,0.5347,0.5845,0.6522,0.6522,0.6444,0.6383,0.6504,0.6872,0.7557,0.8551,0.9205,0.9599,1.0102,1.0137,0.9922,0.9604,0.9484,0.9412,0.8873,0.8681,0.8597,0.8075,0.8246,0.8884,1.0111,1.0621,1.0956,1.1965,1.2492,1.2637,1.2201,1.2723,1.3348,1.3143,1.3536,1.4076,1.447,1.4838,1.5206,1.56,1.5948,1.6421,1.7373,1.7988,1.8455,1.8854,1.892,1.892,1.892,1.952,1.9933,1.9965,2.0625,2.1258,2.1753,2.1989,2.2292,2.2778,2.465,2.4914,2.3009,2.6351,2.6913,2.3785,2.4796,2.5086,2.4403,2.4358,2.4149,2.3819,2.3598,2.3538,2.3595,2.3595,2.3595,2.3595,2.3595,2.3566,2.3554,2.4103,2.4412,2.4648,2.5815,2.6485,2.6796,2.7299,2.7846,2.8224,0.5958,0.5922,0.5494,0.4407,0.3884,0.3334,0.2669,0.2219,0.1539,0.044,-0.0292,-0.0716,-0.0681,-0.0677,-0.0677,-0.0675,-0.0694,-0.0419,0.0068,0.0139,0.0353,0.0992,0.1807,0.2293,0.2502,0.4024,0.4907,0.5186,0.599,0.6461,0.6678,0.6678,0.66,0.6527,0.7087,0.7407,0.7633,0.916,0.983,0.9921,1.0178,1.0315,1.0236,0.967,0.9484,0.9412,0.8873,0.8681,0.8597,0.8075,0.8112,0.849,0.9404,0.9877,1.0314,1.1494,1.1865,1.2081,1.2706,1.2946,1.31,1.3391,1.3511,1.3665,1.4059,1.4453,1.4829,1.5197,1.63,1.7442,1.8134,1.8339,1.8379,1.8444,1.8444,1.8444,1.8444,1.8871,1.9238,1.9432,1.9918,2.0324,2.0696,2.1126,2.1479,2.165,2.3327,2.3817,2.2456,2.4994,2.6026,2.5069,2.5263,2.5912,2.7015,2.479,2.3984,2.4477,2.3894,2.3595,2.3595,2.3595,2.3595,2.3595,2.3595,2.3566,2.3569,2.4208,2.4817,2.5381,2.6206,2.7285,2.836,2.8435,2.8862,2.9246,0.6256,0.5835,0.5474,0.5292,0.441,0.3798,0.3661,0.2947,0.2185,0.1681,0.0496,-0.0347,-0.0552,-0.0339,-0.0269,-0.047,-0.0207,0.007,0.0276,0.0974,0.148,0.1719,0.2494,0.3256,0.3843,0.4566,0.522,0.599,0.6311,0.6505,0.6563,0.7046,0.7513,0.7811,0.8124,0.847,0.9008,0.9614,1.006,1.0408,1.0337,1.0167,0.9988,0.9622,0.9484,0.943,0.9046,0.9045,0.9202,0.8811,0.8856,0.9179,0.9771,1.0325,1.0902,1.1606,1.1995,1.2235,1.2543,1.2954,1.3331,1.3476,1.3511,1.3613,1.4007,1.4221,1.4504,1.5095,1.6127,1.7235,1.8134,1.8322,1.8466,1.8796,1.8796,1.8796,1.8796,1.8951,1.9031,1.8807,1.9048,1.9377,1.9936,2.0544,2.1189,2.1913,2.3638,2.4131,2.2825,2.5135,2.6242,2.5646,2.4994,2.5103,2.6066,2.4372,2.3672,2.394,2.3701,2.3595,2.3595,2.3595,2.3595,2.3595,2.3595,2.379,2.4194,2.4865,2.5521,2.621,2.6916,2.7515,2.8038,2.8442,2.9,2.954,0.6193,0.5687,0.541,0.5642,0.4816,0.4234,0.4396,0.3583,0.2836,0.266,0.1475,0.041,-0.0138,0.0136,0.0202,-0.0,0.0479,0.083,0.083,0.1865,0.2507,0.2485,0.3233,0.3977,0.4713,0.501,0.5518,0.6342,0.6665,0.6867,0.6867,0.7656,0.8295,0.8784,0.8956,0.9387,0.9916,1.0143,1.049,1.0803,1.0466,1.0218,0.9952,0.961,0.9484,0.9512,0.9408,0.9547,0.9733,0.9576,0.9735,1.0038,1.0227,1.0637,1.1116,1.1541,1.1935,1.2252,1.2363,1.286,1.3382,1.3485,1.3511,1.3579,1.3862,1.4132,1.4562,1.5463,1.631,1.7154,1.8104,1.8405,1.8674,1.9075,1.9075,1.9075,1.9075,1.9075,1.8847,1.8257,1.8385,1.8637,1.8859,1.9761,2.068,2.151,2.3344,2.3942,2.2691,2.4724,2.5728,2.5149,2.4505,2.4471,2.5159,2.4072,2.3509,2.3509,2.3566,2.3595,2.3595,2.3595,2.3595,2.3595,2.3595,2.3984,2.4627,2.533,2.6004,2.6662,2.737,2.7865,2.8269,2.8712,2.943,3.0097,0.5586,0.5371,0.5375,0.5288,0.5093,0.4859,0.4462,0.4146,0.3778,0.3169,0.2522,0.1727,0.0811,0.0942,0.1076,0.1076,0.1679,0.208,0.208,0.275,0.3218,0.322,0.3993,0.4471,0.4474,0.551,0.5956,0.6034,0.7099,0.7656,0.7736,0.8523,0.8918,0.8904,0.9561,0.9916,0.9916,1.0738,1.1111,1.1063,1.0538,1.0327,1.0266,0.9682,0.9484,0.957,0.9956,1.008,1.0106,1.0183,1.0516,1.0891,1.0506,1.0403,1.0506,1.1124,1.155,1.1873,1.2295,1.268,1.3074,1.3425,1.3511,1.3511,1.3511,1.4171,1.5187,1.6534,1.7222,1.7744,1.819,1.8741,1.9065,1.9075,1.9075,1.9075,1.9075,1.9075,1.8733,1.7843,1.8112,1.8071,1.7298,1.8667,1.9703,1.9841,2.186,2.2661,2.1556,2.3218,2.3984,2.3461,2.401,2.456,2.5119,2.4048,2.3509,2.3509,2.3566,2.3595,2.3595,2.3595,2.3595,2.3595,2.3595,2.3984,2.4627,2.533,2.6004,2.6662,2.737,2.8382,2.9564,2.9564,3.0387,3.1394,0.6394,0.6134,0.5962,0.5182,0.5015,0.4937,0.4857,0.475,0.4624,0.4397,0.3743,0.3128,0.284,0.292,0.2885,0.2547,0.2748,0.2882,0.2882,0.3551,0.3951,0.3951,0.473,0.5138,0.5237,0.6021,0.6535,0.6838,0.7688,0.8495,0.9177,0.9489,0.9866,1.0388,1.0622,1.0738,1.0738,1.0962,1.1111,1.1063,1.0544,1.0327,1.0272,0.9682,0.9484,0.96,1.019,1.0513,1.0752,1.0956,1.1271,1.15,1.1132,1.1015,1.1065,1.1226,1.1541,1.1865,1.2295,1.268,1.3065,1.3425,1.3511,1.3571,1.3881,1.4669,1.5595,1.6714,1.7268,1.7875,1.8726,1.8998,1.9075,1.9075,1.9075,1.8961,1.864,1.8599,1.8268,1.7307,1.7667,1.7746,1.7255,1.825,1.9174,1.9622,2.1313,2.2342,2.2589,2.3948,2.4799,2.5009,2.4082,2.3996,2.4976,2.3469,2.2889,2.3363,2.3494,2.3581,2.3595,2.3595,2.3566,2.3538,2.3566,2.3955,2.4566,2.5206,2.5893,2.6662,2.7235,2.8077,2.8966,2.9292,2.9952,3.0683,0.7324,0.708,0.6777,0.5864,0.5712,0.5634,0.5249,0.5249,0.5223,0.5228,0.476,0.4408,0.4406,0.4461,0.409,0.3284,0.3485,0.3618,0.3618,0.4287,0.4818,0.508,0.5547,0.5933,0.624,0.6776,0.7159,0.7543,0.842,0.9388,1.0368,1.0368,1.0588,1.1111,1.1111,1.1111,1.1111,1.1111,1.1111,1.1063,1.0544,1.0327,1.0272,1.0003,0.9862,0.9983,1.0912,1.1406,1.1601,1.1912,1.2014,1.2012,1.1764,1.1499,1.1326,1.1326,1.1447,1.1738,1.2252,1.2569,1.2877,1.3382,1.3511,1.3692,1.43,1.4851,1.5674,1.7009,1.7292,1.7742,1.8864,1.893,1.8868,1.9044,1.892,1.8713,1.8413,1.8237,1.7926,1.7307,1.7492,1.7613,1.7419,1.8175,1.8758,1.8924,2.0414,2.1569,2.2098,2.3401,2.42,2.4455,2.3434,2.3204,2.389,2.3098,2.2755,2.2979,2.3319,2.3494,2.3566,2.3523,2.3436,2.3422,2.3523,2.406,2.4862,2.5248,2.5994,2.6907,2.7289,2.7951,2.8836,2.9183,2.9855,3.0628,0.8309,0.8156,0.7931,0.7092,0.7015,0.671,0.5867,0.5715,0.5715,0.5715,0.5551,0.5522,0.5522,0.5473,0.4888,0.3549,0.4018,0.4353,0.4353,0.509,0.5752,0.64,0.6465,0.6793,0.7386,0.7636,0.7912,0.8221,0.9374,1.0351,1.1111,1.1111,1.1111,1.1111,1.1111,1.1111,1.1111,1.1168,1.1156,1.1113,1.0584,1.0435,1.0448,1.0503,1.0548,1.073,1.202,1.2512,1.2578,1.2823,1.2697,1.2381,1.2329,1.1833,1.1276,1.131,1.1344,1.1439,1.2184,1.2389,1.2569,1.3322,1.3571,1.3803,1.4737,1.4932,1.5467,1.7277,1.7286,1.7481,1.8785,1.8692,1.8568,1.9003,1.8682,1.8371,1.834,1.7957,1.7626,1.7626,1.7657,1.7668,1.7668,1.819,1.836,1.7947,1.9287,2.0292,2.0601,2.1954,2.2638,2.2339,2.2339,2.2291,2.2307,2.2793,2.287,2.2512,2.3172,2.3509,2.3466,2.3363,2.3275,2.3275,2.3422,2.4178,2.529,2.5381,2.6169,2.7342,2.7431,2.8127,2.9112,2.9282,3.0039,3.1087,0.9221,0.9145,0.8912,0.8008,0.7855,0.7778,0.7548,0.7015,0.6556,0.6556,0.5919,0.5522,0.5522,0.5874,0.6005,0.5668,0.5348,0.516,0.516,0.5815,0.6203,0.6396,0.6859,0.7256,0.7386,0.8022,0.8781,0.9765,1.0294,1.0698,1.1111,1.1111,1.1111,1.1111,1.1111,1.1111,1.1099,1.1398,1.1592,1.1546,1.1512,1.1539,1.1497,1.1361,1.1274,1.1392,1.2197,1.2512,1.2477,1.2512,1.2466,1.2286,1.1721,1.1464,1.1327,1.1627,1.1499,1.1439,1.2184,1.2389,1.2569,1.3322,1.4052,1.4632,1.4896,1.5538,1.6195,1.6595,1.716,1.7771,1.8423,1.8744,1.894,1.9054,1.8682,1.8257,1.7936,1.743,1.7152,1.7152,1.7461,1.7668,1.7668,1.7853,1.7998,1.8281,1.8628,1.9484,2.0931,2.1672,2.2301,2.2902,2.2526,2.2304,2.232,2.197,2.2015,2.236,2.3038,2.3363,2.3363,2.3319,2.3231,2.3157,2.3275,2.3747,2.4435,2.5014,2.5741,2.6598,2.752,2.839,2.9156,2.953,3.0177,3.0895,1.0201,1.0201,0.9976,0.9074,0.8922,0.877,0.8466,0.8012,0.7672,0.7585,0.7037,0.6627,0.6546,0.6701,0.6859,0.6859,0.6535,0.6342,0.6342,0.6666,0.699,0.7312,0.7707,0.8037,0.8366,0.8753,0.9342,1.0152,1.0532,1.0791,1.0936,1.1428,1.1632,1.1626,1.1859,1.1946,1.1926,1.1982,1.1992,1.195,1.1888,1.1891,1.192,1.1962,1.195,1.2012,1.2696,1.2948,1.2951,1.2915,1.2792,1.262,1.2372,1.2055,1.1824,1.2029,1.1704,1.1439,1.2184,1.2555,1.2961,1.3915,1.4529,1.4953,1.5261,1.5733,1.6257,1.6853,1.7222,1.7678,1.8537,1.8723,1.8754,1.8754,1.8382,1.7926,1.742,1.7142,1.7059,1.7265,1.775,1.8112,1.833,1.834,1.835,1.8382,1.8578,1.9222,2.0266,2.0747,2.1655,2.3078,2.2849,2.2539,2.2321,2.1784,2.1666,2.1988,2.2558,2.2844,2.2844,2.3053,2.3068,2.3037,2.3157,2.3745,2.4593,2.4978,2.5683,2.6667,2.7636,2.8374,2.8963,2.9578,3.0192,3.0702,1.1111,1.1111,1.0887,1.0218,1.0067,0.9841,0.9155,0.8927,0.8774,0.8548,0.8274,0.7995,0.7709,0.7636,0.7582,0.7582,0.7647,0.7647,0.7386,0.7517,0.7842,0.849,0.8619,0.8888,0.9484,0.9612,0.9799,1.0068,1.059,1.0901,1.0945,1.1952,1.2384,1.2444,1.2806,1.2968,1.2902,1.2567,1.2467,1.2394,1.2203,1.2134,1.2168,1.2507,1.2634,1.2757,1.3321,1.3511,1.3502,1.3442,1.3228,1.3023,1.3262,1.296,1.25,1.25,1.2139,1.1904,1.239,1.291,1.3663,1.4713,1.501,1.5118,1.5593,1.5798,1.6195,1.7256,1.7378,1.7574,1.8671,1.8599,1.8382,1.8382,1.8019,1.7564,1.7234,1.7131,1.7255,1.7771,1.8154,1.8557,1.9023,1.9013,1.8837,1.8506,1.8916,1.9274,1.9621,2.0123,2.1239,2.3065,2.3005,2.2742,2.2322,2.1742,2.1475,2.1601,2.2044,2.2282,2.2282,2.2838,2.2989,2.2902,2.3139,2.39,2.5043,2.5043,2.5769,2.7024,2.7779,2.8298,2.8824,2.9595,3.0207,3.0568,1.126,1.1111,1.1037,1.0962,1.0887,1.0887,1.0732,1.0137,0.96,0.9358,0.8633,0.7995,0.7709,0.8098,0.8361,0.8361,0.8823,0.8694,0.7451,0.7972,0.8361,0.849,0.9017,0.9414,0.9484,1.0047,1.0502,1.0718,1.14,1.184,1.2032,1.2564,1.2785,1.2792,1.3222,1.3243,1.2902,1.318,1.3138,1.2842,1.3124,1.3222,1.3283,1.3346,1.3321,1.3381,1.3442,1.3511,1.3459,1.316,1.3023,1.2928,1.2655,1.2753,1.2977,1.2977,1.3461,1.3857,1.3205,1.382,1.479,1.54,1.5556,1.5573,1.5655,1.6269,1.6752,1.6632,1.7429,1.8123,1.7968,1.8185,1.8382,1.8382,1.8019,1.7833,1.8133,1.7854,1.7792,1.8226,1.834,1.8557,1.9023,1.8713,1.862,1.894,1.9233,1.9764,2.0796,2.1444,2.2175,2.3078,2.2555,2.2298,2.2322,2.1248,2.0987,2.1419,2.1966,2.2217,2.2245,2.3299,2.3455,2.2917,2.3514,2.4152,2.4834,2.5043,2.5769,2.6963,2.8236,2.8706,2.8811,3.0046,3.054,3.0568,1.2432,1.207,1.1781,1.1781,1.1409,1.1111,1.1111,1.0812,1.0421,1.0164,0.9746,0.9325,0.895,0.9086,0.9231,0.9028,0.935,0.9408,0.9064,0.9075,0.9017,0.9017,0.9658,1.0231,1.0598,1.0905,1.1101,1.1234,1.1675,1.1963,1.2115,1.2841,1.3203,1.3271,1.3656,1.3696,1.3521,1.3485,1.3359,1.3256,1.3458,1.3511,1.3511,1.3511,1.3511,1.3511,1.3511,1.3511,1.3485,1.3322,1.3639,1.3974,1.3535,1.3901,1.4389,1.3933,1.427,1.4783,1.4591,1.511,1.5713,1.6022,1.6087,1.6093,1.6059,1.657,1.6997,1.7098,1.7781,1.8319,1.8123,1.8247,1.8299,1.8071,1.7864,1.7802,1.7999,1.8061,1.8154,1.835,1.8599,1.8837,1.9054,1.8878,1.8837,1.9054,1.9511,1.9995,2.0537,2.1175,2.1865,2.2555,2.2333,2.2253,2.2322,2.1462,2.1064,2.1013,2.1555,2.192,2.2263,2.3102,2.3636,2.4007,2.4297,2.4776,2.5342,2.5456,2.6025,2.6881,2.7864,2.8432,2.8797,2.9726,3.0277,3.0568,1.355,1.3025,1.2592,1.2592,1.207,1.1626,1.1409,1.1409,1.1236,1.0755,1.0863,1.0827,1.0343,1.0428,1.0473,1.0263,1.0244,1.0406,1.0839,1.0399,1.0046,0.9983,1.0478,1.0968,1.1516,1.164,1.1703,1.1703,1.2089,1.2334,1.2417,1.3257,1.3695,1.3768,1.4092,1.4187,1.4076,1.3776,1.3596,1.3511,1.3511,1.3511,1.3511,1.3511,1.3511,1.3519,1.3726,1.3761,1.3709,1.3917,1.4443,1.4992,1.4487,1.5004,1.5635,1.5042,1.5332,1.588,1.5929,1.6247,1.6608,1.6526,1.6612,1.6694,1.6694,1.7036,1.745,1.7812,1.8143,1.835,1.8247,1.8143,1.7999,1.7709,1.7668,1.7802,1.8009,1.8237,1.8382,1.8382,1.8692,1.8909,1.8909,1.9013,1.9075,1.9075,1.9715,2.0161,2.0291,2.0996,2.1628,2.2298,2.229,2.2372,2.2498,2.1832,2.1343,2.1108,2.1429,2.1877,2.2329,2.315,2.3915,2.4667,2.4974,2.5357,2.5778,2.5778,2.6184,2.6852,2.7476,2.8115,2.8753,2.9392,3.0031,3.0568,1.374,1.3462,1.339,1.339,1.3382,1.3098,1.2298,1.2224,1.1832,1.0827,1.1365,1.1673,1.141,1.2062,1.2467,1.2445,1.2445,1.2306,1.1999,1.1912,1.171,1.1344,1.1392,1.1454,1.1516,1.2135,1.2451,1.2451,1.3094,1.3549,1.3967,1.3992,1.4269,1.4609,1.4649,1.4435,1.4093,1.4067,1.3845,1.3511,1.3511,1.3511,1.3511,1.3511,1.3511,1.3614,1.4514,1.4547,1.4303,1.5153,1.5487,1.544,1.5025,1.5475,1.6236,1.6177,1.7112,1.7851,1.6597,1.69,1.7513,1.7049,1.7255,1.7575,1.7575,1.7968,1.8288,1.833,1.8361,1.8257,1.7854,1.7368,1.7203,1.7606,1.7668,1.8019,1.8858,1.863,1.8382,1.8382,1.8413,1.8433,1.8433,1.8816,1.9075,1.9075,1.9715,2.0355,2.0996,2.1678,2.2298,2.3017,2.2539,2.256,2.3015,2.202,2.1732,2.2184,2.2227,2.2242,2.2363,2.4008,2.4488,2.4047,2.5229,2.5749,2.5778,2.5778,2.6184,2.6852,2.7476,2.8115,2.8753,2.9392,3.0031,3.0568,1.5023,1.4545,1.4178,1.4178,1.3818,1.339,1.3098,1.3025,1.291,1.2501,1.2704,1.2806,1.2486,1.2735,1.2868,1.2736,1.2714,1.2706,1.269,1.2724,1.2569,1.2151,1.2135,1.232,1.2757,1.3009,1.313,1.313,1.3381,1.3588,1.3733,1.3733,1.381,1.3956,1.3956,1.387,1.3733,1.3733,1.3648,1.3511,1.3821,1.3941,1.3941,1.4231,1.435,1.4465,1.5111,1.5,1.4758,1.5728,1.6033,1.5974,1.5809,1.6238,1.6788,1.7073,1.778,1.8309,1.7769,1.7873,1.803,1.7523,1.7544,1.7668,1.7668,1.8071,1.8299,1.804,1.8423,1.8495,1.743,1.7337,1.7368,1.7265,1.7245,1.7461,1.8154,1.8092,1.8071,1.835,1.8382,1.8495,1.8785,1.8971,1.9075,1.9075,2.0107,2.0805,2.106,2.2125,2.2811,2.3078,2.2924,2.2865,2.3078,2.2385,2.2108,2.2309,2.2325,2.2493,2.2871,2.3906,2.469,2.5177,2.6078,2.6402,2.6402,2.6402,2.6547,2.6808,2.7041,2.7766,2.871,2.8956,2.9682,3.0568,1.5822,1.5355,1.5015,1.5121,1.4617,1.4152,1.4041,1.3965,1.3745,1.3535,1.3673,1.3807,1.358,1.3776,1.3894,1.3668,1.3645,1.3652,1.3583,1.3402,1.3086,1.2834,1.2818,1.3009,1.3502,1.3511,1.3511,1.3511,1.3511,1.3571,1.3691,1.3571,1.3571,1.3691,1.3692,1.37,1.3752,1.3872,1.3932,1.3992,1.43,1.4419,1.4419,1.4775,1.4893,1.5018,1.575,1.5744,1.5513,1.6592,1.6951,1.692,1.6638,1.6839,1.7255,1.7636,1.8143,1.8599,1.8599,1.8599,1.8495,1.805,1.805,1.8154,1.8154,1.8382,1.8506,1.8216,1.8526,1.8568,1.7636,1.7603,1.7785,1.7764,1.7807,1.8055,1.8676,1.8633,1.8655,1.8965,1.8997,1.9126,1.9458,1.9619,1.9715,1.9715,2.0549,2.1187,2.1376,2.2506,2.3078,2.3078,2.3078,2.3078,2.3078,2.2761,2.2573,2.2573,2.2573,2.2794,2.316,2.3798,2.4529,2.5384,2.6165,2.65,2.65,2.6727,2.6895,2.7084,2.7084,2.7853,2.8971,2.8971,2.9784,3.0872,1.5874,1.5797,1.5917,1.6358,1.6045,1.5703,1.5241,1.4839,1.4322,1.36,1.4178,1.4601,1.4601,1.5346,1.5805,1.5805,1.5805,1.5489,1.4735,1.3947,1.3511,1.3511,1.3511,1.3511,1.3511,1.3511,1.3511,1.3511,1.3511,1.3708,1.4084,1.3691,1.3716,1.4139,1.4187,1.4189,1.4249,1.4715,1.4893,1.4893,1.4893,1.4893,1.4893,1.4893,1.4893,1.5115,1.6491,1.6725,1.6496,1.7945,1.8371,1.8206,1.7265,1.7296,1.7668,1.7678,1.8371,1.9075,1.9075,1.9075,1.8961,1.8495,1.8733,1.9075,1.9075,1.9075,1.9075,1.9131,1.8702,1.8382,1.8371,1.8105,1.825,1.9211,1.9508,1.9964,2.0974,2.0676,2.0415,2.0427,2.0427,2.0427,2.0427,2.0825,2.1123,2.1123,2.1123,2.1376,2.2039,2.275,2.3078,2.3078,2.3078,2.3078,2.3078,2.3078,2.3078,2.3078,2.3078,2.3078,2.3138,2.378,2.4131,2.4189,2.5384,2.5907,2.5948,2.6568,2.7171,2.7683,2.7683,2.845,2.9566,2.9566,3.0422,3.1511,1.6917,1.6621,1.6377,1.6484,1.6148,1.5769,1.5656,1.5501,1.5355,1.5141,1.5284,1.5426,1.5426,1.5655,1.5805,1.5805,1.5805,1.5591,1.5086,1.4341,1.3922,1.3922,1.3656,1.3511,1.3511,1.3511,1.3511,1.3511,1.3821,1.4063,1.4178,1.4354,1.4543,1.4653,1.4653,1.4715,1.4715,1.4834,1.4893,1.4951,1.5313,1.5439,1.5498,1.5846,1.5961,1.6032,1.6727,1.6716,1.654,1.7554,1.7502,1.6984,1.7026,1.7296,1.7792,1.8092,1.8609,1.9075,1.9075,1.9452,1.9683,1.902,1.8971,1.9075,1.9075,1.9075,1.8982,1.8651,1.8733,1.8856,1.8623,1.8783,1.9111,1.961,1.9723,1.9853,2.0165,2.0072,2.0095,2.0381,2.0427,2.0504,2.0859,2.1043,2.1123,2.1123,2.1553,2.2113,2.275,2.3005,2.3078,2.3078,2.3078,2.3265,2.374,2.3339,2.3078,2.3078,2.3078,2.3078,2.3138,2.378,2.4131,2.4203,2.5797,2.6553,2.6595,2.7691,2.8231,2.839,2.839,2.8598,2.8887,2.8887,2.9458,3.0211,1.7373,1.7166,1.7005,1.7162,1.672,1.6474,1.6617,1.6378,1.614,1.614,1.5938,1.5805,1.5805,1.5805,1.5805,1.5805,1.587,1.5869,1.5781,1.5109,1.4782,1.4935,1.4346,1.3992,1.3761,1.3932,1.4043,1.4043,1.4359,1.4478,1.4478,1.4775,1.4893,1.4893,1.5128,1.5196,1.5254,1.543,1.5488,1.5546,1.5846,1.5972,1.6029,1.6316,1.6384,1.6436,1.6891,1.687,1.6757,1.7481,1.7243,1.6684,1.6894,1.7172,1.7512,1.807,1.8659,1.9242,1.9501,2.0018,2.042,1.9977,1.9911,1.9911,1.9911,1.9911,1.9825,1.9533,1.9706,1.9857,1.9694,1.9907,2.0247,2.0651,2.0772,2.0888,2.1092,2.1128,2.1176,2.1427,2.1463,2.1594,2.1842,2.2079,2.2357,2.2559,2.2759,2.3022,2.3416,2.3477,2.3477,2.3477,2.369,2.3979,2.4318,2.3979,2.3803,2.3803,2.3803,2.3803,2.3803,2.4221,2.4403,2.4477,2.58,2.6362,2.6448,2.7421,2.8036,2.8262,2.8262,2.839,2.8553,2.8553,2.9004,2.9586,1.7579,1.751,1.7565,1.7934,1.7726,1.7562,1.792,1.7306,1.6727,1.6727,1.6298,1.5938,1.5938,1.5938,1.5938,1.5938,1.6023,1.6301,1.6655,1.6076,1.586,1.623,1.5453,1.4831,1.4423,1.4734,1.4893,1.4893,1.4951,1.4951,1.4951,1.501,1.501,1.5069,1.5546,1.573,1.5798,1.6202,1.6384,1.6384,1.6384,1.6384,1.6384,1.6384,1.6384,1.6436,1.6839,1.6925,1.6987,1.741,1.7276,1.6935,1.7026,1.7095,1.7225,1.7926,1.8736,1.9636,2.0177,2.0779,2.1187,2.1187,2.125,2.125,2.1123,2.1123,2.1123,2.1123,2.1123,2.1135,2.1187,2.1289,2.1548,2.2091,2.227,2.256,2.3002,2.3078,2.3078,2.3078,2.3175,2.3153,2.3153,2.374,2.428,2.4782,2.4356,2.4067,2.4067,2.4067,2.4067,2.4067,2.4556,2.4845,2.4895,2.4895,2.487,2.482,2.482,2.482,2.482,2.482,2.482,2.482,2.5536,2.5788,2.585,2.6511,2.7093,2.7669,2.7669,2.7981,2.8427,2.8427,2.8793,2.936,1.8731,1.8395,1.8163,1.8252,1.8112,1.8014,1.81,1.7892,1.7765,1.7765,1.7362,1.7038,1.7038,1.7038,1.7038,1.7038,1.7092,1.7142,1.7235,1.6817,1.6655,1.674,1.6263,1.5928,1.5867,1.5241,1.4893,1.4893,1.5313,1.5556,1.5556,1.5904,1.6077,1.6077,1.6202,1.6259,1.6259,1.6374,1.6384,1.6384,1.6384,1.6384,1.6384,1.6384,1.6384,1.6394,1.6487,1.6529,1.6539,1.6643,1.6601,1.6696,1.7488,1.7701,1.7969,1.9385,1.995,2.0211,2.0797,2.1409,2.1854,2.1854,2.2249,2.2384,2.1313,2.1123,2.1123,2.1123,2.1123,2.125,2.1803,2.1894,2.2165,2.2798,2.2905,2.3,2.3053,2.3078,2.3078,2.3078,2.354,2.3803,2.3803,2.4318,2.4695,2.4808,2.4707,2.4644,2.4644,2.4644,2.4644,2.4644,2.4757,2.5021,2.5423,2.5423,2.5222,2.482,2.482,2.482,2.482,2.482,2.482,2.4845,2.6013,2.6502,2.6542,2.7669,2.8193,2.8315,2.8315,2.8074,2.7736,2.7736,2.7815,2.8133,1.9075,1.8865,1.8735,1.8957,1.8963,1.8963,1.9171,1.8811,1.8472,1.8472,1.7837,1.7373,1.7373,1.7373,1.7373,1.7373,1.7647,1.7862,1.7862,1.7721,1.7605,1.7605,1.7232,1.684,1.6628,1.6148,1.5812,1.5604,1.5904,1.6029,1.6029,1.6269,1.6384,1.6384,1.6384,1.6384,1.6384,1.6384,1.6384,1.6384,1.6384,1.6384,1.6384,1.6384,1.6384,1.6384,1.6384,1.6534,1.6797,1.6797,1.6965,1.7278,1.7846,1.798,1.825,1.9657,2.0229,2.0653,2.1427,2.2128,2.2555,2.2555,2.2811,2.2944,2.2187,2.2063,2.2063,2.2063,2.2063,2.2125,2.2494,2.2555,2.2689,2.3065,2.3364,2.3552,2.3552,2.3552,2.3552,2.3552,2.3816,2.4205,2.4707,2.5021,2.531,2.5586,2.5347,2.5197,2.5197,2.5197,2.5197,2.5197,2.546,2.5737,2.6,2.6013,2.5875,2.5598,2.5598,2.5598,2.5598,2.5598,2.5598,2.5678,2.6355,2.6591,2.6683,2.73,2.7537,2.7537,2.7537,2.7351,2.704,2.704,2.704,2.7262,1.9168,1.9127,1.9241,1.9779,1.9872,2.0027,2.0472,1.9728,1.9153,1.9153,1.8301,1.7716,1.7716,1.7716,1.7716,1.7716,1.8124,1.8472,1.8472,1.8516,1.8495,1.8495,1.8071,1.7626,1.7111,1.7018,1.6829,1.6384,1.6384,1.6384,1.6384,1.6384,1.6384,1.6384,1.6384,1.6384,1.6384,1.6384,1.6384,1.6384,1.6384,1.6384,1.6384,1.6384,1.6488,1.6534,1.6534,1.6899,1.7368,1.7368,1.771,1.8093,1.8201,1.8325,1.8608,1.9756,2.0499,2.1137,2.218,2.2786,2.3078,2.3078,2.3078,2.3078,2.3078,2.3078,2.3078,2.3078,2.3078,2.3078,2.3078,2.3078,2.3103,2.3263,2.369,2.4029,2.4117,2.4142,2.4142,2.4142,2.4217,2.4657,2.5649,2.5737,2.5937,2.6496,2.6013,2.5737,2.5737,2.5737,2.5737,2.5737,2.6214,2.6533,2.6533,2.6533,2.6533,2.6533,2.6533,2.6533,2.6533,2.6533,2.6533,2.6533,2.6533,2.6533,2.6533,2.6634,2.6609,2.6546,2.6666,2.6747,2.6684,2.6703,2.6697,2.6615,1.9661,1.9344,1.9334,2.0182,2.0338,2.0493,2.0948,2.0555,2.0185,2.0185,1.9387,1.8865,1.8865,1.8865,1.8865,1.8865,1.8931,1.9008,1.9008,1.9013,1.8982,1.8982,1.8537,1.8092,1.7595,1.7193,1.6829,1.6384,1.6384,1.6384,1.6384,1.6384,1.6384,1.6384,1.6384,1.6384,1.6384,1.6384,1.6384,1.6384,1.6384,1.6384,1.6384,1.6384,1.6694,1.7101,1.7101,1.7479,1.7984,1.7984,1.8038,1.8201,1.8709,1.9192,1.9768,2.0927,2.1643,2.2193,2.2815,2.3015,2.3078,2.3078,2.3078,2.3078,2.3078,2.3078,2.3078,2.3078,2.3078,2.3078,2.3078,2.3078,2.3301,2.3803,2.3954,2.4167,2.4644,2.4707,2.4707,2.4707,2.5109,2.5636,2.6276,2.6408,2.6445,2.6521,2.6389,2.6408,2.6408,2.6408,2.6408,2.6408,2.6483,2.6533,2.6533,2.6533,2.6533,2.6533,2.6533,2.6533,2.6533,2.6533,2.6533,2.6533,2.6533,2.6533,2.6559,2.6979,2.6892,2.6553,2.7507,2.7595,2.7231,2.7708,2.7281,2.6615,1.9927,1.9687,1.9582,1.9986,2.0472,2.0876,2.1083,2.0721,2.042,2.042,1.9634,1.9075,1.9075,1.9075,1.9075,1.9075,1.9075,1.9075,1.9075,1.9075,1.9075,1.9075,1.8878,1.8444,1.775,1.7472,1.7186,1.6842,1.6534,1.6384,1.6384,1.6384,1.6534,1.6842,1.6842,1.7011,1.7346,1.7346,1.7346,1.7346,1.7346,1.7346,1.7346,1.7346,1.7501,1.7699,1.7699,1.8093,1.8637,1.8932,1.9245,1.9631,2.0219,2.0533,2.0897,2.1725,2.2121,2.2435,2.2927,2.3078,2.3078,2.3078,2.3078,2.3078,2.3078,2.3389,2.3615,2.3615,2.3615,2.3703,2.4017,2.3828,2.3803,2.4368,2.4707,2.4971,2.5222,2.5259,2.5259,2.5259,2.546,2.5824,2.6471,2.6533,2.6533,2.6533,2.6533,2.6533,2.6533,2.6533,2.6533,2.6533,2.6533,2.6533,2.6533,2.6533,2.6533,2.6533,2.6533,2.6533,2.6533,2.6533,2.6533,2.6533,2.6533,2.6533,2.6546,2.6798,2.6678,2.6584,2.6992,2.7218,2.7344,2.7896,2.7795,2.7444]},{"header":{"parameterUnit":"m.s-1","parameterCategory":1,"la1":30.6,"la2":28.766,"lo1":-90.7593,"lo2":-88.6598,"dy":0.0162,"dx":0.0183,"nx":116,"ny":114,"refTime":"2023-07-29T12:00:00:Z","depth":0,"parameterNumber":3,"parameterNumberName":"V-component_of_WINDS"},"data":[0.0,0.0,0.0,0.0,0.0,0.0,0.0,0.0,0.0,0.0,0.0,0.0,0.0,0.0,0.0,0.0,0.0,0.0,0.0,0.0,0.0,0.0,0.0,0.0,0.0,0.0,0.0,0.0,0.0,0.0,0.0,0.0,0.0,0.0,0.0,0.0,0.0,0.0,0.0,0.0,0.0,0.0,0.0,0.0,0.0,0.0,0.0,0.0,0.0,0.0,0.0,0.0,0.0,0.0,0.0,0.0,0.0,0.0,0.0,0.0,0.0,0.0,0.0,0.0,0.0,0.0,0.0,0.0,0.0,0.0,0.0,0.0,0.0,0.0,0.0,0.0,0.0,0.0,0.0,0.0,0.0,0.0,0.0,0.0,0.0,0.0,0.0,0.0,0.0,0.0,0.0,0.0,0.0,0.0,0.0,0.0,0.0,0.0,0.0,0.0,0.0,0.0,0.0,0.0,0.0,0.0,0.0,0.0,0.0,0.0,0.0,0.0,0.0,0.0,0.0,0.0,0.0,0.0,0.0,0.0,0.0,0.0,0.0,0.0,0.0,0.0,0.0,0.0,0.0,0.0,0.0,0.0,0.0,0.0,0.0,0.0,0.0,0.0,0.0,0.0,0.0,0.0,0.0,0.0,0.0,0.0,0.0,0.0,0.0,0.0,0.0,0.0,0.0,0.0,0.0,0.0,0.0,0.0,0.0,0.0,0.0,0.0,0.0,0.0,0.0,0.0,0.0,0.0,0.0,0.0,0.0,0.0,0.0,0.0,0.0,0.0,0.0,0.0,0.0,0.0,0.0,0.0,0.0,0.0,0.0,0.0,0.0,0.0,0.0,0.0,0.0,0.0,0.0,0.0,0.0,0.0,0.0,0.0,0.0,0.0,0.0,0.0,0.0,0.0,0.0,0.0,0.0,0.0,0.0,0.0,0.0,0.0,0.0,0.0,0.0,0.0,0.0,0.0,0.0,0.0,0.0,0.0,0.0,0.0,0.0,0.0,0.0,0.0,0.0,0.0,0.0,0.0,0.0,0.0,0.0,0.0,0.0,0.0,0.0,0.0,0.0,0.0,0.0,0.0,0.0,0.0,0.0,0.0,0.0,0.0,0.0,0.0,0.0,0.0,0.0,0.0,0.0,0.0,0.0,0.0,0.0,0.0,0.0,0.0,0.0,0.0,0.0,0.0,0.0,0.0,0.0,0.0,0.0,0.0,0.0,0.0,0.0,0.0,0.0,0.0,0.0,0.0,0.0,0.0,0.0,0.0,0.0,0.0,0.0,0.0,0.0,0.0,0.0,0.0,0.0,0.0,0.0,0.0,0.0,0.0,0.0,0.0,0.0,0.0,0.0,0.0,0.0,0.0,0.0,0.0,0.0,0.0,0.0,0.0,0.0,0.0,0.0,0.0,0.0,0.0,0.0,0.0,0.0,0.0,0.0,0.0,0.0,0.0,0.0,0.0,0.0,0.0,0.0,0.0,0.0,0.0,0.0,0.0,0.0,0.0,0.0,0.0,0.0,0.0,0.0,0.0,0.0,0.0,0.0,0.0,0.0,0.0,0.0,0.0,0.0,0.0,0.0,0.0,0.0,0.0,0.0,0.0,0.0,0.0,0.0,0.0,0.0,0.0,0.0,0.0,0.0,0.0,0.0,0.0,0.0,0.0,0.0,0.0,0.0,0.0,0.0,0.0,0.0,0.0,0.0,0.0,0.0,0.0,0.0,0.0,0.0,0.0,0.0,0.0,0.0,0.0,0.0,0.0,0.0,0.0,0.0,0.0,0.0,0.0,0.0,0.0,0.0,0.0,0.0,0.0,0.0,0.0,0.0,0.0,0.0,0.0,0.0,0.0,0.0,0.0,0.0,0.0,0.0,0.0,0.0,0.0,0.0,0.0,0.0,0.0,0.0,0.0,0.0,0.0,0.0,0.0,0.0,0.0,0.0,0.0,0.0,0.0,0.0,0.0,0.0,0.0,0.0,0.0,0.0,0.0,0.0,0.0,0.0,0.0,0.0,0.0,0.0,0.0,0.0,0.0,0.0,0.0,0.0,0.0,0.0,0.0,0.0,0.0,0.0,0.0,0.0,0.0,0.0,0.0,0.0,0.0,0.0,0.0,0.0,0.0,0.0,0.0,0.0,0.0,0.0,0.0,0.0,0.0,0.0,0.0,0.0,0.0,0.0,0.0,0.0,0.0,0.0,0.0,0.0,0.0,0.0,0.0,0.0,0.0,0.0,0.0,0.0,0.0,0.0,0.0,0.0,0.0,0.0,0.0,0.0,0.0,0.0,0.0,0.0,0.0,0.0,0.0,0.0,0.0,0.0,0.0,0.0,0.0,0.0,0.0,0.0,0.0,0.0,0.0,0.0,0.0,0.0,0.0,0.0,0.0,0.0,0.0,0.0,0.0,0.0,0.0,0.0,0.0,0.0,0.0,0.0,0.0,0.0,0.0,0.0,0.0,0.0,0.0,0.0,0.0,0.0,0.0,0.0,0.0,0.0,0.0,0.0,0.0,0.0,0.0,0.0,0.0,0.0,0.0,0.0,0.0,0.0,0.0,0.0,0.0,0.0,0.0,0.0,0.0,0.0,0.0,0.0,0.0,0.0,0.0,0.0,0.0,0.0,0.0,0.0,0.0,0.0,0.0,0.0,0.0,0.0,0.0,0.0,0.0,0.0,0.0,0.0,0.0,0.0,0.0,0.0,0.0,0.0,0.0,0.0,0.0,0.0,0.0,0.0,0.0,0.0,0.0,0.0,0.0,0.0,0.0,0.0,0.0,0.0,0.0,0.0,0.0,0.0,0.0,0.0,0.0,0.0,0.0,0.0,0.0,0.0,0.0,0.0,0.0,0.0,0.0,0.0,0.0,0.0,0.0,0.0,0.0,0.0,0.0,0.0,0.0,0.0,0.0,0.0,0.0,0.0,0.0,0.0,0.0,0.0,0.0,0.0,0.0,0.0,0.0,0.0,0.0,0.0,0.0,0.0,0.0,0.0,0.0,0.0,0.0,0.0,0.0,0.0,0.0,0.0,0.0,0.0,0.0,0.0,0.0,0.0,0.0,0.0,0.0,0.0,0.0,0.0,0.0,0.0,0.0,0.0,0.0,0.0,0.0,0.0,0.0,0.0,0.0,0.0,0.0,0.0,0.0,0.0,0.0,0.0,0.0,0.0,0.0,0.0,0.0,0.0,0.0,0.0,0.0,0.0,0.0,0.0,0.0,0.0,0.0,0.0,0.0,0.0,0.0,0.0,0.0,0.0,0.0,0.0,0.0,0.0,0.0,0.0,0.0,0.0,0.0,0.0,0.0,0.0,0.0,0.0,0.0,0.0,0.0,0.0,0.0,0.0,0.0,0.0,0.0,0.0,0.0,0.0,0.0,0.0,0.0,0.0,0.0,0.0,0.0,0.0,0.0,0.0,0.0,0.0,0.0,0.0,0.0,0.0,0.0,0.0,0.0,0.0,0.0,0.0,0.0,0.0,0.0,0.0,0.0,0.0,0.0,0.0,0.0,0.0,0.0,0.0,0.0,0.0,0.0,0.0,0.0,0.0,0.0,0.0,0.0,0.0,0.0,0.0,0.0,0.0,0.0,0.0,0.0,0.0,0.0,0.0,0.0,0.0,0.0,0.0,0.0,0.0,0.0,0.0,0.0,0.0,0.0,0.0,0.0,0.0,0.0,0.0,0.0,0.0,0.0,0.0,0.0,0.0,0.0,0.0,0.0,0.0,0.0,0.0,0.0,0.0,0.0,0.0,0.0,0.0,0.0,0.0,0.0,0.0,0.0,0.0,0.0,0.0,0.0,0.0,0.0,0.0,0.0,0.0,0.0,0.0,0.0,0.0,0.0,0.0,0.0,0.0,0.0,0.0,0.0,0.0,0.0,0.0,0.0,0.0,0.0,0.0,0.0,0.0,0.0,0.0,0.0,0.0,0.0,0.0,0.0,0.0,0.0,0.0,0.0,0.0,0.0,0.0,0.0,0.0,0.0,0.0,0.0,0.0,0.0,0.0,0.0,0.0,0.0,0.0,0.0,0.0,0.0,0.0,0.0,0.0,0.0,0.0,0.0,0.0,0.0,0.0,0.0,0.0,0.0,0.0,0.0,0.0,0.0,0.0,0.0,0.0,0.0,0.0,0.0,0.0,0.0,0.0,0.0,0.0,0.0,0.0,0.0,0.0,0.0,0.0,0.0,0.0,0.0,0.0,0.0,0.0,0.0,0.0,0.0,0.0,0.0,0.0,0.0,0.0,0.0,0.0,0.0,0.0,0.0,0.0,0.0,0.0,0.0,0.0,0.0,0.0,0.0,0.0,0.0,0.0,0.0,0.0,0.0,0.0,0.0,0.0,0.0,0.0,0.0,0.0,0.0,0.0,0.0,0.0,0.0,0.0,0.0,0.0,0.0,0.0,0.0,0.0,0.0,0.0,0.0,0.0,0.0,0.0,0.0,0.0,0.0,0.0,0.0,0.0,0.0,0.0,0.0,0.0,0.0,0.0,0.0,0.0,0.0,0.0,0.0,0.0,0.0,0.0,0.0,0.0,0.0,0.0,0.0,0.0,0.0,0.0,0.0,0.0,0.0,0.0,0.0,0.0,0.0,0.0,0.0,0.0,0.0,0.0,0.0,0.0,0.0,0.0,0.0,0.0,0.0,0.0,0.0,0.0,0.0,0.0,0.0,0.0,0.0,0.0,0.0,0.0,0.0,0.0,0.0,0.0,0.0,0.0,0.0,0.0,0.0,0.0,0.0,0.0,0.0,0.0,0.0,0.0,0.0,0.0,0.0,0.0,0.0,0.0,0.0,0.0,0.0,0.0,0.0,0.0,0.0,0.0,0.0,0.0,0.0,0.0,0.0,0.0,0.0,0.0,0.0,0.0,0.0,0.0,0.0,0.0,0.0,0.0,0.0,0.0,0.0,0.0,0.0,0.0,0.0,0.0,0.0,0.0,0.0,0.0,0.0,0.0,0.0,0.0,0.0,0.0,0.0,0.0,0.0,0.0,0.0,0.0,0.0,0.0,0.0,0.0,0.0,0.0,0.0,0.0,0.0,0.0,0.0,0.0,0.0,0.0,0.0,0.0,0.0,0.0,0.0,0.0,0.0,0.0,0.0,0.0,0.0,0.0,0.0,0.0,0.0,0.0,0.0,0.0,0.0,0.0,0.0,0.0,0.0,0.0,0.0,0.0,0.0,0.0,0.0,0.0,0.0,0.0,0.0,0.0,0.0,0.0,0.0,0.0,0.0,0.0,0.0,0.0,0.0,0.0,0.0,0.0,0.0,0.0,0.0,0.0,0.0,0.0,0.0,0.0,0.0,0.0,0.0,0.0,0.0,0.0,0.0,0.0,0.0,0.0,0.0,0.0,0.0,0.0,0.0,0.0,0.0,0.0,0.0,0.0,0.0,0.0,0.0,0.0,0.0,0.0,0.0,0.0,0.0,0.0,0.0,0.0,0.0,0.0,0.0,0.0,0.0,0.0,0.0,0.0,0.0,0.0,0.0,0.0,0.0,0.0,0.0,0.0,0.0,0.0,0.0,0.0,0.0,0.0,0.0,0.0,0.0,0.0,0.0,0.0,0.0,0.0,0.0,0.0,0.0,0.0,0.0,0.0,0.0,0.0,0.0,0.0,0.0,0.0,0.0,0.0,0.0,0.0,0.0,0.0,0.0,0.0,0.0,0.0,0.0,0.0,0.0,0.0,0.0,0.0,0.0,0.0,0.0,0.0,0.0,0.0,0.0,0.0,0.0,0.0,0.0,0.0,0.0,0.0,0.0,0.0,0.0,0.0,0.0,0.0,0.0,0.0,0.0,0.0,0.0,0.0,0.0,0.0,0.0,0.0,0.0,0.0,0.0,0.0,0.0,0.0,0.0,0.0,0.0,0.0,0.0,0.0,0.0,0.0,0.0,0.0,0.0,0.0,0.0,0.0,0.0,0.0,0.0,0.0,0.0,0.0,0.0,0.0,0.0,0.0,0.0,0.0,0.0,0.0,0.0,0.0,0.0,0.0,0.0,0.0,0.0,0.0,0.0,0.0,0.0,0.0,0.0,0.0,0.0,0.0,0.0,0.0,0.0,0.0,0.0,0.0,0.0,0.0,0.0,-2.5001,-2.4801,0.0,0.0,0.0,0.0,0.0,0.0,0.0,0.0,0.0,0.0,0.0,0.0,0.0,0.0,0.0,0.0,0.0,0.0,0.0,0.0,0.0,0.0,0.0,0.0,0.0,0.0,0.0,0.0,0.0,0.0,0.0,0.0,0.0,0.0,0.0,0.0,0.0,0.0,0.0,0.0,0.0,0.0,0.0,0.0,0.0,0.0,0.0,0.0,0.0,0.0,0.0,0.0,0.0,0.0,0.0,0.0,0.0,0.0,0.0,0.0,0.0,0.0,0.0,0.0,0.0,0.0,0.0,0.0,0.0,0.0,0.0,0.0,0.0,0.0,0.0,0.0,0.0,0.0,0.0,0.0,0.0,0.0,0.0,0.0,0.0,0.0,0.0,0.0,0.0,0.0,0.0,0.0,0.0,0.0,0.0,0.0,0.0,0.0,0.0,0.0,0.0,0.0,0.0,0.0,0.0,0.0,0.0,0.0,0.0,0.0,0.0,0.0,0.0,0.0,-2.6825,-2.644,0.0,0.0,0.0,0.0,0.0,0.0,0.0,0.0,0.0,0.0,0.0,0.0,0.0,0.0,0.0,0.0,0.0,0.0,0.0,0.0,0.0,0.0,0.0,0.0,0.0,0.0,0.0,0.0,0.0,0.0,0.0,0.0,0.0,0.0,0.0,0.0,0.0,0.0,0.0,0.0,0.0,0.0,0.0,0.0,0.0,0.0,0.0,0.0,0.0,0.0,0.0,0.0,0.0,0.0,0.0,0.0,0.0,0.0,0.0,0.0,0.0,0.0,0.0,0.0,0.0,0.0,0.0,0.0,0.0,0.0,0.0,0.0,0.0,0.0,0.0,0.0,0.0,0.0,0.0,0.0,0.0,0.0,0.0,0.0,0.0,0.0,0.0,0.0,0.0,0.0,0.0,0.0,0.0,0.0,0.0,0.0,0.0,0.0,0.0,0.0,0.0,0.0,0.0,0.0,0.0,0.0,0.0,0.0,-2.8069,-2.8076,-2.8034,-2.8376,-2.8579,-2.8626,-2.8787,-2.822,-2.7219,-2.7579,0.0,0.0,0.0,0.0,0.0,0.0,0.0,0.0,0.0,0.0,0.0,0.0,0.0,0.0,0.0,0.0,0.0,0.0,0.0,0.0,0.0,0.0,0.0,0.0,0.0,0.0,0.0,0.0,0.0,0.0,0.0,0.0,0.0,0.0,0.0,0.0,0.0,0.0,-2.081,-2.1792,-2.2476,-2.2825,-2.2226,0.0,0.0,0.0,0.0,0.0,0.0,0.0,0.0,0.0,0.0,0.0,0.0,0.0,0.0,0.0,0.0,0.0,0.0,0.0,0.0,0.0,0.0,0.0,0.0,0.0,0.0,0.0,0.0,0.0,0.0,0.0,0.0,0.0,0.0,0.0,0.0,0.0,0.0,0.0,0.0,0.0,0.0,0.0,-2.335,-2.3932,0.0,0.0,0.0,0.0,0.0,0.0,0.0,0.0,0.0,0.0,0.0,0.0,0.0,-2.8738,-2.7919,-2.8054,-2.8104,-2.8098,-2.8106,-2.81,-2.8139,-2.9596,-3.0288,-3.0341,-3.1145,0.0,-2.902,-2.7615,0.0,0.0,0.0,0.0,0.0,0.0,0.0,0.0,0.0,0.0,0.0,0.0,0.0,0.0,0.0,0.0,0.0,0.0,0.0,0.0,0.0,0.0,0.0,0.0,0.0,0.0,0.0,0.0,0.0,0.0,0.0,0.0,0.0,0.0,0.0,0.0,-1.9453,-2.1305,-2.2748,-2.3683,-2.4535,-2.519,-2.4766,-2.4278,-2.3784,-2.4076,0.0,0.0,0.0,0.0,0.0,0.0,0.0,0.0,0.0,0.0,0.0,0.0,0.0,0.0,0.0,0.0,0.0,0.0,0.0,0.0,0.0,0.0,0.0,0.0,0.0,0.0,0.0,0.0,0.0,0.0,0.0,0.0,0.0,0.0,0.0,0.0,0.0,0.0,0.0,-2.3273,-2.4945,-2.6196,-2.643,-2.6859,0.0,0.0,0.0,0.0,0.0,0.0,0.0,0.0,0.0,-2.9285,-2.9765,-3.0095,-3.0222,-3.0711,-3.0711,-3.0178,-3.0178,-2.99,-2.9419,-3.0153,-3.052,-3.0593,-3.154,-3.1539,-3.0801,-2.959,-2.9234,-2.9428,0.0,0.0,0.0,0.0,-2.9674,-2.9833,0.0,0.0,0.0,0.0,0.0,0.0,0.0,0.0,0.0,0.0,0.0,0.0,0.0,0.0,0.0,-0.9059,0.0,0.0,0.0,0.0,0.0,0.0,0.0,0.0,0.0,0.0,0.0,0.0,-2.1149,-2.277,-2.3983,-2.4895,-2.5747,-2.6482,-2.6512,-2.6185,-2.5566,-2.5688,-2.6016,0.0,0.0,0.0,0.0,0.0,0.0,0.0,0.0,0.0,0.0,0.0,0.0,0.0,0.0,0.0,0.0,0.0,0.0,0.0,0.0,0.0,0.0,0.0,0.0,0.0,0.0,0.0,0.0,0.0,0.0,0.0,0.0,0.0,0.0,0.0,0.0,0.0,0.0,-2.4963,-2.6311,-2.7958,-2.7978,-2.812,0.0,0.0,0.0,0.0,0.0,0.0,-3.0394,-2.991,-2.9925,-3.0635,-3.0994,-3.1495,-3.2154,-3.2589,-3.2474,-3.1776,-3.1563,-3.1067,-3.0398,-3.0629,-3.0755,-3.0868,-3.1584,-3.1929,-3.1938,-3.1122,-3.0682,-3.0526,-3.0721,-3.1006,-3.1334,-3.1785,-3.2026,-3.2145,0.0,0.0,0.0,0.0,0.0,0.0,0.0,0.0,0.0,0.0,0.0,0.0,0.0,0.0,-0.8555,-0.8948,-1.0082,-1.0724,0.0,0.0,0.0,0.0,0.0,0.0,0.0,0.0,0.0,-1.9947,-2.2217,-2.3574,-2.4114,-2.4988,-2.5957,-2.6979,-2.7158,-2.7564,-2.8075,-2.7304,-2.793,-2.9301,0.0,0.0,0.0,0.0,0.0,0.0,0.0,0.0,0.0,0.0,0.0,0.0,0.0,0.0,0.0,0.0,0.0,0.0,0.0,0.0,0.0,0.0,0.0,0.0,0.0,0.0,0.0,0.0,0.0,0.0,0.0,0.0,0.0,0.0,0.0,0.0,0.0,0.0,0.0,-2.836,-2.8739,0.0,0.0,0.0,0.0,-2.9214,-2.9825,-3.0263,-3.039,-3.0962,-3.1388,-3.1621,-3.2384,-3.2807,-3.2846,-3.2134,-3.1749,-3.1711,-3.0871,-3.0448,-3.0417,-3.1256,-3.1672,-3.1739,-3.1851,-3.1941,-3.1932,-3.1136,-3.1758,-3.3046,-3.1428,-3.1777,-3.308,-3.2363,-3.2565,-3.2992,0.0,0.0,0.0,0.0,0.0,0.0,0.0,0.0,0.0,0.0,0.0,0.0,0.0,-0.8695,-0.8725,-0.8641,-0.998,-1.07,-1.0308,0.0,0.0,0.0,0.0,0.0,0.0,0.0,-1.9732,-2.1218,-2.2359,-2.3489,-2.4484,-2.5105,-2.5772,-2.6453,-2.7037,-2.7832,-2.8747,-2.881,-2.949,-3.046,-3.0076,-3.0071,0.0,0.0,0.0,0.0,0.0,0.0,0.0,0.0,0.0,0.0,0.0,0.0,0.0,0.0,0.0,0.0,0.0,0.0,0.0,0.0,0.0,0.0,0.0,0.0,0.0,0.0,0.0,0.0,0.0,0.0,0.0,0.0,0.0,0.0,0.0,0.0,0.0,-2.952,-2.9877,0.0,-3.0194,-3.0186,-3.0134,-3.0042,-3.0011,-3.0247,-3.0818,-3.0947,-3.1593,-3.2882,-3.3333,-3.3858,-3.4505,-3.3705,-3.3032,-3.2449,-3.1628,-3.0917,-3.0336,-3.0706,-3.089,-3.1004,-3.1626,-3.1617,-3.1198,-3.1512,-3.1675,-3.1665,-3.104,-3.1172,-3.1721,-3.2007,-3.228,-3.2527,0.0,0.0,0.0,0.0,0.0,0.0,0.0,0.0,0.0,0.0,0.0,-0.8362,-0.8573,-0.8786,-0.879,-0.85,-0.9914,-1.0653,-1.0285,0.0,0.0,0.0,0.0,0.0,0.0,-1.9137,-2.022,-2.1445,-2.2605,-2.3654,-2.459,-2.5349,-2.6032,-2.6718,-2.7611,-2.8572,-2.9595,-3.0497,-3.1199,-3.1675,-3.1589,-3.1682,-3.1892,0.0,0.0,0.0,0.0,0.0,0.0,0.0,0.0,0.0,0.0,0.0,0.0,0.0,0.0,0.0,0.0,0.0,0.0,0.0,0.0,0.0,0.0,0.0,0.0,0.0,0.0,0.0,0.0,0.0,0.0,0.0,0.0,0.0,0.0,-2.819,-2.9027,-3.0265,-3.0555,-3.0675,-3.0661,-3.0898,-3.0986,-3.0886,-3.103,-3.14,-3.1948,-3.2109,-3.277,-3.4036,-3.4282,-3.4576,-3.4961,-3.4126,-3.3313,-3.2461,-3.161,-3.0899,-3.0292,-3.0371,-3.0606,-3.0963,-3.1321,-3.1365,-3.1208,-3.1538,-3.1315,-3.0831,-3.1122,-3.1426,-3.1758,-3.2339,-3.2539,-3.261,0.0,0.0,0.0,0.0,0.0,0.0,0.0,0.0,0.0,0.0,-0.7777,-0.7949,-0.8533,-0.8732,-0.8728,-0.8612,-0.9892,-1.0576,-1.0387,-1.1451,0.0,0.0,0.0,0.0,-1.7253,-1.9599,-2.0757,-2.0601,-2.2964,-2.4228,-2.4463,-2.5637,-2.6741,-2.7794,-2.8876,-2.9795,-3.0649,-3.2265,-3.2971,-3.2966,-3.2735,-3.3109,-3.378,0.0,0.0,0.0,0.0,0.0,0.0,0.0,0.0,0.0,0.0,0.0,0.0,0.0,0.0,0.0,0.0,0.0,0.0,0.0,0.0,0.0,0.0,0.0,0.0,0.0,0.0,0.0,0.0,0.0,0.0,0.0,0.0,0.0,-2.831,-2.8689,-2.941,-3.055,-3.0807,-3.084,-3.0698,-3.1448,-3.1863,-3.1661,-3.2844,-3.3599,-3.3688,-3.4433,-3.4889,-3.4999,-3.5254,-3.4981,-3.4146,-3.3283,-3.2459,-3.1654,-3.0791,-3.0388,-3.0388,-3.0444,-3.0975,-3.1809,-3.1059,-3.1259,-3.2026,-3.1154,-3.082,-3.0913,-3.1749,-3.2578,-3.3319,-3.3319,-3.3328,-3.3314,0.0,0.0,0.0,0.0,0.0,0.0,0.0,0.0,0.0,0.0,-0.7597,-0.7827,-0.8893,-0.8626,-0.8528,-0.9009,-0.9567,-1.006,-1.0372,0.0,0.0,0.0,0.0,0.0,-2.0111,-2.0915,-2.1881,-2.3112,-2.4064,-2.4741,-2.513,-2.5865,-2.6336,-2.6604,-2.7695,-2.8521,-2.9193,-3.1048,-3.217,-3.2778,-3.3494,-3.3895,-3.4074,0.0,0.0,0.0,0.0,0.0,0.0,0.0,0.0,0.0,0.0,0.0,0.0,0.0,0.0,0.0,0.0,0.0,0.0,0.0,0.0,0.0,0.0,0.0,0.0,0.0,0.0,0.0,0.0,0.0,0.0,0.0,-2.9425,-3.0547,-3.0519,-3.0802,-3.1394,-3.243,-3.2633,-3.2624,-3.2497,-3.2707,-3.2764,-3.2545,-3.2764,-3.3132,-3.3743,-3.3828,-3.4226,-3.4982,-3.507,-3.5057,-3.4963,-3.4151,-3.3614,-3.3317,-3.2502,-3.2119,-3.211,-3.2223,-3.2454,-3.2704,-3.196,-3.1824,-3.2026,-3.1154,-3.1175,-3.1695,-3.1302,-3.1308,-3.1504,-3.1504,-3.1502,-3.1516,0.0,0.0,0.0,0.0,0.0,0.0,0.0,0.0,0.0,0.0,-0.7057,-0.7311,-0.8273,-0.8199,-0.8222,-0.8738,-0.9167,-0.9588,-1.0028,0.0,0.0,0.0,0.0,-1.8354,-2.0484,-2.1238,-2.2306,-2.3719,-2.4415,-2.5141,-2.5922,-2.6577,-2.695,-2.714,-2.8124,-2.8537,-2.8641,-3.0789,-3.178,-3.2036,-3.3678,-3.4215,-3.4035,-3.4073,-3.4089,-3.4032,-3.3503,-3.3508,-3.371,-3.3459,0.0,0.0,0.0,0.0,0.0,0.0,0.0,0.0,0.0,0.0,0.0,0.0,0.0,0.0,0.0,0.0,0.0,0.0,0.0,0.0,0.0,0.0,0.0,0.0,-3.06,-3.1789,-3.2512,-3.2484,-3.2616,-3.3224,-3.3358,-3.3363,-3.3245,-3.3522,-3.3635,-3.3462,-3.354,-3.3798,-3.4242,-3.4187,-3.4377,-3.4926,-3.5072,-3.5021,-3.4764,-3.4297,-3.3857,-3.3444,-3.267,-3.2294,-3.2281,-3.2083,-3.2212,-3.2563,-3.1813,-3.1724,-3.2021,-3.1153,-3.1106,-3.1539,0.0,0.0,0.0,0.0,-3.0801,-3.0801,0.0,0.0,0.0,0.0,0.0,0.0,0.0,0.0,0.0,0.0,0.0,-0.6639,-0.7249,-0.7491,-0.7766,-0.8072,-0.8632,-0.9112,0.0,0.0,0.0,-1.5195,-1.7111,-1.8572,-1.9588,-2.1094,-2.2308,-2.3311,-2.4368,-2.551,-2.6619,-2.739,-2.7946,-2.8368,-2.916,-2.9124,-2.8603,-3.0956,-3.1552,-3.108,-3.3436,-3.4171,-3.3927,-3.4335,-3.4465,-3.4362,-3.4064,-3.4338,-3.4853,-3.4654,0.0,0.0,0.0,0.0,0.0,0.0,0.0,0.0,0.0,0.0,0.0,0.0,0.0,0.0,0.0,0.0,0.0,0.0,0.0,0.0,0.0,0.0,0.0,0.0,-3.1789,-3.2529,-3.4088,-3.3856,-3.3492,-3.3456,-3.3513,-3.3488,-3.3309,-3.3887,-3.4245,-3.4229,-3.4653,-3.4937,-3.4981,-3.5051,0.0,0.0,0.0,-3.496,-3.4182,-3.4087,-3.3666,-3.2866,-3.2122,-3.1749,-3.1742,-3.1155,-3.1312,-3.2018,-3.127,-3.1393,-3.2026,-3.1159,-3.0866,-3.1013,-3.1697,-3.1952,-3.1856,-3.1094,-3.0801,-3.0801,0.0,0.0,0.0,0.0,0.0,0.0,0.0,0.0,0.0,-0.6154,-0.5944,-0.6182,-0.7316,-0.7016,-0.6969,-0.7604,-0.7533,-0.8021,0.0,0.0,-1.3299,-1.5057,-1.6729,-1.8495,-2.0364,-2.1851,-2.305,-2.4011,-2.5125,-2.5995,-2.6605,-2.7217,-2.7391,-2.7303,-2.7682,-2.7984,-2.8273,-2.9841,-3.0627,-3.0999,-3.2926,-3.3945,-3.4371,-3.4529,-3.4199,-3.3704,-3.3661,-3.3606,-3.3517,-3.3722,-3.4002,-3.412,-3.3613,0.0,0.0,0.0,0.0,0.0,0.0,0.0,0.0,0.0,0.0,0.0,0.0,0.0,0.0,0.0,0.0,0.0,0.0,0.0,0.0,-3.2524,-3.331,-3.4003,-3.4333,-3.4957,-3.5115,-3.4423,-3.4414,-3.4153,-3.3365,-3.3388,-3.3688,-3.4302,-3.4472,-3.4793,-3.5425,-3.5476,-3.5476,-3.5463,-3.5507,-3.5461,-3.5288,-3.4581,-3.4156,-3.3983,-3.3125,0.0,-3.2742,-3.2712,-3.28,-3.2905,-3.2177,-3.1936,-3.2033,-3.1159,-3.1209,-3.1796,-3.1263,-3.104,-3.1036,-3.086,-3.0801,-3.0801,0.0,0.0,0.0,0.0,0.0,0.0,0.0,0.0,0.0,0.0,-0.5667,-0.5838,-0.6463,-0.6239,-0.6297,-0.6924,-0.7433,0.0,0.0,-1.1455,-1.3202,-1.4582,-1.6449,-1.8172,-1.9775,-2.1067,-2.2306,-2.349,-2.4296,-2.5026,-2.5603,-2.6319,-2.6656,-2.6674,-2.7034,-2.7339,-2.7654,-2.9055,-2.9763,-3.0179,-3.2243,-3.3263,-3.36,-3.4007,-3.415,-3.4164,-3.4196,-3.4333,-3.4524,-3.4702,-3.4772,-3.4695,-3.4117,-3.3845,-3.3599,0.0,0.0,0.0,0.0,0.0,0.0,0.0,0.0,0.0,0.0,0.0,0.0,0.0,0.0,-3.1969,-3.2334,0.0,-3.2847,-3.3442,-3.407,-3.46,-3.4991,-3.558,-3.5614,-3.4705,-3.4667,-3.4345,-3.3442,-3.3256,-3.3366,-3.3759,-3.3752,-3.3866,-3.4281,-3.4301,-3.4494,-3.4949,-3.4533,-3.4513,-3.4949,-3.4088,-3.3652,-3.3633,-3.283,-3.2438,-3.2446,-3.2141,-3.2006,-3.1987,-3.1616,-3.145,-3.1413,-3.0975,-3.1054,-3.1417,-3.096,-3.1075,-3.1407,-3.0958,-3.0801,-3.0801,0.0,0.0,0.0,0.0,0.0,0.0,0.0,0.0,0.0,0.0,-0.5418,-0.5563,-0.5563,-0.5563,-0.573,0.0,0.0,0.0,0.0,-1.1368,-1.2907,-1.3948,-1.5898,-1.7445,-1.8543,-1.9673,-2.0922,-2.2204,-2.2863,-2.3558,-2.4219,-2.5163,-2.568,-2.5917,-2.6386,-2.6674,-2.6894,-2.8351,-2.9047,-2.9279,-3.132,-3.2264,-3.2485,-3.2957,-3.3693,-3.4534,-3.4737,-3.5154,-3.5572,-3.5681,-3.5571,-3.5295,-3.4796,-3.4516,-3.4225,-3.3237,-3.3607,0.0,0.0,0.0,0.0,0.0,0.0,0.0,0.0,-3.2845,-3.2538,-3.3895,-3.3586,-3.3068,-3.3109,-3.3282,-3.3647,-3.4326,-3.4592,-3.493,-3.5582,-3.5846,-3.5575,-3.4471,-3.4407,-3.4043,-3.299,-3.2799,-3.2873,-3.3206,-3.3142,-3.3236,-3.3555,-3.341,-3.3643,-3.4369,-3.3527,-3.341,-3.4108,-3.3255,-3.2829,-3.2829,-3.2045,-3.1695,-3.168,-3.1077,-3.0798,-3.078,-3.0762,-3.0761,-3.076,-3.0754,-3.076,-3.0765,-3.0765,-3.1194,-3.1721,-3.1025,-3.0774,-3.0771,0.0,0.0,0.0,0.0,0.0,0.0,0.0,0.0,0.0,0.0,0.0,0.0,0.0,0.0,0.0,0.0,0.0,0.0,-0.8181,-1.0164,-1.1916,-1.3253,-1.4585,-1.581,-1.6935,-1.8395,-1.9407,-1.9935,-2.1395,-2.2314,-2.2849,-2.3895,-2.4424,-2.4465,-2.495,-2.5472,-2.6094,-2.7656,-2.8497,-2.8885,-3.0046,-3.1032,-3.1663,-3.1319,-3.2089,-3.3515,-3.4518,-3.471,-3.4516,-3.4885,-3.5195,-3.5434,-3.5706,-3.5345,-3.4797,-3.4662,-3.4695,-3.437,-3.2769,-3.2919,-3.3441,-3.3283,-3.4553,-3.6272,0.0,-3.7544,-3.7014,-3.8192,-3.7374,-3.628,-3.5777,-3.5836,-3.5854,-3.5422,-3.5423,-3.5512,-3.5599,-3.5772,-3.5295,-3.3634,-3.3495,-3.2909,-3.125,-3.1071,-3.1708,-3.3268,-3.3363,-3.4027,-3.5589,-3.4923,-3.4552,-3.4649,-3.3807,-3.3398,-3.3495,-3.2639,-3.2209,-3.219,-3.1337,-3.0929,-3.0929,-3.0834,-3.0761,-3.0719,-3.0641,-3.0614,-3.0613,-3.0626,-3.0626,-3.062,-3.062,-3.0678,-3.0763,-3.074,-3.0715,-3.0691,0.0,0.0,0.0,0.0,0.0,0.0,0.0,0.0,0.0,0.0,0.0,0.0,0.0,0.0,0.0,0.0,0.0,0.0,-0.8021,-1.0094,-1.1584,-1.2197,-1.3682,-1.4915,-1.5706,-1.6993,-1.8074,-1.8835,-1.9775,-2.0633,-2.1458,-2.2775,-2.3539,-2.3881,-2.4655,-2.5378,-2.6001,-2.7118,-2.8065,-2.8905,-2.9763,-3.0585,-3.1276,-3.1486,-3.1742,-3.2134,-3.3222,-3.3499,0.0,0.0,-3.433,-3.4555,-3.5162,-3.5148,-3.4781,-3.4101,-3.4169,-3.4465,-3.4266,-3.4411,-3.4763,-3.537,-3.6474,-3.7731,-3.9011,-3.8525,-3.8199,-3.9573,-3.8719,-3.7624,-3.7359,-3.7204,-3.6852,-3.6135,-3.6215,-3.6187,-3.5665,-3.5715,-3.532,-3.4095,-3.4405,-3.37,-3.1052,-3.1269,-3.1855,-3.2594,-3.3102,-3.3726,-3.445,-3.3668,-3.3413,-3.3939,-3.2612,-3.2123,-3.263,-3.1772,-3.1343,-3.1343,-3.0976,-3.0781,-3.0737,-3.0749,-3.071,-3.0633,-3.0611,-3.0594,-3.0593,-3.0593,-3.0593,-3.0593,-3.0593,-3.0593,-3.06,-3.0626,-3.0639,-3.0633,0.0,0.0,0.0,0.0,0.0,0.0,0.0,0.0,0.0,0.0,0.0,0.0,0.0,0.0,0.0,0.0,0.0,0.0,0.0,-0.9833,-1.1108,-1.1483,-1.2757,-1.3819,-1.4545,-1.5505,-1.657,-1.7601,-1.836,-1.9238,-2.011,-2.1623,-2.2615,-2.32,-2.4219,-2.5113,-2.5899,-2.6803,-2.7831,-2.9049,-2.9546,-3.0233,-3.0985,-3.1415,-3.1332,-3.1165,-3.2174,-3.2449,0.0,0.0,-3.3291,-3.3423,-3.4306,-3.4452,-3.42,-3.3807,-3.3822,-3.4124,-3.4771,-3.499,-3.5322,-3.6304,-3.7571,-3.8717,-3.9086,-3.91,-3.9286,-4.0074,-3.9556,-3.888,-3.8584,-3.8288,-3.7851,-3.7109,-3.6814,-3.6458,-3.5823,-3.5601,-3.5194,-3.4381,-3.4855,-3.4268,-3.1705,-3.2221,-3.2734,-3.2727,-3.3312,-3.3683,-3.3704,-3.2884,-3.2573,-3.2965,-3.1539,-3.1051,-3.1677,-3.1051,-3.0737,-3.0737,-3.0747,-3.0713,-3.0665,-3.0647,-3.0614,-3.0564,-3.0552,-3.0543,-3.0543,-3.0543,-3.0543,-3.0543,-3.0543,-3.0543,-3.0543,-3.0543,-3.056,-3.0576,0.0,0.0,0.0,0.0,0.0,0.0,0.0,0.0,0.0,0.0,0.0,0.0,0.0,0.0,0.0,0.0,0.0,0.0,0.0,-0.8974,-1.0155,-1.1421,-1.1545,-1.222,-1.3502,-1.4034,-1.4833,-1.5872,-1.7414,-1.8342,-1.8784,-2.0382,-2.1425,-2.2018,-2.3181,-2.4377,-2.5526,-2.6776,-2.8035,-2.916,-2.9218,-2.9842,-3.0776,-3.0386,-3.0539,-3.1037,-3.1887,0.0,0.0,0.0,-3.2043,-3.225,-3.3452,-3.3326,-3.3027,-3.4419,-3.4096,-3.3296,-3.3656,-3.4002,-3.4428,-3.5151,-3.7615,-3.9646,-3.8972,-4.0201,-4.1161,-4.0052,-4.0409,-4.0603,-3.9556,-3.9339,-3.9156,-3.8556,-3.7143,-3.6121,-3.6083,-3.547,-3.4772,-3.4082,-3.4087,-3.3877,-3.3192,-3.386,-3.4326,-3.4323,-3.4342,-3.4389,-3.4462,-3.3638,-3.2783,-3.1967,-3.1073,-3.0626,-3.0646,-3.0626,-3.0607,-3.0607,-3.0607,-3.06,-3.06,-3.0535,-3.051,-3.0501,-3.0428,-3.041,-3.041,-3.041,-3.041,-3.041,-3.041,-3.041,-3.041,-3.041,-3.0449,-3.0492,0.0,0.0,0.0,0.0,0.0,0.0,0.0,0.0,0.0,0.0,0.0,0.0,0.0,0.0,0.0,0.0,0.0,0.0,0.0,-0.8612,-0.9667,-1.0295,-1.1206,-1.2004,-1.2609,-1.3212,-1.4047,-1.501,-1.6117,-1.7164,-1.8141,-1.963,-2.1039,-2.2321,-2.3171,-2.4316,-2.5797,-2.6776,-2.8088,-2.9551,-2.938,-3.0276,-3.1482,-2.9843,-2.9489,-2.9811,0.0,0.0,0.0,0.0,-3.0815,-3.0943,-3.1806,-3.1903,-3.1773,-3.2134,-3.2171,-3.2343,-3.3136,-3.4211,-3.5361,-3.6523,-3.8039,-3.9206,-3.9462,-4.0012,-4.0435,-4.0288,-4.0047,-3.9768,-3.9397,-3.9663,-3.9498,-3.8177,-3.7853,-3.737,-3.6271,-3.5894,-3.5665,-3.5416,-3.6401,-3.6797,-3.6009,-3.5002,-3.4404,-3.4392,-3.4936,-3.5041,-3.4532,-3.367,-3.2807,-3.1941,-3.104,-3.0593,-3.0593,-3.0593,-3.0593,-3.0593,-3.056,-3.0527,-3.0527,-3.0462,-3.0428,-3.0428,-3.0402,-3.0398,-3.0398,-3.0254,-3.0196,-3.0182,-3.0099,-3.0075,-3.0075,-3.0075,-3.0066,-3.0136,0.0,0.0,0.0,0.0,0.0,0.0,0.0,0.0,0.0,0.0,0.0,0.0,0.0,0.0,0.0,0.0,0.0,-0.668,0.0,0.0,-0.8891,-0.9239,-1.0227,-1.0921,-1.1296,-1.2096,-1.3057,-1.4124,-1.5051,-1.6307,-1.7716,-1.8786,-2.0155,-2.1699,-2.2375,-2.3657,-2.5337,-2.5937,-2.7222,-2.881,-2.8516,-2.9426,-3.0807,-2.919,-2.9013,0.0,0.0,0.0,0.0,0.0,-2.9244,-2.9354,-3.0195,-3.0608,-3.0831,-3.087,-3.1299,-3.1973,-3.3128,-3.4236,-3.5368,-3.6498,-3.7489,-3.8252,-3.8602,-3.9115,-3.9505,-3.9445,-3.9464,-3.9373,-3.8934,-3.952,-3.9475,-3.7716,-3.7385,-3.708,-3.6246,-3.5649,-3.5566,-3.6316,-3.7357,-3.7853,-3.7348,-3.617,-3.5316,-3.5039,-3.5521,-3.5237,-3.3832,-3.3222,-3.2381,-3.1214,-3.0685,-3.0414,-3.0414,-3.0414,-3.0395,-3.0335,-3.0298,-3.0283,-3.0283,-3.0235,-3.0221,-3.0221,-3.0221,-3.0221,-3.0202,-3.0085,-3.0037,-3.0022,-2.9934,-2.9902,-2.9902,-2.9902,-2.9902,-2.9934,0.0,0.0,0.0,0.0,0.0,0.0,0.0,0.0,0.0,0.0,0.0,0.0,0.0,0.0,0.0,0.0,0.0,0.0,0.0,0.0,0.0,-0.8457,-0.8692,-0.9085,-0.9679,-1.0678,-1.178,-1.3142,-1.4322,-1.5749,-1.7346,-1.7795,-1.8749,-2.0158,-2.0905,-2.2281,-2.4124,-2.4418,-2.5564,-2.7113,-2.6712,-2.7515,-2.8975,-2.8402,0.0,0.0,0.0,0.0,0.0,-2.7703,-2.7464,-2.7665,-2.8732,-2.9564,-3.0275,-3.0744,-3.1399,-3.2252,-3.3452,-3.4034,-3.4488,-3.5194,-3.622,-3.6918,-3.6575,-3.7611,-3.8415,-3.7623,-3.8663,-3.9403,-3.8251,-3.9017,-3.9218,-3.7326,-3.6047,-3.5551,-3.6138,-3.4881,-3.4689,-3.6732,-3.6972,-3.7024,-3.7265,-3.7268,-3.6909,-3.6134,-3.61,-3.504,-3.2653,-3.2444,-3.1648,-3.0016,-3.0041,-3.0095,-3.0095,-3.0095,-3.0022,-2.9902,-2.9902,-2.9902,-2.9902,-2.9902,-2.9902,-2.9902,-2.9902,-2.9902,-2.9902,-2.9886,-2.9886,-2.9886,-2.9869,-2.9869,-2.9869,-2.9869,-2.9869,-2.9869,0.0,0.0,0.0,0.0,0.0,0.0,0.0,0.0,0.0,0.0,0.0,0.0,0.0,0.0,0.0,0.0,0.0,0.0,0.0,0.0,0.0,0.0,0.0,0.0,0.0,0.0,0.0,0.0,0.0,-1.4719,-1.513,-1.6589,-1.7921,-1.9097,-1.9761,-2.0955,-2.2487,-2.3895,-2.5213,-2.6245,0.0,-2.7837,-2.8778,0.0,0.0,0.0,0.0,0.0,-2.7648,-2.713,-2.7227,-2.7792,-2.8499,-2.9414,-3.0309,-3.0394,-3.1231,-3.2217,-3.3016,-3.3648,-3.4331,-3.5191,-3.5605,-3.587,-3.6002,-3.6345,-3.6646,-3.6742,-3.7068,-3.7346,-3.7276,-3.8704,-3.9337,-3.7631,-3.7801,-3.7798,-3.6785,-3.5817,-3.5624,-3.6711,-3.6406,-3.6337,-3.6945,-3.6515,-3.6093,-3.5826,-3.5998,-3.5552,-3.4264,-3.3052,-3.1914,-3.0833,-3.0257,-2.9946,-2.9946,-2.9946,-2.9934,-2.9902,-2.9902,-2.9902,-2.9902,-2.9902,-2.9902,-2.9902,-2.9902,-2.9902,-2.9886,-2.9751,-2.9681,-2.9662,-2.957,-2.9531,-2.9531,-2.9531,-2.9531,-2.9531,0.0,0.0,0.0,0.0,0.0,0.0,0.0,0.0,0.0,0.0,0.0,0.0,0.0,0.0,0.0,0.0,0.0,0.0,0.0,0.0,0.0,0.0,0.0,0.0,0.0,0.0,0.0,0.0,0.0,0.0,0.0,-1.494,-1.6245,-1.7711,-1.8054,-1.9227,-2.1053,0.0,0.0,0.0,0.0,0.0,0.0,0.0,0.0,0.0,0.0,0.0,-2.702,-2.7366,-2.7505,-2.7767,-2.8389,-2.9059,-2.9711,-3.0562,-3.1285,-3.1992,-3.2857,-3.3393,-3.3834,-3.4317,-3.4625,-3.4844,-3.4829,-3.5301,-3.5708,-3.5786,-3.6035,-3.6239,-3.6237,-3.7549,-3.8244,-3.6962,-3.7131,-3.7376,-3.7126,-3.617,-3.5822,-3.6729,-3.6522,-3.6304,-3.6395,-3.6046,-3.5792,-3.5742,-3.5532,-3.5032,-3.4128,-3.272,-3.1532,-3.0691,-3.0076,-2.9769,-2.9769,-2.9769,-2.9734,-2.9681,-2.9681,-2.9681,-2.9681,-2.9681,-2.9681,-2.9681,-2.9681,-2.9681,-2.9663,-2.957,-2.9512,-2.9512,-2.9429,-2.9407,-2.9407,-2.9407,-2.9407,-2.9407,0.0,0.0,0.0,0.0,0.0,0.0,0.0,0.0,0.0,0.0,0.0,0.0,0.0,0.0,0.0,0.0,0.0,0.0,0.0,0.0,0.0,0.0,0.0,0.0,0.0,0.0,0.0,0.0,0.0,0.0,0.0,0.0,0.0,0.0,0.0,0.0,0.0,0.0,0.0,0.0,0.0,0.0,0.0,0.0,0.0,0.0,0.0,0.0,-2.6646,-2.7841,-2.7993,-2.7729,-2.8498,-2.8699,-2.9028,-3.0654,-3.1219,-3.152,-3.2654,-3.3024,-3.3093,-3.3198,-3.3578,-3.3874,-3.3434,-3.4316,-3.5115,-3.4797,-3.5309,-3.5728,-3.5324,-3.6138,-3.6671,-3.598,-3.5595,-3.5883,-3.7379,-3.6239,-3.5647,-3.6648,-3.6573,-3.6194,-3.5575,-3.5431,-3.5413,-3.5471,-3.4713,-3.3972,-3.3406,-3.201,-3.0826,-2.9911,-2.9606,-2.9456,-2.9456,-2.9456,-2.9395,-2.9265,-2.9265,-2.9265,-2.9265,-2.9265,-2.9265,-2.9286,-2.9326,-2.9365,-2.9347,-2.9386,-2.9407,-2.9407,-2.9407,-2.9386,-2.9347,-2.9386,-2.9386,-2.9347,0.0,0.0,0.0,0.0,0.0,0.0,0.0,0.0,0.0,0.0,0.0,0.0,0.0,0.0,0.0,0.0,0.0,0.0,0.0,0.0,0.0,0.0,0.0,0.0,0.0,0.0,-0.8685,-0.8541,-1.0387,0.0,0.0,0.0,0.0,0.0,0.0,0.0,0.0,0.0,0.0,0.0,0.0,0.0,0.0,0.0,0.0,0.0,0.0,-2.7107,0.0,0.0,-2.7564,-2.7893,-2.8918,-2.9318,-2.9393,-2.9736,-3.0201,-3.0822,-3.1531,-3.2099,-3.2641,-3.3093,-3.3303,-3.3165,-3.2551,-3.3435,-3.4219,-3.3902,-3.4734,-3.5368,-3.501,-3.5641,-3.6215,-3.6359,-3.6301,-3.6689,-3.784,-3.6644,-3.5766,-3.5964,-3.4889,-3.4058,-3.3899,-3.3334,-3.3246,-3.3829,-3.3193,-3.3229,-3.4214,-3.2154,-3.0321,-2.8833,-2.8707,-2.8682,-2.8682,-2.8682,-2.8682,-2.867,-2.867,-2.867,-2.867,-2.867,-2.867,-2.8652,-2.8962,-2.9067,-2.9089,-2.9304,-2.9407,-2.9407,-2.9407,-2.9262,-2.9112,-2.9304,-2.9262,-2.9112,0.0,0.0,0.0,0.0,0.0,0.0,0.0,0.0,0.0,0.0,-0.8102,-0.7367,0.0,0.0,0.0,0.0,0.0,0.0,0.0,0.0,0.0,0.0,0.0,0.0,0.0,-0.7425,-0.7995,-0.8514,0.0,-1.037,-1.1065,-1.169,-1.2415,-1.327,-1.3796,-1.4762,0.0,0.0,0.0,0.0,0.0,0.0,0.0,0.0,0.0,0.0,0.0,-2.6569,-2.6629,0.0,-2.6776,-2.6814,-2.8777,-2.9215,-2.903,-2.938,-2.9752,-3.0058,-3.0332,-3.063,-3.1057,-3.1618,-3.1753,-3.1651,-3.1265,-3.2171,-3.2928,-3.2418,-3.3614,-3.4733,-3.4767,-3.5273,-3.581,-3.6199,-3.6224,-3.6387,-3.6936,-3.6347,-3.5561,-3.4782,-3.4038,-3.3294,-3.2518,-3.2137,-3.2085,-3.2449,-3.2137,-3.2354,-3.3351,-3.1273,-2.9593,-2.854,-2.8504,-2.8504,-2.8504,-2.8504,-2.8504,-2.8504,-2.8504,-2.8504,-2.8504,-2.8938,-2.8902,-2.8547,-2.91,-2.9138,-2.8761,-2.8879,-2.8925,-2.8925,-2.8925,-2.8855,-2.8761,-2.8879,-2.8855,-2.8761,0.0,0.0,0.0,0.0,0.0,0.0,0.0,-1.0104,-0.9716,-0.9716,-0.918,-0.8591,-0.802,-0.7495,0.0,0.0,0.0,0.0,0.0,0.0,0.0,0.0,0.0,0.0,0.0,0.0,0.0,-0.8592,-0.8822,0.0,0.0,0.0,0.0,0.0,-1.2941,-1.3791,-1.4958,-1.5265,0.0,0.0,0.0,-2.0052,0.0,0.0,0.0,0.0,0.0,-2.5588,-2.543,-2.6435,-2.6051,-2.554,-2.8114,-2.8505,-2.8103,-2.8584,-2.8969,-2.9268,-2.9268,-2.9317,-2.9566,-3.0133,-3.0207,-3.0137,-2.9993,-3.1004,-3.18,-3.1087,-3.2554,-3.3969,-3.404,-3.4294,-3.4731,-3.5425,-3.5355,-3.5416,-3.6151,-3.6051,-3.548,-3.4318,-3.3909,-3.3191,-3.1824,-3.1606,-3.1504,-3.1504,-3.1213,-3.1246,-3.1777,-3.0154,-2.8941,-2.8342,-2.8324,-2.8324,-2.8324,-2.8486,-2.8594,-2.8594,-2.8756,-2.8846,-2.8864,-2.9503,-2.9431,-2.8882,-2.9404,-2.9268,-2.8662,-2.8551,-2.8504,-2.8504,-2.8504,-2.846,-2.8428,-2.8478,-2.846,-2.841,0.0,0.0,0.0,0.0,0.0,0.0,0.0,-1.0561,-1.0498,-1.0498,-1.0003,-0.9445,-0.8927,-0.8267,0.0,0.0,0.0,0.0,0.0,0.0,0.0,0.0,0.0,0.0,0.0,0.0,0.0,-0.8664,-0.9176,0.0,0.0,0.0,0.0,0.0,0.0,-1.2947,-1.4381,-1.4374,0.0,0.0,0.0,0.0,0.0,0.0,0.0,0.0,0.0,-2.4259,-2.4474,-2.5916,-2.5658,-2.4923,-2.6635,-2.69,-2.6519,-2.6133,-2.7197,-2.8417,-2.8532,-2.8826,-2.9129,-2.9504,-2.9476,-2.9261,-2.8842,-3.0137,-3.1278,-3.0582,-3.1977,-3.3113,-3.2443,-3.1879,-3.2045,-3.3728,-3.3346,-3.3844,-3.6793,-3.6441,-3.5856,-3.571,-3.4541,-3.3379,-3.2485,-3.1859,-3.1504,-3.1504,-3.0185,-2.9557,-2.985,-2.926,-2.8587,-2.7806,-2.7771,-2.7771,-2.7771,-2.8511,-2.8863,-2.8881,-2.962,-2.9941,-2.9973,-3.0043,-3.0011,-2.992,-2.9532,-2.9308,-2.9211,-2.8709,-2.8504,-2.8504,-2.8504,-2.835,-2.8166,-2.8428,-2.835,-2.8166,0.0,0.0,0.0,0.0,0.0,0.0,0.0,-1.0624,-1.0624,-1.0624,-1.0399,-1.0052,-0.9576,-0.897,-0.8246,0.0,0.0,0.0,0.0,0.0,0.0,0.0,0.0,0.0,0.0,0.0,-0.8665,-0.9451,-1.0005,0.0,0.0,0.0,0.0,0.0,0.0,-1.2735,-1.352,-1.4182,0.0,0.0,0.0,0.0,0.0,0.0,0.0,0.0,0.0,0.0,-2.3533,-2.4108,-2.4006,-2.3722,-2.3902,-2.4565,-2.5277,-2.5411,-2.5955,-2.6702,-2.7447,-2.7803,-2.8244,-2.951,-2.8906,-2.8201,-2.8923,-2.9113,-2.9218,-2.9259,-3.0473,-3.142,-3.1121,-3.1099,-3.1385,-3.2058,-3.2239,-3.274,-3.4003,-3.4235,-3.4105,-3.3648,-3.3014,-3.2304,-3.156,-3.1116,-3.0734,-3.0281,-2.9424,-2.8943,-2.9034,-2.8234,-2.7604,-2.7293,-2.7882,-2.8171,-2.8171,-2.9148,-2.9632,-2.9632,-2.9948,-3.0106,-3.0124,-3.0562,-3.0527,-3.0106,-3.0339,-2.9925,-2.9024,-2.8834,-2.8464,-2.802,-2.802,-2.7936,-2.7869,-2.7964,-2.7936,-2.7869,0.0,0.0,0.0,0.0,0.0,0.0,-1.0624,-1.0624,-1.0624,-1.0624,-1.0624,-1.0412,-0.9832,-0.9536,-0.8929,-0.7828,0.0,0.0,0.0,0.0,0.0,0.0,0.0,0.0,0.0,0.0,-0.899,-0.9988,-1.0436,-1.1208,0.0,0.0,-1.1781,-1.1929,0.0,0.0,0.0,0.0,0.0,0.0,0.0,0.0,0.0,0.0,0.0,0.0,0.0,0.0,0.0,0.0,0.0,-2.2576,-2.236,-2.2981,0.0,-2.4422,-2.4848,-2.5406,-2.6311,-2.6554,-2.6968,-2.864,-2.7876,-2.7155,-2.8559,-2.8274,-2.7847,-2.8386,-2.936,-3.0116,-2.994,-3.0356,-3.0634,-3.0394,-3.1259,-3.2003,-3.2182,-3.2798,-3.3087,-3.2767,-3.2249,-3.1678,-3.094,-3.0521,-2.9987,-2.9247,-2.8838,-2.8611,-2.8611,-2.7653,-2.7165,-2.7315,-2.7992,-2.8351,-2.8384,-2.9344,-2.9948,-3.0158,-3.0385,-3.0574,-3.0641,-3.1165,-3.1198,-3.0808,-3.1072,-3.058,-2.9544,-2.9088,-2.8561,-2.8035,-2.7789,-2.7701,-2.7701,-2.7701,-2.7701,-2.7701,0.0,0.0,0.0,0.0,0.0,0.0,0.0,-1.0624,-1.0624,-1.0624,-1.0624,-1.0412,-0.9832,-1.0027,-0.965,-0.8377,0.0,0.0,0.0,0.0,0.0,0.0,0.0,0.0,0.0,0.0,-0.8912,-0.9895,-1.0265,-1.1019,-1.2009,-1.1781,-1.1706,-1.1706,0.0,0.0,0.0,0.0,0.0,0.0,0.0,0.0,0.0,0.0,0.0,0.0,0.0,0.0,0.0,0.0,0.0,0.0,0.0,0.0,0.0,0.0,-2.3741,-2.4825,-2.5318,-2.5089,-2.5175,-2.6516,-2.6242,-2.609,-2.7344,-2.7664,-2.7824,-2.841,-2.9007,-2.9321,-2.8806,-2.9156,-2.9318,-2.8799,-3.0238,-3.1665,-3.2402,-3.2872,-3.3451,-3.4184,-3.3008,-3.1836,-3.116,-3.033,-2.9502,-2.8773,-2.8516,-2.8412,-2.8412,-2.7699,-2.754,-2.8066,-2.8015,-2.8032,-2.8101,-2.8835,-2.9587,-3.0302,-3.109,-3.162,-3.1877,-3.1877,-3.2091,-3.2335,-3.1528,-3.1177,-3.1054,-2.9527,-2.8895,-2.8807,-2.8017,-2.7701,-2.7701,-2.7701,-2.7701,-2.7701,0.0,0.0,0.0,0.0,0.0,0.0,0.0,-1.0624,-1.0624,-1.0624,-1.0735,-1.0823,-1.0652,-1.0604,-1.0408,-0.9986,0.0,0.0,0.0,0.0,0.0,0.0,0.0,0.0,0.0,0.0,0.0,-1.0726,-1.1397,-1.1922,-1.2224,-1.215,-1.2263,-1.2454,-1.2454,-1.2681,0.0,0.0,0.0,0.0,0.0,0.0,-1.9512,0.0,0.0,0.0,0.0,0.0,0.0,0.0,0.0,0.0,0.0,0.0,0.0,0.0,-2.2174,-2.3417,-2.4307,-2.4675,-2.5088,-2.6225,-2.5865,-2.5606,-2.7067,-2.6773,-2.6518,-2.7588,-2.8008,-2.8044,-2.7467,-2.7823,-2.8177,-2.8046,-2.8783,-2.9813,-3.0969,-3.1649,-3.2285,-3.2965,-3.2182,-3.1254,-3.0448,-2.9736,-2.8942,-2.8036,-2.7908,-2.801,-2.8373,-2.8196,-2.7906,-2.7573,-2.819,-2.8569,-2.8569,-2.9549,-3.0372,-3.1124,-3.1363,-3.1542,-3.1617,-3.1617,-3.1691,-3.1765,-3.1723,-3.1394,-3.0871,-3.0059,-2.9404,-2.8825,-2.8017,-2.7701,-2.7771,-2.8315,-2.8526,-2.8596,0.0,0.0,0.0,0.0,0.0,0.0,0.0,-1.0624,-1.0624,-1.0624,-1.0722,-1.0868,-1.0982,-1.0998,-1.0895,-1.0713,0.0,0.0,0.0,0.0,0.0,0.0,0.0,0.0,0.0,0.0,-1.0906,-1.1111,-1.2039,-1.2412,-1.2305,-1.2305,-1.2458,-1.2822,-1.2822,-1.3036,0.0,0.0,0.0,0.0,0.0,0.0,-1.91,0.0,0.0,0.0,0.0,0.0,0.0,0.0,0.0,0.0,0.0,0.0,0.0,0.0,-2.1013,-2.2195,-2.3262,-2.3764,-2.4293,-2.5337,-2.5036,-2.4956,-2.6561,-2.6214,-2.5858,-2.7193,-2.7392,-2.718,-2.6756,-2.723,-2.7649,-2.7626,-2.8324,-2.9275,-3.0297,-3.1036,-3.1728,-3.2452,-3.16,-3.0708,-2.9898,-2.895,-2.8165,-2.7545,-2.7412,-2.7533,-2.7907,-2.8289,-2.8056,-2.7092,-2.811,-2.8645,-2.8645,-2.9303,-3.0159,-3.1117,-3.1117,-3.1196,-3.1329,-3.1329,-3.1368,-3.1504,-3.1785,-3.1634,0.0,-3.0727,-3.0229,-2.9685,-2.8912,-2.8614,-2.8667,-2.9176,-2.9351,-2.9421,0.0,0.0,0.0,0.0,0.0,0.0,0.0,0.0,0.0,0.0,-1.0645,-1.0695,-1.0962,-1.1249,-1.1266,0.0,0.0,0.0,0.0,0.0,0.0,0.0,0.0,0.0,0.0,-1.0959,-1.1335,-1.1131,-1.2211,-1.2512,-1.2238,-1.2265,-1.2452,-1.2856,-1.2856,-1.339,0.0,0.0,0.0,0.0,0.0,0.0,0.0,0.0,0.0,0.0,0.0,0.0,0.0,0.0,0.0,0.0,0.0,0.0,0.0,0.0,0.0,0.0,0.0,-2.2517,-2.2974,-2.3852,-2.3821,-2.407,-2.58,-2.5759,0.0,0.0,0.0,-2.6609,-2.6609,-2.72,-2.7669,-2.755,-2.8587,-2.9659,-3.0261,-3.0968,-3.1667,-3.2258,-3.12,-3.0182,-2.951,-2.8145,-2.7226,-2.7211,-2.6998,-2.6925,-2.7026,-2.7971,-2.7923,-2.6581,-2.7679,-2.8357,-2.8456,-2.8506,-2.9251,-3.0675,-3.0626,-3.0717,-3.1059,-3.1009,-3.1117,-3.1428,-3.1711,-3.1821,-3.1806,-3.1323,-3.1128,-3.1058,-3.0322,-3.0024,-3.0042,-3.0127,-3.0144,-3.0162,0.0,0.0,0.0,0.0,0.0,0.0,0.0,0.0,0.0,0.0,0.0,-1.0915,-1.0982,-1.1249,0.0,0.0,0.0,0.0,0.0,0.0,0.0,0.0,0.0,0.0,0.0,-1.1097,-1.1267,-1.1351,-1.1627,-1.1703,-1.1637,-1.1864,-1.2378,-1.31,-1.31,0.0,0.0,0.0,0.0,0.0,0.0,0.0,0.0,0.0,0.0,0.0,-1.8513,-1.8137,0.0,0.0,0.0,0.0,0.0,0.0,0.0,0.0,-1.9603,-2.0469,-2.0498,0.0,-2.2334,-2.2703,-2.2853,-2.3114,0.0,0.0,0.0,0.0,0.0,0.0,-2.5917,-2.6817,-2.7709,-2.8153,-2.8435,-2.8866,-2.9533,-3.0252,-3.0813,-3.094,-3.0216,-2.9302,-2.8247,-2.7339,-2.6682,-2.6458,-2.5991,-2.5878,-2.624,-2.6481,-2.65,-2.6165,-2.671,-2.7699,-2.9152,-2.9731,-3.0742,-3.2166,-3.162,-3.1355,-3.144,-3.0858,-3.0675,-3.0757,-3.1078,-3.1196,-3.1184,-3.072,-3.052,-3.0434,-2.9626,-2.9334,-2.9437,-3.03,-3.0629,-3.075,0.0,0.0,0.0,0.0,0.0,0.0,0.0,0.0,0.0,0.0,0.0,0.0,0.0,0.0,0.0,0.0,0.0,0.0,0.0,0.0,0.0,0.0,0.0,0.0,0.0,-1.1632,-1.1642,-1.163,-1.163,-1.163,-1.163,-1.1797,-1.2351,-1.322,-1.3494,0.0,0.0,0.0,0.0,0.0,-1.6553,0.0,0.0,0.0,0.0,0.0,-1.8115,-1.7734,0.0,-1.7009,-1.6542,-1.6048,0.0,0.0,0.0,0.0,-1.8515,-1.9412,-1.9183,-2.0154,-2.1391,-2.1701,-2.2157,-2.2626,-2.2958,0.0,0.0,0.0,0.0,0.0,-2.5892,-2.62,-2.6827,-2.8556,-2.8556,-2.8647,-2.9361,-2.9822,-3.015,-3.015,-2.9562,-2.8727,-2.7741,-2.674,-2.5961,-2.55,-2.5166,-2.4948,-2.491,-2.571,-2.5915,-2.5233,-2.6775,-2.7948,-2.8608,-2.8907,-2.9764,-3.1172,-3.0477,-3.0294,-3.0593,-3.0195,-3.0195,-3.0526,-3.0855,-3.1015,-3.0982,-3.087,-3.0868,-3.0817,-3.0353,-3.0182,-3.0287,-3.0881,-3.1126,-3.1214,0.0,0.0,0.0,0.0,0.0,0.0,0.0,0.0,0.0,0.0,0.0,0.0,0.0,0.0,0.0,0.0,0.0,0.0,0.0,0.0,0.0,0.0,0.0,-1.1465,-1.2238,-1.2238,-1.2091,-1.1804,-1.1804,-1.1824,-1.187,-1.187,-1.2351,-1.3233,-1.3774,0.0,0.0,0.0,-1.4351,-1.4703,-1.5202,0.0,0.0,0.0,0.0,0.0,0.0,0.0,0.0,-1.6264,-1.59,-1.5469,-1.5258,0.0,0.0,0.0,0.0,0.0,-1.7917,-1.9036,-2.037,-2.0853,-2.1605,-2.2215,-2.2377,0.0,0.0,0.0,0.0,-2.3745,-2.5865,-2.5782,-2.624,-2.8864,-2.8778,-2.8673,-2.9363,-2.9421,-2.9373,-2.9373,-2.8806,-2.8102,-2.7396,-2.6309,-2.5334,-2.4669,-2.4596,-2.4328,-2.364,-2.5118,-2.5444,-2.4208,-2.6809,-2.7971,-2.747,-2.7646,-2.8439,-2.9748,-2.9052,-2.9019,-2.9582,-2.9582,-2.993,-3.0526,-3.0814,-3.0935,-3.0935,-3.1235,-3.1351,-3.1351,-3.1351,-3.1351,-3.1351,-3.1389,-3.1428,-3.1428,0.0,0.0,0.0,0.0,0.0,0.0,0.0,0.0,0.0,0.0,0.0,0.0,0.0,0.0,0.0,0.0,0.0,0.0,0.0,0.0,0.0,0.0,-1.1484,-1.1378,-1.1937,-1.1937,-1.179,-1.149,-1.149,-1.1623,-1.187,-1.187,-1.2351,-1.3227,-1.3561,-1.3848,-1.4088,-1.4088,-1.4146,-1.4273,-1.5047,0.0,0.0,0.0,0.0,0.0,0.0,0.0,0.0,-1.5604,-1.5294,-1.4799,-1.5404,0.0,0.0,0.0,0.0,0.0,-1.6679,-1.7956,-1.9545,-2.0391,-2.1055,-2.1431,-2.1215,-2.1548,0.0,0.0,-2.2236,-2.3851,-2.4835,-2.6544,-2.82,-2.9144,-2.8778,-2.8625,-2.9276,-2.8475,-2.7842,-2.7842,-2.7332,-2.6739,-2.6133,-2.5841,-2.5379,-2.4752,-2.465,-2.4328,-2.364,-2.3876,-2.3949,-2.3696,-2.4879,-2.5735,-2.6284,-2.8756,-3.0444,-3.1229,-3.0543,-3.0245,-3.0344,-3.0344,-3.041,-3.0526,-3.0551,-3.0568,-3.0551,-3.0634,-3.0634,-3.0634,-3.0634,-3.0634,-3.0675,-3.0975,-3.1095,-3.1134,0.0,0.0,0.0,0.0,0.0,0.0,0.0,0.0,0.0,0.0,0.0,0.0,0.0,0.0,0.0,0.0,0.0,0.0,0.0,0.0,0.0,0.0,-1.1702,-1.1644,-1.187,-1.171,-1.1563,-1.1423,-1.1423,-1.1577,-1.1877,-1.2365,-1.2819,-1.3227,-1.3681,-1.3961,-1.4088,-1.4088,-1.4088,-1.4166,0.0,0.0,0.0,0.0,0.0,0.0,0.0,0.0,0.0,0.0,-1.416,-1.4003,-1.4418,0.0,0.0,0.0,0.0,0.0,-1.636,-1.7338,-1.8555,-1.9261,-2.0418,-2.125,-2.0314,-2.0664,-2.1193,-2.1117,-2.2024,-2.3394,-2.5339,-2.6577,-2.7893,-2.9477,-2.8974,-2.8477,-2.8752,-2.7798,-2.7066,-2.7066,-2.6852,-2.6585,-2.6277,-2.5881,-2.54,-2.4684,-2.4298,-2.3939,-2.361,-2.3595,-2.3595,-2.3595,-2.4625,-2.544,-2.5986,-2.7575,-2.8704,-2.9268,-2.8539,-2.8605,-2.9367,-2.9367,-2.9781,-3.0526,-3.0526,-3.0526,-3.0526,-3.0526,-3.0526,-3.0526,-3.0526,-3.0526,-3.0526,-3.0675,-3.0733,-3.0757,0.0,0.0,0.0,0.0,0.0,0.0,0.0,0.0,0.0,0.0,0.0,0.0,0.0,0.0,0.0,0.0,0.0,0.0,0.0,0.0,-1.183,-1.1964,-1.1837,-1.173,-1.1663,-1.151,-1.1423,-1.1423,-1.1496,-1.1677,-1.1991,-1.2746,-1.314,-1.3233,-1.3754,-1.4021,-1.4088,-1.4088,-1.4088,-1.4088,0.0,0.0,0.0,0.0,0.0,0.0,0.0,0.0,0.0,0.0,0.0,0.0,0.0,0.0,0.0,-1.4709,-1.5342,-1.601,-1.5918,-1.6778,-1.7736,-1.7734,0.0,-2.0845,-1.9976,-2.0336,-2.1152,-2.1964,-2.2399,-2.3375,-2.584,-2.6531,-2.7365,-2.9412,-2.8856,-2.8177,-2.8177,-2.7314,-2.6621,-2.6491,-2.6356,-2.6249,-2.6185,-2.5687,-2.5118,-2.4473,-2.4045,-2.3774,-2.361,-2.3595,-2.3595,-2.3595,-2.4582,-2.5284,-2.5601,-2.627,-2.6836,-2.73,-2.6717,-2.7131,-2.8428,-2.8539,-2.9317,-3.0526,-3.0526,-3.0526,-3.0526,-3.0526,-3.0526,-3.0526,-3.0526,-3.0526,-3.0526,-3.0526,-3.0526,-3.0526,0.0,0.0,0.0,0.0,0.0,0.0,0.0,0.0,0.0,0.0,0.0,0.0,0.0,0.0,0.0,0.0,0.0,0.0,0.0,0.0,-1.1703,-1.2245,-1.1744,-1.1329,-1.1062,-1.1296,-1.1423,-1.1423,-1.1703,-1.1984,-1.2278,-1.2619,-1.2933,-1.3227,-1.3534,-1.3828,-1.4088,-1.4088,-1.4088,-1.4173,-1.4985,0.0,0.0,0.0,0.0,0.0,0.0,0.0,0.0,0.0,0.0,0.0,0.0,0.0,-1.3614,-1.3614,-1.4347,-1.5111,-1.4744,-1.6175,-1.7378,-1.5805,-1.7458,-1.9698,-2.0608,-2.0884,-2.124,-2.2411,-2.3565,-2.4694,-2.5624,-2.6681,-2.7678,-2.8399,-2.7994,-2.7589,-2.7589,-2.7066,-2.6478,-2.5942,-2.5329,-2.4943,-2.4919,-2.4812,-2.4534,-2.3887,-2.4264,-2.4283,-2.3625,-2.3595,-2.3595,-2.3595,-2.4097,-2.4379,-2.4421,-2.5855,-2.6836,-2.7317,-2.7267,-2.7649,-2.8445,-2.9036,-2.9764,-3.0526,-3.0526,-3.0526,-3.0526,-3.0526,-3.0526,-3.0526,-3.0526,-3.0526,-3.0526,-3.0526,-3.0526,-3.0526,0.0,0.0,0.0,0.0,0.0,0.0,0.0,0.0,0.0,0.0,0.0,0.0,0.0,0.0,0.0,0.0,0.0,0.0,0.0,0.0,-1.1256,-1.1476,-1.1276,-1.1022,-1.0728,-1.1182,-1.1516,-1.1703,-1.1817,-1.2017,-1.2311,-1.2605,-1.2913,-1.3233,-1.3707,-1.3881,-1.3808,-1.3808,-1.3808,-1.3808,-1.4131,-1.4731,0.0,0.0,0.0,0.0,0.0,0.0,0.0,0.0,-1.2878,-1.313,0.0,-1.3571,-1.413,-1.413,-1.4599,-1.5065,-1.4919,-1.5882,-1.6712,-1.6124,-1.7412,0.0,0.0,-1.9713,-2.0378,-2.1921,-2.3219,-2.4664,-2.6458,-2.6894,-2.7183,-2.7758,-2.7366,-2.7,-2.7,-2.6479,-2.5974,-2.5748,-2.5466,-2.5315,-2.5317,-2.4897,-2.453,-2.4292,-2.409,-2.3879,-2.361,-2.3595,-2.3595,-2.3595,-2.3767,-2.3994,-2.4302,-2.5573,-2.643,-2.6875,-2.7613,-2.834,-2.9036,-2.9284,-2.9814,-3.0526,-3.0526,-3.0526,-3.0526,-3.0526,-3.0526,-3.0526,-3.0526,-3.0808,-3.1113,-3.0692,-3.0808,-3.1139,0.0,0.0,0.0,0.0,0.0,0.0,0.0,0.0,0.0,0.0,0.0,0.0,0.0,0.0,0.0,0.0,0.0,0.0,0.0,-1.0995,-1.1035,-1.1129,-1.1042,-1.0942,-1.0835,-1.1136,-1.139,-1.159,-1.1683,-1.183,-1.2037,-1.2425,-1.2719,-1.2946,-1.3547,-1.3701,-1.3507,-1.3507,-1.3716,-1.4042,-1.436,-1.5183,0.0,0.0,0.0,0.0,0.0,0.0,0.0,0.0,-1.2818,0.0,0.0,0.0,-1.4198,-1.4198,-1.4508,-1.4909,-1.4909,-1.5505,-1.6141,-1.6287,0.0,0.0,-1.8791,-1.9401,-2.0257,-2.1875,-2.3227,-2.4648,-2.6401,-2.6543,-2.6412,-2.6452,-2.6282,-2.6073,-2.589,-2.5468,-2.5175,-2.5175,-2.5093,-2.502,-2.5013,-2.4573,-2.4288,-2.4283,-2.3864,-2.3595,-2.3595,-2.3595,-2.3595,-2.3595,-2.3804,-2.4055,-2.4371,-2.5915,-2.6818,-2.7106,-2.8434,-2.9185,-2.94,-2.9185,-2.9615,-3.051,-3.0261,-3.0294,-3.0526,-3.0526,-3.0526,-3.0526,-3.0526,-3.0782,-3.1163,-3.0709,-3.0841,-3.1205,0.0,0.0,0.0,0.0,0.0,0.0,0.0,0.0,0.0,0.0,0.0,0.0,0.0,0.0,0.0,0.0,0.0,0.0,0.0,-1.0989,-1.1116,-1.1403,-1.1142,-1.1122,-1.141,-1.1136,-1.0995,-1.0995,-1.1283,-1.1423,-1.1436,-1.2024,-1.2298,-1.2325,-1.2933,-1.3206,-1.32,-1.32,-1.3833,-1.4977,-1.5936,-1.6941,-1.7992,0.0,0.0,0.0,0.0,0.0,0.0,0.0,-1.2512,-1.2512,0.0,0.0,0.0,-1.3511,-1.401,-1.4515,-1.4515,-1.5084,-1.5716,-1.5856,-1.6838,-1.8037,-1.9121,-2.0157,-2.124,-2.2445,-2.3784,-2.4798,-2.4992,-2.5419,-2.5419,-2.4282,-2.457,-2.4739,-2.4191,-2.4016,-2.4001,-2.4014,-2.3878,-2.3782,-2.3782,-2.3688,-2.361,-2.361,-2.361,-2.3625,-2.3625,-2.3625,-2.3625,-2.3625,-2.4283,-2.4597,-2.4597,-2.6912,-2.8091,-2.8136,-2.9727,-3.0145,-2.94,-2.8704,-2.9168,-3.0477,-2.9731,-2.9831,-3.051,-3.0526,-3.0526,-3.0526,-3.0526,-3.0526,-3.0526,-3.0526,-3.0526,-3.0526,0.0,0.0,0.0,0.0,0.0,0.0,0.0,0.0,0.0,0.0,0.0,0.0,0.0,0.0,0.0,0.0,0.0,0.0,0.0,-1.0688,-1.0728,-1.0815,-1.0735,-1.0728,-1.0815,-1.0735,-1.0889,-1.1296,-1.1182,-1.1229,-1.143,-1.1817,-1.1997,-1.2096,-1.3058,-1.3514,-1.3457,-1.3822,-1.4456,-1.5087,-1.5644,-1.6354,-1.7124,0.0,0.0,0.0,0.0,0.0,0.0,0.0,0.0,0.0,0.0,0.0,0.0,-1.4198,-1.4327,-1.4515,-1.4515,-1.5383,-1.6214,-1.5979,-1.7396,-1.8829,-1.891,-1.9082,-1.9889,-2.198,-2.2054,-2.2315,-2.4066,-2.3838,-2.3276,-2.2936,-2.3041,-2.3405,-2.3995,-2.3656,-2.3607,-2.441,-2.3981,-2.3674,-2.3674,-2.406,-2.4313,-2.4313,-2.4747,-2.5016,-2.5016,-2.5016,-2.5016,-2.5016,-2.5211,-2.5315,-2.5315,-2.7145,-2.8091,-2.8136,-2.9727,-3.041,-3.0195,-2.998,-2.9831,-2.9731,-2.9499,-2.9533,-2.9781,-3.0311,-3.0526,-3.0526,-3.0526,-3.0841,-3.1196,-3.0709,-3.0858,-3.1179,0.0,0.0,0.0,0.0,0.0,0.0,0.0,0.0,0.0,0.0,0.0,0.0,0.0,0.0,0.0,0.0,0.0,0.0,0.0,0.0,-1.0624,-1.0624,-1.0624,-1.0624,-1.0624,-1.0624,-1.0735,-1.1082,-1.0909,-1.0909,-1.1089,-1.1383,-1.1523,-1.1612,-1.2435,-1.2906,-1.3082,-1.3427,-1.4191,-1.5176,-1.5405,-1.6026,-1.6806,0.0,0.0,0.0,0.0,0.0,0.0,0.0,0.0,0.0,0.0,0.0,0.0,-1.4734,-1.4784,-1.4852,-1.502,-1.5923,-1.6747,-1.6737,-1.7904,-1.8986,-1.8785,-1.8977,-1.9704,-2.1432,-2.1272,-2.1348,-2.3025,-2.2821,-2.2336,-2.206,-2.223,-2.2709,-2.3608,-2.3543,-2.3809,-2.4982,-2.4693,-2.4403,-2.4403,-2.4777,-2.5016,-2.5016,-2.539,-2.5615,-2.5615,-2.5615,-2.5615,-2.5615,-2.5869,-2.6004,-2.6004,-2.7658,-2.8503,-2.8503,-2.9858,-3.0526,-3.051,-3.0212,-2.9996,-2.9831,-2.9549,-2.9251,-2.9036,-2.9483,-2.9831,-3.0079,-3.0079,-3.0526,-3.1097,-3.0675,-3.0808,-3.1123,0.0,0.0,0.0,0.0,0.0,0.0,0.0,0.0,0.0,0.0,0.0,0.0,0.0,0.0,0.0,0.0,0.0,0.0,0.0,0.0,-1.0624,-1.0624,-1.0624,-1.0624,-1.0624,-1.0624,-1.0624,-1.0624,-1.0624,-1.0624,-1.0631,-1.0855,-1.0982,-1.0962,-1.1384,-1.192,-1.246,-1.2594,-1.366,-1.5231,-1.5265,-1.5969,-1.6876,-1.6517,0.0,0.0,0.0,0.0,0.0,0.0,0.0,0.0,0.0,-1.4625,-1.4675,-1.5059,-1.5167,-1.5294,-1.574,-1.6548,-1.7378,-1.7873,-1.8322,-1.8617,-1.8718,-1.9408,-2.0138,-2.0808,-2.1122,-2.139,-2.196,-2.2129,-2.206,-2.159,-2.1904,-2.2498,-2.3185,-2.358,-2.4269,-2.5437,-2.5568,-2.5525,-2.5525,-2.563,-2.5689,-2.5689,-2.5749,-2.5794,-2.5794,-2.5794,-2.5749,-2.5689,-2.6273,-2.6606,-2.6546,-2.8171,-2.9025,-2.9071,-2.9995,-3.0468,-3.0493,-2.9831,-2.9814,-3.0278,-2.9615,-2.892,-2.8329,-2.8395,-2.8754,-2.9317,-2.9317,-2.9764,-3.0427,-3.0427,-3.046,-3.0526,0.0,0.0,0.0,0.0,0.0,0.0,0.0,0.0,0.0,0.0,0.0,0.0,0.0,0.0,0.0,0.0,0.0,0.0,0.0,0.0,-1.0624,-1.0624,-1.0624,-1.0624,-1.0624,-1.0624,-1.0624,-1.0624,-1.0624,-1.0624,-1.0631,-1.0855,-1.0868,-1.0725,-1.2042,-1.2767,-1.3034,-1.4069,-1.4932,-1.5649,-1.5909,-1.6492,-1.7016,-1.6911,-1.6876,0.0,0.0,0.0,0.0,0.0,0.0,0.0,-1.5584,-1.5362,-1.5059,-1.5177,-1.5167,-1.5303,-1.576,-1.684,-1.7873,-1.7996,-1.8326,-1.8794,-1.9127,-1.9124,-1.9177,-1.987,-2.0323,-2.0713,-2.0982,-2.1041,-2.1184,-2.1459,-2.1237,-2.1725,-2.3566,-2.3056,-2.3108,-2.4665,-2.482,-2.4837,-2.4837,-2.5779,-2.6378,-2.6378,-2.6856,-2.7156,-2.7156,-2.7156,-2.6916,-2.6393,-2.6512,-2.6509,-2.6276,-2.7637,-2.8475,-2.8796,-2.9578,-3.0156,-3.0468,-3.0361,-2.9748,-2.8837,-2.8671,-2.8174,-2.7599,-2.818,-2.8456,-2.8605,-2.8605,-2.9036,-2.9648,-2.9648,-3.0013,-3.0526,0.0,0.0,0.0,0.0,0.0,0.0,0.0,0.0,0.0,0.0,0.0,0.0,0.0,0.0,0.0,0.0,0.0,0.0,0.0,0.0,0.0,-1.1538,-1.1538,-1.1538,-1.1538,-1.1178,-1.1052,-1.1052,-1.0744,-1.0624,-1.0624,-1.0715,-1.0701,-1.0631,-1.1784,-1.2484,-1.2861,-1.3925,-1.4612,-1.5139,-1.5359,-1.5757,-1.6167,-1.6158,-1.6331,-1.6527,-1.6306,0.0,0.0,0.0,0.0,0.0,0.0,0.0,-1.5575,-1.5806,-1.5874,-1.6032,-1.6724,-1.7599,-1.8312,-1.8312,-1.8678,-1.8982,-1.8785,-1.872,-1.8742,-1.8854,-1.9483,-2.0081,-2.0202,-2.0501,-2.0804,-2.1054,-2.1321,-2.1961,-2.3364,-2.3433,-2.3778,-2.4954,-2.5091,-2.5091,-2.5091,-2.6004,-2.6587,-2.6587,-2.72,-2.749,-2.7126,-2.7096,-2.6797,-2.6138,-2.6123,-2.6038,-2.5894,-2.7001,-2.7672,-2.787,-2.8511,-2.89,-2.9182,-2.9733,-2.94,-2.8395,-2.8047,-2.7429,-2.68,-2.7181,-2.7545,-2.7881,-2.7881,-2.8489,-2.9417,-2.9417,-2.988,-3.0526,0.0,0.0,0.0,0.0,0.0,0.0,0.0,0.0,0.0,0.0,0.0,0.0,0.0,0.0,0.0,0.0,0.0,0.0,0.0,0.0,0.0,0.0,-1.2512,-1.2512,-1.2512,-1.1965,-1.1663,-1.1663,-1.1178,-1.0926,-1.0926,-1.0681,-1.0688,-1.0807,-1.1421,-1.2027,-1.2696,-1.3381,-1.401,-1.4506,-1.4565,-1.4949,-1.5449,-1.543,-1.5798,-1.6273,-1.6192,-1.6161,-1.6161,-1.6161,0.0,0.0,0.0,0.0,-1.6104,-1.6513,-1.657,-1.6789,-1.7636,-1.8278,-1.8709,-1.8796,-1.9058,-1.9091,-1.8305,-1.8359,-1.8469,-1.8086,-1.893,-1.9653,-1.9569,-2.0164,-2.0738,-2.083,-2.1512,-2.2219,-2.2895,-2.37,-2.4457,-2.507,-2.5314,-2.5435,-2.5435,-2.6033,-2.6422,-2.6422,-2.6916,-2.6991,-2.6452,-2.6422,-2.6123,-2.5465,-2.5435,-2.5437,-2.5363,-2.6321,-2.6814,-2.6814,-2.7345,-2.7574,-2.7591,-2.8526,-2.8642,-2.8196,-2.7582,-2.6866,-2.622,-2.622,-2.6568,-2.7135,-2.7267,-2.8075,-2.9251,-2.9367,-2.988,-3.0526,0.0,0.0,0.0,0.0,0.0,0.0,0.0,0.0,0.0,0.0,0.0,0.0,0.0,0.0,0.0,0.0,0.0,0.0,-1.1949,0.0,0.0,-1.2512,-1.2512,-1.2512,-1.2512,-1.2389,-1.2389,-1.2389,-1.2266,-1.2266,-1.2205,-1.1115,-1.087,-1.1421,-1.2089,-1.2757,-1.339,-1.407,-1.4446,-1.4565,-1.4951,-1.5635,-1.6407,-1.643,-1.6948,-1.7673,-1.7251,-1.7099,-1.7099,-1.7099,-1.7099,0.0,0.0,0.0,-1.6513,-1.657,-1.657,-1.6732,-1.7265,-1.8029,-1.8785,-1.9211,-1.9058,-1.8753,-1.8632,-1.8338,-1.8086,-1.8021,-1.893,-1.9557,-1.9167,-1.9964,-2.0869,-2.1315,-2.1143,-2.1276,-2.2274,-2.2436,-2.2662,-2.3196,-2.4118,-2.4716,-2.4716,-2.536,-2.5734,-2.5734,-2.5824,-2.5839,-2.5749,-2.5734,-2.5435,-2.4731,-2.4716,-2.4656,-2.4495,-2.5597,-2.6129,-2.6145,-2.6846,-2.7174,-2.71,-2.7026,-2.7158,-2.745,-2.735,-2.6866,-2.622,-2.622,-2.627,-2.6419,-2.7068,-2.7831,-2.8588,-2.9201,-2.988,-3.0526,0.0,0.0,0.0,0.0,0.0,0.0,0.0,0.0,0.0,0.0,0.0,0.0,0.0,0.0,0.0,-1.3131,-1.3488,-1.388,-1.4099,-1.4046,-1.4136,-1.4364,-1.4136,-1.4016,-1.4016,-1.3364,-1.307,-1.307,-1.2696,-1.2512,-1.2512,-1.1903,-1.1779,-1.2089,-1.2765,-1.3373,-1.3923,-1.4597,-1.501,-1.5303,-1.5526,-1.6206,-1.7031,-1.7054,-1.769,-1.8548,-1.8328,-1.8236,-1.8193,-1.7854,-1.7963,-1.8182,-1.7854,0.0,0.0,0.0,-1.7245,-1.7084,-1.7567,-1.8219,-1.8742,-1.896,-1.8851,-1.8687,-1.8687,-1.8338,-1.801,-1.801,-1.8711,-1.9251,-1.9035,-1.9926,-2.0791,-2.0989,-2.1057,-2.1274,-2.1727,-2.1993,-2.2314,-2.2844,-2.3332,-2.3733,-2.3999,-2.4657,-2.5061,-2.5061,-2.5405,-2.545,-2.5076,-2.5061,-2.4747,-2.4073,-2.4059,-2.3996,-2.3909,-2.4663,-2.5066,-2.5066,-2.5378,-2.5519,-2.5461,-2.5356,-2.6037,-2.7317,-2.7317,-2.7135,-2.6816,-2.6816,-2.6816,-2.6833,-2.7184,-2.7765,-2.8456,-2.9152,-2.988,-3.0526,0.0,0.0,0.0,0.0,0.0,0.0,0.0,0.0,0.0,0.0,0.0,0.0,0.0,0.0,0.0,0.0,-1.4867,-1.5679,-1.627,-1.5853,-1.5738,-1.6093,-1.5633,-1.541,-1.541,-1.451,-1.4043,-1.3923,-1.3425,-1.3122,-1.3009,-1.3009,-1.3009,-1.3009,-1.3502,-1.3983,-1.451,-1.5108,-1.5575,-1.5931,-1.6208,-1.6743,-1.7446,-1.7677,-1.8309,-1.8987,-1.8987,-1.8987,-1.8934,-1.8483,-1.8655,-1.8934,-1.8483,-1.8321,0.0,0.0,0.0,-1.759,-1.8087,-1.8357,-1.8545,-1.8665,-1.8785,-1.884,-1.872,-1.8523,-1.8294,-1.8054,-1.8542,-1.8917,-1.8786,-1.9811,-2.0699,-2.0699,-2.0997,-2.1229,-2.1229,-2.1636,-2.2095,-2.2466,-2.2754,-2.3024,-2.3377,-2.397,-2.4373,-2.4373,-2.4822,-2.4881,-2.4388,-2.4373,-2.4133,-2.361,-2.3595,-2.3595,-2.3595,-2.3952,-2.4177,-2.4302,-2.4177,-2.4177,-2.4302,-2.4302,-2.5163,-2.6721,-2.6864,-2.6984,-2.7114,-2.7114,-2.7022,-2.6946,-2.7059,-2.758,-2.8322,-2.8992,-2.9716,-3.0342,0.0,0.0,0.0,0.0,0.0,0.0,0.0,0.0,0.0,0.0,0.0,0.0,-1.3892,-1.4336,-1.4666,-1.463,-1.5488,-1.6483,-1.7445,-1.6946,-1.6631,-1.6687,-1.614,0.0,-1.5874,-1.5816,-1.5575,-1.5108,-1.505,-1.4834,-1.4387,-1.4387,-1.4387,-1.4387,-1.4231,-1.451,-1.5167,-1.5642,-1.5874,-1.5979,-1.6957,-1.7335,-1.7501,-1.8525,-1.8934,-1.8987,-1.8987,-1.8987,-1.8987,-1.8987,-1.8987,-1.8987,-1.8987,-1.8934,-1.8934,0.0,0.0,0.0,-1.8612,-1.8393,-1.8141,-1.8578,-1.9037,-1.9255,-1.8796,-1.9026,-1.9091,-1.8196,-1.8406,-1.8667,-1.8239,-1.954,-2.0699,-2.0699,-2.0699,-2.0749,-2.0749,-2.1131,-2.1471,-2.1458,-2.2342,-2.2889,-2.2934,-2.3363,-2.3655,-2.3655,-2.3684,-2.3684,-2.3655,-2.3655,-2.364,-2.3595,-2.3595,-2.3595,-2.3595,-2.3638,-2.3867,-2.4302,-2.3867,-2.3867,-2.4302,-2.4302,-2.4549,-2.5076,-2.5702,-2.619,-2.6525,-2.6525,-2.631,-2.6027,-2.6453,-2.7104,-2.7835,-2.8565,-2.928,-2.9853,0.0,0.0,0.0,0.0,0.0,0.0,0.0,0.0,0.0,0.0,0.0,0.0,0.0,-1.5859,-1.599,-1.5985,-1.6578,-1.7311,-1.8235,-1.8231,-1.8174,-1.8201,-1.7688,-1.7468,-1.7468,-1.6743,-1.6358,-1.6177,-1.5806,-1.5584,-1.542,-1.542,-1.542,-1.5362,-1.4991,-1.5167,-1.57,-1.6161,-1.6719,-1.7313,-1.7699,-1.8286,-1.898,-1.9384,-1.9952,-2.056,-2.056,-2.0733,-2.0904,-2.027,-2.0471,-2.0805,-1.9837,-1.9734,-1.9876,-1.9186,-1.8881,-1.8637,-1.8432,-1.8214,-1.807,-1.8236,-1.8655,-1.8988,-1.8775,-1.8877,-1.8885,-1.8506,-1.8148,-1.7943,-1.807,-1.9214,-2.0118,-2.0118,-2.0448,-2.0699,-2.0699,-2.0848,-2.1033,-2.1375,-2.1746,-2.2203,-2.2844,-2.3068,-2.329,-2.3551,-2.3595,-2.3595,-2.3595,-2.3595,-2.3595,-2.3595,-2.3595,-2.3595,-2.3595,-2.3595,-2.3681,-2.3867,-2.3681,-2.3696,-2.3867,-2.3867,-2.4078,-2.4539,-2.4909,-2.5501,-2.6165,-2.6165,-2.6068,-2.5986,-2.6149,-2.6621,-2.7322,-2.8083,-2.8802,-2.9348,0.0,0.0,0.0,0.0,0.0,0.0,0.0,0.0,0.0,0.0,0.0,0.0,0.0,0.0,-1.8354,-1.8792,-1.9065,-1.9592,-2.0375,-2.039,-2.0286,-2.0204,-1.9712,-1.9393,-1.9224,0.0,0.0,0.0,0.0,0.0,-1.6461,-1.6461,-1.6461,-1.6461,-1.6291,-1.6187,-1.6171,-1.6637,-1.7346,-1.8104,-1.855,-1.9255,-2.0105,-2.0514,-2.1067,-2.1664,-2.187,-2.2166,-2.2328,-2.164,-2.1883,-2.2205,-2.0983,-2.0733,-2.0733,-1.9991,-1.9552,-1.9186,-1.8792,-1.8525,-1.8348,-1.8103,-1.8543,-1.8987,-1.8748,-1.9016,-1.9251,-1.9075,-1.8563,-1.8183,-1.8107,-1.904,-1.9736,-1.9598,-1.9888,-2.0278,-2.0623,-2.0699,-2.0799,-2.1131,-2.1277,-2.1732,-2.2558,-2.2799,-2.3113,-2.3551,-2.3595,-2.3595,-2.3595,-2.3595,-2.3595,-2.3595,-2.3595,-2.3595,-2.3595,-2.3595,-2.3595,-2.3595,-2.3595,-2.3595,-2.3595,-2.3595,-2.3782,-2.4067,-2.422,-2.4828,-2.577,-2.577,-2.567,-2.5512,-2.5462,-2.5973,-2.6851,-2.735,-2.8104,-2.8842,0.0,0.0,0.0,0.0,0.0,0.0,0.0,0.0,0.0,0.0,0.0,0.0,0.0,0.0,0.0,-2.2916,-2.296,-2.3225,-2.3774,-2.3345,-2.2962,-2.2644,-2.2112,-2.1597,-2.1213,0.0,0.0,0.0,0.0,0.0,0.0,0.0,-1.7686,-1.7686,-1.8155,-1.7754,-1.674,-1.7155,-1.7634,-1.8247,-1.9395,-2.0145,-2.0762,-2.1911,-2.2283,-2.2269,-2.2955,-2.3166,-2.3215,-2.3186,-2.3186,-2.3073,-2.2372,-2.1813,-2.1423,-2.1423,-2.066,-1.985,0.0,0.0,0.0,-1.8267,-1.8839,-1.9389,-1.8908,-1.962,-2.0176,-1.9805,-1.9689,-1.9353,-1.8322,-1.9002,-1.9572,-1.9157,-1.913,-1.9494,-2.057,-2.0699,-2.0699,-2.0699,-2.1082,-2.1541,-2.2035,-2.2558,-2.3068,-2.3551,-2.3595,-2.361,-2.3595,-2.3595,-2.3595,-2.3595,-2.3595,-2.3595,-2.3595,-2.3595,-2.3595,-2.3595,-2.3595,-2.3595,-2.3595,-2.3595,-2.3595,-2.3595,-2.3595,-2.423,-2.5244,-2.5244,-2.4982,-2.4537,-2.4353,-2.5133,-2.6378,-2.6378,-2.7165,-2.8304,0.0,0.0,0.0,0.0,0.0,0.0,0.0,0.0,0.0,0.0,0.0,0.0,0.0,-2.2214,-2.3092,-2.3317,-2.3962,-2.4412,-2.4525,-2.486,-2.4719,-2.41,-2.3896,-2.3646,-2.3356,0.0,0.0,0.0,0.0,0.0,0.0,0.0,0.0,-1.9699,-1.9441,-1.9153,-1.8826,-1.8643,-1.8815,-1.9384,-2.0079,-2.1013,-2.1947,-2.2657,-2.3384,-2.4202,-2.4714,-2.5163,-2.5394,-2.4852,-2.4906,-2.4958,-2.354,-2.2546,-2.1908,-2.1908,-2.1704,-2.1307,-2.057,0.0,0.0,0.0,0.0,0.0,-1.9574,-2.0096,-2.0507,-2.0298,-1.9708,-1.916,-1.8806,-1.8382,-1.8326,-1.8969,-1.977,-2.0367,-2.0686,-2.0699,-2.0699,-2.0699,-2.0799,-2.1215,-2.2035,-2.1921,-2.2328,-2.3508,-2.329,-2.3246,-2.3595,-2.3595,-2.3595,-2.3595,-2.3595,-2.3595,-2.3595,-2.3595,-2.3595,-2.3595,-2.3595,-2.3595,-2.3595,-2.3595,-2.3595,-2.3595,-2.3595,-2.3786,-2.4053,-2.4053,-2.401,-2.3864,-2.3814,-2.464,-2.5832,-2.5832,-2.6663,-2.7795,0.0,0.0,0.0,0.0,0.0,0.0,0.0,0.0,0.0,0.0,0.0,0.0,0.0,0.0,-2.539,-2.5692,-2.6242,-2.6534,-2.6473,-2.6816,-2.6737,-2.603,-2.5998,-2.5915,-2.577,0.0,0.0,0.0,0.0,0.0,0.0,0.0,0.0,0.0,-2.1369,-2.1158,-2.1005,-2.0895,-2.0542,-2.022,-2.127,-2.2314,-2.3421,-2.4226,-2.5044,-2.5863,-2.6443,-2.6653,-2.6642,-2.6486,-2.6251,-2.5794,-2.4493,-2.3419,-2.2682,-2.2682,-2.2423,-2.1988,-2.1403,-2.1245,-2.0953,-1.9927,0.0,0.0,-1.982,-2.0381,-2.0843,-2.0519,-2.027,-1.994,-1.942,-1.9071,-1.8967,-1.9313,-2.0122,-2.0699,-2.0699,-2.0699,-2.0699,-2.0699,-2.0699,-2.0983,-2.1732,-2.1554,-2.1827,-2.2905,-2.274,-2.2785,-2.329,-2.3508,-2.3595,-2.3595,-2.3595,-2.3595,-2.3595,-2.3595,-2.3595,-2.3595,-2.3595,-2.3595,-2.3595,-2.3595,-2.3595,-2.3595,-2.3595,-2.3595,-2.3595,-2.3595,-2.3595,-2.3595,-2.3595,-2.4418,-2.5615,-2.5615,-2.6437,-2.7625,0.0,0.0,0.0,0.0,0.0,0.0,0.0,0.0,0.0,0.0,0.0,0.0,0.0,0.0,0.0,0.0,-2.8983,-2.8998,-2.8933,-2.8952,-2.8716,-2.8202,-2.8268,-2.8282,0.0,0.0,0.0,0.0,0.0,0.0,0.0,0.0,0.0,0.0,0.0,-2.3329,-2.3025,-2.3329,-2.255,-2.126,-2.2711,-2.3903,-2.4867,-2.6193,-2.6934,-2.7406,-2.8069,-2.7878,-2.7476,-2.8076,-2.7376,-2.6109,-2.5314,-2.4482,-2.3767,-2.3691,-2.3069,-2.2392,-2.2346,-2.23,-2.2021,-2.1086,-2.1139,0.0,-2.0126,-2.0738,-2.1286,-2.067,-2.1029,-2.1148,-2.0092,-2.0358,-2.0529,-1.9982,-2.0371,-2.0749,-2.0699,-2.0751,-2.0804,-2.0804,-2.0804,-2.099,-2.1469,-2.1415,-2.1554,-2.2081,-2.2081,-2.2314,-2.2799,-2.3246,-2.3508,-2.3421,-2.3508,-2.3508,-2.3508,-2.3508,-2.3551,-2.3595,-2.3595,-2.3595,-2.3595,-2.3595,-2.3595,-2.3595,-2.3595,-2.3595,-2.3595,-2.3595,-2.3595,-2.3595,-2.3595,-2.4373,-2.551,-2.5585,-2.6393,-2.752,-2.0573,0.0,0.0,0.0,0.0,0.0,0.0,0.0,0.0,0.0,0.0,0.0,-2.8106,-2.8838,-2.9332,0.0,-2.9729,-2.9852,-2.986,-2.9848,-2.9683,-2.9305,-2.9963,-3.0185,-2.9829,0.0,0.0,0.0,0.0,0.0,0.0,0.0,0.0,0.0,0.0,-2.4306,-2.424,-2.4107,-2.4177,-2.4431,-2.4731,-2.5093,-2.5575,-2.7193,-2.8149,-2.8785,-2.9287,-2.9529,-2.9632,-2.9573,-2.8764,-2.7578,-2.6604,-2.5926,-2.5409,-2.4804,-2.4511,-2.4251,-2.3888,-2.349,-2.3098,-2.2503,-2.217,0.0,-2.1785,-2.2251,-2.2383,-2.1504,-2.1746,-2.1803,-2.0733,-2.0633,-2.0673,-2.0555,-2.0917,-2.1131,-2.0749,-2.1054,-2.1342,-2.1342,-2.1342,-2.1548,-2.2079,-2.1362,-2.1166,-2.2035,-2.2081,-2.2128,-2.2267,-2.274,-2.283,-2.2406,-2.283,-2.3024,-2.3024,-2.3024,-2.3246,-2.3595,-2.3595,-2.3595,-2.3595,-2.3595,-2.3595,-2.3595,-2.3595,-2.3595,-2.3595,-2.3595,-2.3595,-2.3595,-2.3595,-2.4103,-2.4836,-2.542,-2.6108,-2.6856,-2.0936,0.0,0.0,0.0,0.0,0.0,0.0,0.0,0.0,0.0,0.0,-2.8706,-2.9155,-2.9685,-3.0055,-3.0179,-3.0318,0.0,-3.0389,-3.0814,-3.0909,-3.0602,-3.1418,-3.1874,-3.1807,-3.1609,0.0,0.0,0.0,0.0,0.0,0.0,0.0,0.0,0.0,-2.5779,-2.5447,-2.5554,-2.5556,-2.5552,-2.5968,-2.6659,-2.7565,-2.8737,-2.9668,-3.0318,-3.0543,-3.0764,-3.0757,-2.9892,-2.9191,-2.8602,-2.8122,-2.7273,-2.6451,-2.6096,-2.5726,-2.5305,-2.4726,-2.4374,-2.4112,-2.3634,-2.3157,0.0,0.0,-2.268,-2.2781,-2.2318,-2.2414,-2.238,-2.1659,-2.1282,-2.0997,-2.0749,-2.1082,-2.1336,-2.1143,-2.1284,-2.1372,-2.1131,-2.108,-2.13,-2.1834,-2.1391,-2.1402,-2.2177,-2.2492,-2.249,-2.2187,-2.2701,-2.2686,-2.2142,-2.236,-2.2512,-2.2512,-2.2512,-2.274,-2.3246,-2.3246,-2.3377,-2.3595,-2.3595,-2.3595,-2.3595,-2.3595,-2.3595,-2.3595,-2.3595,-2.3595,-2.3595,-2.3595,-2.4029,-2.4657,-2.536,-2.6019,-2.6692,-2.1553,0.0,0.0,0.0,0.0,0.0,0.0,0.0,0.0,-2.6435,-2.8201,-2.953,-2.9747,-3.0131,-3.0465,-3.0702,-3.0858,-3.0947,-3.0976,-3.1792,-3.2173,-3.1949,-3.2753,-3.3332,-3.3516,-3.3007,0.0,0.0,0.0,0.0,0.0,0.0,0.0,0.0,-2.7566,-2.7317,-2.6909,-2.7085,-2.6978,-2.6737,-2.7273,-2.807,-2.9042,-2.9954,-3.0706,-3.1316,-3.149,-3.1579,-3.1373,-3.0055,-2.9539,-2.9452,-2.9144,-2.8294,-2.735,-2.7101,-2.6689,-2.615,-2.5368,-2.5059,-2.4926,-2.4536,-2.4096,-2.3568,0.0,0.0,0.0,-2.2785,-2.2844,-2.2775,-2.2415,-2.1882,-2.141,-2.1033,-2.1505,-2.1847,-2.1691,-2.1893,-2.1852,-2.1235,-2.1101,-2.1233,-2.1773,-2.1838,-2.1995,-2.2387,-2.2844,-2.2896,-2.2355,-2.2743,-2.27,-2.2007,-2.2074,-2.2066,-2.1955,-2.1955,-2.2235,-2.2754,-2.2844,-2.3113,-2.3465,-2.3551,-2.3595,-2.3595,-2.3595,-2.3595,-2.3595,-2.3595,-2.3595,-2.3595,-2.3595,-2.4029,-2.4657,-2.536,-2.6019,-2.6692,-2.4265,-2.356,0.0,0.0,0.0,0.0,0.0,0.0,0.0,-2.8043,-2.9387,-3.0088,-2.9357,-3.0095,-3.0693,-3.078,-3.1398,-3.181,-3.1928,-3.2753,-3.3201,-3.3113,-3.3942,-3.4378,-3.4359,-3.4731,-3.4952,0.0,0.0,0.0,0.0,0.0,0.0,-2.8358,-2.8201,-2.8469,-2.8984,-2.8074,-2.8675,-3.0179,-2.9541,-2.8628,-2.7824,-2.96,-3.0364,-3.056,-3.1507,-3.1858,-3.1737,-3.0906,-3.0612,-3.0352,-2.8716,-2.8544,-2.866,-2.7094,-2.7056,-2.7303,-2.6313,-2.5738,-2.5427,-2.5389,-2.5028,-2.448,-2.3571,0.0,-2.3767,-2.2452,0.0,-2.2723,-2.2226,0.0,0.0,-2.1941,-2.289,-2.3274,-2.2342,-2.3554,-2.4112,-2.3023,-2.2431,-2.2335,-2.2965,-2.3027,-2.2858,-2.2439,-2.29,-2.2968,-2.2403,-2.283,-2.26,-2.1627,-2.2046,-2.2038,-2.1458,-2.1458,-2.1732,-2.2175,-2.2649,-2.2934,-2.2979,-2.3421,-2.3595,-2.3595,-2.3595,-2.3595,-2.3595,-2.3595,-2.3595,-2.3595,-2.3595,-2.4029,-2.4657,-2.536,-2.6019,-2.6692,-2.5056,-2.4971,0.0,0.0,0.0,0.0,0.0,0.0,0.0,-2.944,-3.0146,-3.0478,-3.0113,-3.038,-3.0594,-3.0614,-3.0845,-3.1225,-3.1817,-3.2756,-3.3509,-3.3988,-3.4902,-3.5359,-3.5251,-3.547,-3.556,0.0,-3.4789,0.0,0.0,0.0,0.0,-3.0516,-2.9784,-2.9875,-3.0462,-2.9909,-3.0119,-3.0898,-3.0558,-3.0024,-2.9607,-3.0785,-3.1042,-3.0838,-3.0836,-3.0573,-3.0049,-2.9263,-2.9001,-2.8935,-2.8665,-2.8364,-2.8045,-2.779,-2.747,-2.7097,-2.6587,-2.6612,-2.6631,-2.6036,-2.5881,-2.5655,-2.4839,-2.4632,-2.457,-2.4362,0.0,0.0,0.0,0.0,0.0,0.0,-2.3363,-2.3774,-2.3312,-2.3803,-2.3765,-2.2841,-2.2804,-2.2923,-2.3188,-2.3838,-2.3851,-2.2949,-2.372,-2.3681,-2.2481,-2.288,-2.2814,-2.2047,-2.1891,-2.169,-2.1451,-2.1156,-2.1229,-2.1684,-2.1921,-2.2156,-2.2466,-2.2965,-2.3201,-2.3201,-2.3465,-2.3595,-2.3595,-2.3595,-2.3595,-2.3595,-2.3595,-2.4029,-2.4701,-2.5794,-2.6363,-2.6692,-2.632,-2.6436,-2.6737,-2.713,0.0,0.0,0.0,0.0,-2.997,-3.0037,-3.0448,-3.0637,-3.0375,-3.0625,-3.0817,-3.083,-3.1185,-3.1706,-3.2416,-3.3381,-3.4227,-3.4856,-3.5578,-3.5937,-3.586,-3.5828,-3.5792,0.0,0.0,0.0,0.0,0.0,0.0,0.0,-3.1295,-3.1299,-3.1912,-3.1464,-3.1517,-3.1824,-3.1563,-3.1392,-3.1355,-3.1711,-3.1617,-3.122,-3.0402,-2.9579,-2.8754,-2.7736,-2.7403,-2.749,-2.8087,-2.7866,-2.7542,-2.8305,-2.8109,-2.7554,-2.7114,-2.7384,-2.7585,-2.6652,-2.6571,-2.6529,-2.5803,-2.5373,-2.5265,-2.555,-2.525,0.0,0.0,0.0,-2.4371,-2.3697,0.0,-2.43,-2.4396,-2.442,-2.4101,-2.3204,-2.3474,-2.3541,-2.324,-2.4426,-2.4648,-2.3315,-2.4452,-2.4439,-2.2688,-2.3089,-2.3154,-2.2594,-2.215,-2.1772,-2.1472,-2.1106,-2.1007,-2.1229,-2.1326,-2.1602,-2.1908,-2.2466,-2.2694,-2.2694,-2.3201,-2.3421,-2.3421,-2.3551,-2.3595,-2.3625,-2.3804,-2.4298,-2.5016,-2.5974,-2.6557,-2.6916,-2.8819,-2.8057,-2.7598,-2.8323,-2.8856,0.0,-3.0049,-3.0231,-3.0076,-2.9496,-3.0231,-3.0439,-2.9538,-3.0759,-3.1661,-3.1661,-3.3209,-3.4246,-3.4404,-3.5288,-3.5827,-3.5841,-3.5884,-3.5925,-3.5995,-3.5879,-3.583,-3.5889,0.0,0.0,0.0,0.0,0.0,0.0,-3.2348,-3.2784,-3.3468,-3.2466,-3.2801,-3.3926,-3.2956,-3.2329,-3.2022,-3.1798,-3.1693,-3.1538,-3.048,-2.9579,-2.8667,-2.7157,-2.6648,-2.6648,-2.6683,-2.7157,-2.7782,-2.8352,-2.9018,-2.9401,-2.8356,-2.8049,-2.7929,-2.7161,-2.699,-2.6808,-2.6071,-2.5875,-2.5693,-2.5075,-2.4918,-2.4918,-2.4895,-2.4895,-2.4895,-2.4855,-2.5066,0.0,0.0,-2.6031,-2.609,-2.4934,-2.4902,-2.4496,-2.3319,-2.4779,-2.5079,-2.3341,-2.4818,-2.5027,-2.3289,-2.3599,-2.3593,-2.2998,-2.2959,-2.2415,-2.1328,-2.1446,-2.1198,-2.0749,-2.118,-2.1423,-2.1423,-2.1908,-2.2128,-2.2175,-2.2694,-2.2934,-2.2979,-2.3421,-2.3595,-2.367,-2.4328,-2.5001,-2.5585,-2.563,-2.6437,-2.7595,-2.957,-2.9308,-2.9082,-2.9202,-2.9476,-2.9981,-3.0912,-3.0775,-3.0696,-3.1067,-3.0925,-3.0628,-3.0175,-3.0588,-3.0848,-3.0727,-3.1245,-3.2115,-3.3368,-3.3809,-3.4564,-3.573,-3.585,-3.5923,-3.5995,-3.5957,-3.5932,-3.5974,-3.5889,0.0,0.0,0.0,0.0,0.0,-3.3791,-3.3903,-3.4632,-3.415,-3.4143,-3.4338,-3.3282,-3.2465,-3.1918,-3.1944,-3.0866,-2.9308,-2.9124,-2.7654,-2.5807,-2.5445,-2.5216,-2.5068,-2.5068,-2.5577,-2.6304,-2.7023,-2.746,-2.7644,-2.7653,-2.7954,-2.8078,-2.7226,-2.7382,-2.7521,-2.6809,-2.6624,-2.6556,-2.635,-2.6156,-2.5941,-2.5635,-2.5776,-2.6039,-2.6255,-2.6372,-2.6333,0.0,-2.5967,-2.579,-2.5488,-2.5162,-2.5016,-2.5033,-2.4794,-2.4282,-2.3289,-2.4138,-2.4256,-2.3263,-2.3741,-2.3917,-2.3593,-2.3205,-2.2816,-2.2428,-2.1637,-2.1212,-2.1224,-2.0933,-2.0848,-2.0947,-2.141,-2.1636,-2.1636,-2.2142,-2.2558,-2.2889,-2.2694,-2.2995,-2.3626,-2.4013,-2.4724,-2.5659,-2.6093,-2.6811,-2.7634,-2.9959,-3.0443,-3.0636,-2.9846,-3.0143,-3.0745,-3.1555,-3.1656,-3.1711,-3.1991,-3.1585,-3.1081,-3.0591,-3.0771,-3.0867,-3.0746,-3.1015,-3.1845,-3.3379,-3.3567,-3.4264,-3.5702,-3.5844,-3.5939,-3.5991,-3.6306,-3.6308,-3.5991,-3.6263,-3.6221,0.0,0.0,0.0,0.0,-3.486,-3.4817,-3.5289,-3.5089,-3.4926,-3.4696,-3.3577,-3.2579,-3.1778,-3.1641,-3.0257,-2.8384,-2.8171,-2.653,-2.4491,-2.4343,-2.4337,-2.4466,-2.4757,-2.5271,-2.6008,-2.6894,-2.7278,-2.7444,-2.7487,-2.8244,-2.8771,-2.7881,-2.8246,-2.8592,-2.7734,-2.753,-2.7497,-2.7399,-2.7182,-2.6907,-2.6612,-2.6911,-2.7153,-2.709,-2.7166,-2.7116,0.0,-2.6352,-2.6264,-2.655,-2.6226,-2.5855,-2.5645,-2.5307,-2.454,-2.3265,-2.3953,-2.406,-2.315,-2.3683,-2.3936,-2.3713,-2.3399,-2.309,-2.2827,-2.1915,-2.1403,-2.1355,-2.0835,-2.0612,-2.0662,-2.0997,-2.1131,-2.118,-2.1636,-2.2049,-2.2342,-2.2189,-2.2589,-2.3393,-2.3785,-2.4584,-2.5689,-2.6348,-2.7171,-2.8038,-3.0184,-3.1485,-3.2157,-3.038,-3.0898,-3.1729,-3.2133,-3.2787,-3.2977,-3.2264,-3.2094,-3.1668,-3.0704,-3.1233,-3.1671,-3.17,-3.2454,-3.3374,-3.4431,-3.4562,-3.4993,-3.5855,-3.5908,-3.5935,-3.5992,-3.6816,-3.6829,-3.5991,-3.6833,-3.6778,0.0,0.0,0.0,0.0,-3.5534,-3.5507,-3.5493,-3.5293,-3.5155,-3.5007,-3.3732,-3.2636,-3.1634,-3.0857,-2.985,-2.876,-2.7718,-2.6294,-2.4779,-2.388,-2.4027,-2.4676,-2.545,-2.6083,-2.6722,-2.7664,-2.834,-2.8614,-2.7789,-2.8702,-2.9702,-2.9018,-2.9421,-2.9744,-2.8804,-2.8583,-2.8518,-2.827,-2.7946,-2.7771,-2.7771,-2.8106,-2.8146,-2.7516,-2.7617,-2.7598,-2.7164,-2.7176,-2.7471,-2.8051,-2.7862,-2.6996,-2.5226,-2.6031,-2.5714,-2.3351,-2.4275,-2.44,-2.3062,-2.3567,-2.3747,-2.3365,-2.3446,-2.3165,-2.249,-2.2168,-2.1738,-2.1104,-2.0784,-2.0599,-2.0461,-2.0612,-2.0699,-2.0699,-2.118,-2.1361,-2.141,-2.186,-2.236,-2.2917,-2.3615,-2.4596,-2.5732,-2.6408,-2.75,-2.8742,-3.2037,-3.2596,-3.2855,-3.2435,-3.2621,-3.3309,-3.4683,-3.348,-3.2578,-3.3012,-3.1948,-3.1005,-3.0646,-3.0766,-3.1114,-3.1729,-3.1981,-3.2802,-3.44,-3.4528,-3.4944,-3.5869,-3.59,-3.5921,-3.5996,-3.623,-3.6225,-3.5991,-3.6228,-3.6202,-3.5978,0.0,0.0,0.0,-3.5588,-3.554,-3.5493,-3.5293,-3.4656,-3.3694,-3.2617,-3.1663,-3.0838,-3.002,-2.8753,-2.7487,-2.7795,-2.6625,-2.4958,-2.4868,-2.4475,-2.4031,-2.4068,-2.4967,-2.5914,-2.542,-2.6176,-2.7016,-2.6209,-2.6297,-2.6841,-2.7771,-2.8157,-2.8548,-2.9467,-2.9694,-2.9662,-2.958,-2.8897,-2.839,-2.8731,-2.8313,-2.8089,-2.876,-2.8682,-2.8466,-2.8281,-2.7682,-2.7303,-2.7425,-2.753,-2.7461,-2.701,-2.6056,-2.4983,-2.3946,-2.4107,-2.392,-2.308,-2.3541,-2.3554,-2.2852,-2.242,-2.2115,-2.1919,-2.1361,-2.1072,-2.1066,-2.0463,-2.0195,-2.0283,-2.0461,-2.0448,-2.0334,-2.0749,-2.1019,-2.1237,-2.1118,-2.1527,-2.2381,-2.3111,-2.4609,-2.6462,-2.7095,-2.8173,-2.9355,-3.3981,-3.4496,-3.4978,-3.5398,-3.5232,-3.5116,-3.5344,-3.4484,-3.3848,-3.3953,-3.3102,-3.2198,-3.1351,-3.1547,-3.1797,-3.1926,-3.2225,-3.3017,-3.4451,-3.4536,-3.4943,-3.5861,-3.5932,-3.597,-3.5995,-3.6363,-3.637,-3.597,-3.6302,-3.627,-3.5875,0.0,0.0,0.0,-3.5604,-3.5534,-3.5493,-3.5293,-3.4751,-3.3882,-3.2491,-3.1613,0.0,-2.9853,-2.8812,-2.7976,-2.7697,-2.6354,-2.4776,-2.4777,-2.4642,-2.4481,-2.4626,-2.541,-2.6124,-2.5214,-2.5967,-2.6771,-2.5296,-2.5893,-2.7052,-2.7561,-2.8456,-2.9369,-2.9983,-3.0352,-3.058,-3.058,-3.0016,-2.9557,-2.9709,-2.942,-2.9302,-2.9805,-2.9412,-2.9034,-2.9017,-2.8176,-2.761,-2.7549,-2.7841,-2.795,-2.7682,-2.6226,-2.5067,-2.45,-2.4613,-2.4233,-2.308,-2.402,-2.3875,-2.228,-2.235,-2.2211,-2.1592,-2.1344,-2.112,-2.0907,-2.0463,-2.0195,-2.0131,-2.0296,-2.0296,-2.0233,-2.0385,-2.0636,-2.0871,-2.0699,-2.1082,-2.189,-2.3105,-2.4535,-2.6031,-2.6605,-2.7977,-2.9579,-3.59,-3.6658,-3.7506,-3.826,-3.7784,-3.6794,-3.5271,-3.5481,-3.5527,-3.4644,-3.4435,-3.3746,-3.2114,-3.2493,-3.2681,-3.2148,-3.2785,-3.3576,-3.4394,-3.4555,-3.4944,-3.5715,-3.5792,-3.5878,-3.5994,-3.6721,-3.677,-3.6064,-3.6624,-3.6566,0.0,0.0,0.0,-3.5607,-3.5522,-3.5493,-3.5446,-3.5242,-3.5054,-3.4699,-3.2804,-3.196,-3.1615,-3.002,-2.9332,-2.9035,-2.7474,-2.6005,-2.4743,-2.4303,-2.4686,-2.5417,-2.5764,-2.6327,-2.6639,-2.5829,-2.6393,-2.6823,-2.4971,-2.6314,-2.8193,-2.7789,-2.9228,-3.065,-3.0317,-3.0738,-3.123,-3.1335,-3.1062,-3.075,-3.0583,-3.0688,-3.0704,-3.0419,-2.9831,-2.9383,-2.9284,-2.8656,-2.817,-2.8047,-2.8268,0.0,-2.767,-2.6606,-2.5669,-2.5095,-2.5507,-2.5003,-2.3115,-2.452,-2.4249,-2.1767,-2.2515,-2.2495,-2.1493,-2.1576,-2.1297,-2.0718,-2.0527,-2.0246,-1.999,-2.0131,-2.0182,-2.0131,-2.0182,-2.0296,-2.0461,-2.0461,-2.0891,-2.165,-2.3239,-2.4277,-2.5001,-2.5546,-2.7302,-2.9401,-3.7588,-3.792,-3.8158,-3.8351,-3.7795,-3.7204,-3.6891,-3.5755,-3.4609,-3.3732,-3.2999,-3.2166,-3.114,-3.1145,-3.1456,-3.2051,-3.2883,-3.3439,-3.361,-3.4273,-3.4744,-3.4902,-3.4922,-3.5251,-3.5979,-3.6103,-3.6387,-3.6896,-3.6261,-3.6234,0.0,0.0,-3.5607,-3.5607,-3.5522,-3.5417,-3.5242,-3.5037,-3.485,-3.4494,-3.2611,-3.1827,-3.1615,-3.002,-2.8961,-2.8197,-2.7251,-2.673,-2.6265,-2.4892,-2.4967,-2.5449,-2.4522,-2.5181,-2.6075,-2.4913,-2.4716,-2.4954,-2.5156,-2.5156,-2.5534,-2.7262,-2.7999,-2.8789,-3.0598,-3.1107,-3.1388,-3.2055,-3.1446,-3.0905,-3.1233,-3.0409,-2.9639,-2.9599,-2.9499,-2.9218,-2.8638,-2.9098,-2.9127,-2.8139,-2.7736,-2.7555,-2.758,-2.7405,-2.6855,-2.5821,-2.6186,-2.5438,-2.3111,-2.365,-2.3308,-2.1741,-2.0873,-2.074,-2.1481,-2.0618,-2.0341,-2.0706,-2.0191,-1.9914,-1.9862,-1.9978,-1.9978,-1.9862,-2.0118,-2.0233,-2.0296,-2.041,-2.1069,-2.2033,-2.2711,-2.3663,-2.4646,-2.5245,-2.6736,-2.851,-3.9412,-3.9572,-3.9373,-3.8502,-3.8132,-3.7666,-3.6711,-3.5884,-3.5215,-3.4795,-3.361,-3.2615,-3.2192,-3.2148,-3.2148,-3.2094,-3.3317,-3.4074,-3.4069,-3.4468,-3.4896,-3.5351,-3.494,-3.5087,-3.5927,-3.5924,-3.6262,-3.6995,-3.6542,-3.6501,0.0,-3.6388,-3.5945,-3.554,-3.5515,-3.5403,-3.5193,-3.5001,-3.4526,-3.3813,-3.2378,-3.1541,-3.1061,-2.9853,-2.9147,-2.8626,-2.7362,-2.6916,-2.6656,-2.5039,-2.4652,-2.4874,-2.4969,-2.5167,-2.5291,-2.497,-2.5156,-2.5401,-2.4945,-2.5419,-2.6226,-2.6946,-2.7736,-2.8737,-3.0282,-3.0931,-3.1423,-3.223,-3.1987,-3.1602,-3.1528,-3.0774,-3.0182,-2.9996,-2.998,-2.9864,-2.9533,-2.9688,-2.9576,-2.9002,-2.7966,-2.7455,-2.7917,-2.7444,-2.6718,-2.5879,-2.624,-2.5384,-2.2796,-2.3922,-2.3495,-2.1011,-2.0813,-2.0759,-2.0614,-2.0429,-2.0303,-2.0213,-2.0001,-1.9862,-1.9798,-1.9862,-1.9862,-1.9798,-1.9965,-2.0029,-2.0105,-2.0617,-2.1133,-2.1673,-2.2502,-2.3132,-2.3668,-2.4231,-2.5652,-2.7325,-4.0784,-4.0815,-4.0354,-3.8626,-3.8293,-3.7795,-3.6362,-3.5731,-3.5427,-3.5448,-3.4246,-3.3269,-3.2896,-3.2853,-3.2561,-3.1882,-3.3246,-3.4078,-3.3888,-3.4035,-3.4452,-3.5134,-3.4681,-3.4781,-3.5616,-3.5768,-3.6196,-3.6903,-3.688,-3.6903,-3.6988,-3.6988,-3.6546,-3.5743,-3.5523,-3.5354,-3.5174,-3.4945,-3.4354,-3.3475,-3.2284,-3.1433,-3.0764,-2.9779,-2.9407,-2.9184,-2.7511,-2.6916,-2.6656,-2.5039,-2.4468,-2.4576,-2.5343,-2.5175,-2.4754,-2.5085,-2.5612,-2.591,-2.5015,-2.6086,-2.7368,-2.6946,-2.7754,-2.886,-2.9667,-3.0422,-3.1177,-3.1984,-3.2162,-3.2054,-3.1504,-3.0999,-3.0563,-3.0319,-3.0278,-3.0278,-3.0278,-3.0058,-2.9832,-2.9599,-2.8519,-2.7829,-2.7842,-2.7155,-2.6449,-2.5745,-2.6204,-2.5464,-2.3009,-2.4465,-2.4021,-2.1043,-2.146,-2.1331,-2.0567,-2.062,-2.0444,-1.9987,-1.9977,-1.9926,-1.9798,-1.9798,-1.9798,-1.9798,-1.9798,-1.9862,-2.0028,-2.0768,-2.1128,-2.1332,-2.2342,-2.2821,-2.3089,-2.3522,-2.4853,-2.6551,-4.1094,-4.0842,-4.037,-3.8675,-3.775,-3.7175,-3.7013,-3.5027,-3.3578,-3.3649,-3.3495,-3.2805,-3.1223,-3.1047,-3.1008,-3.093,-3.1789,-3.2009,-3.1211,-3.1894,-3.2381,-3.2465,-3.3095,-3.3848,-3.4695,-3.5318,-3.6054,-3.6903,-3.6781,-3.7118,-3.7873,-3.7873,-3.743,-3.6551,-3.563,-3.5226,-3.5157,-3.4791,-3.4567,-3.4317,-3.2527,-3.1745,-3.1504,-2.9983,-2.9407,-2.9184,-2.7511,-2.6916,-2.6656,-2.5039,-2.4965,-2.5375,-2.434,-2.4447,-2.4901,-2.4509,-2.4462,-2.4769,-2.6051,-2.6542,-2.6858,-2.7455,-2.7701,-2.8017,-2.8825,-2.9632,-3.0404,-3.1159,-3.1479,-3.1466,-3.1095,-3.0222,-2.9556,-2.9516,-2.9516,-2.9516,-2.9516,-3.0055,-3.0053,-2.8945,-2.9253,-2.8758,-2.661,-2.6919,-2.6763,-2.5687,-2.625,-2.5992,-2.4722,-2.4668,-2.4269,-2.3377,-2.235,-2.2229,-2.3073,-2.0986,-2.0125,-2.063,-2.0049,-1.9798,-1.9798,-1.9798,-1.9798,-1.9798,-1.9798,-1.9862,-2.0041,-2.0676,-2.1196,-2.1678,-2.2185,-2.2997,-2.3903,-2.3966,-2.5089,-2.6799,-4.0061,-3.9631,-3.8953,-3.7657,-3.7259,-3.6914,-3.6359,-3.5464,-3.4482,-3.3473,-3.2457,-3.1775,-3.1597,-3.1111,-3.08,-3.0797,-3.1601,-3.1953,-3.16,-3.188,-3.2271,-3.2806,-3.26,-3.3063,-3.4395,-3.4681,-3.5458,-3.6781,-3.6727,-3.6892,-3.7219,-3.711,-3.652,-3.5598,-3.5188,-3.4945,-3.4831,-3.4668,-3.4236,-3.3519,-3.2292,-3.1526,-3.0968,-2.9834,-2.9407,-2.924,-2.805,-2.7228,-2.6536,-2.541,-2.4835,-2.4551,-2.449,-2.4177,-2.3922,-2.4196,-2.4594,-2.5085,-2.5717,-2.656,-2.7332,-2.7631,-2.7701,-2.7912,-2.8719,-2.9158,-2.9737,-3.0949,-3.1481,-3.1579,-3.1095,-3.0644,-3.0282,-3.0079,-3.0079,-3.0079,-3.0079,-3.0328,-3.0162,-2.9239,-2.8779,-2.8062,-2.682,-2.6653,-2.652,-2.6231,-2.6836,-2.6683,-2.5573,-2.5466,-2.5121,-2.4444,-2.2505,-2.1822,-2.2559,-2.0815,-2.004,-2.0267,-1.9976,-1.9798,-1.9798,-1.9798,-1.9798,-1.9798,-1.9798,-2.0051,-2.0482,-2.1049,-2.1605,-2.209,-2.2585,-2.3088,-2.3527,-2.3866,-2.4659,-2.5679,-3.9102,-3.8627,-3.7897,-3.6658,-3.6579,-3.6454,-3.5805,-3.5582,-3.5061,-3.3802,-3.2173,-3.1286,-3.1699,-3.1172,-3.08,-3.0801,-3.1344,-3.1688,-3.1688,-3.1625,-3.1855,-3.2483,-3.2103,-3.2393,-3.3538,-3.4028,-3.4839,-3.5968,-3.6407,-3.6607,-3.6607,-3.6411,-3.593,-3.523,-3.4945,-3.473,-3.4583,-3.4517,-3.4045,-3.325,-3.221,-3.1448,-3.0857,-2.9797,-2.9407,-2.9275,-2.8322,-2.7532,-2.6741,-2.5612,-2.4714,-2.4086,-2.4388,-2.3891,-2.3305,-2.3794,-2.4471,-2.5121,-2.5349,-2.6367,-2.7438,-2.7648,-2.7701,-2.7841,-2.8421,-2.8658,-2.9208,-3.0679,-3.1166,-3.1268,-3.1044,-3.0935,-3.0773,-3.0526,-3.0526,-3.0526,-3.0526,-3.0526,-3.0162,-2.9218,-2.8582,-2.7762,-2.6684,-2.6463,-2.635,-2.621,-2.7092,-2.7062,-2.5874,-2.6054,-2.5841,-2.5149,-2.2951,-2.2034,-2.2554,-2.0834,-1.999,-1.999,-1.9862,-1.9798,-1.9798,-1.9798,-1.9798,-1.9798,-1.9798,-2.0125,-2.0756,-2.1255,-2.182,-2.2372,-2.2865,-2.3278,-2.3616,-2.4092,-2.4695,-2.5479,-3.8523,-3.8218,-3.7646,-3.5921,-3.5673,-3.5706,-3.5699,-3.5029,-3.4501,-3.4484,-3.297,-3.1633,-3.0985,-3.0845,-3.0801,-3.0801,-3.0755,-3.0711,-3.0711,-3.0658,-3.0613,-3.0632,-3.1388,-3.1816,-3.1835,-3.3376,-3.4212,-3.4218,-3.5687,-3.6411,-3.6394,-3.6197,-3.6102,-3.6045,-3.5068,-3.4583,-3.4583,-3.4316,-3.4197,-3.4048,-3.2432,-3.1782,-3.1597,-3.002,-2.9407,-2.9235,-2.8113,-2.7695,-2.7394,-2.5524,-2.4774,-2.4462,-2.3736,-2.3504,-2.3458,-2.3193,-2.3681,-2.4479,-2.5208,-2.5998,-2.6806,-2.7526,-2.7701,-2.7701,-2.7701,-2.8115,-2.8866,-3.0137,-3.0133,-3.0123,-3.0881,-3.0733,-3.051,-3.0526,-3.0526,-3.0526,-3.0526,-3.0526,-2.998,-2.8555,-2.8986,-2.8366,-2.5767,-2.6413,-2.6506,-2.5395,-2.6756,-2.7006,-2.5689,-2.6243,-2.6289,-2.5603,-2.3802,-2.3205,-2.3837,-2.1276,-1.999,-1.999,-1.9862,-1.9798,-1.9798,-1.9798,-1.9798,-1.9798,-1.9798,-2.0125,-2.0756,-2.1255,-2.182,-2.2372,-2.2865,-2.3816,-2.4808,-2.4808,-2.5498,-2.6577,-3.7209,-3.6658,-3.6113,-3.5739,-3.5684,-3.5695,-3.5687,-3.5484,-3.5126,-3.4565,-3.3502,-3.2486,-3.167,-3.1035,-3.0665,-3.0656,-3.0639,-3.0626,-3.0626,-3.0576,-3.0527,-3.0527,-3.0732,-3.1122,-3.1719,-3.2096,-3.2852,-3.3987,-3.4325,-3.4718,-3.517,-3.5107,-3.4983,-3.4791,-3.4475,-3.4316,-3.4316,-3.4245,-3.4197,-3.4048,-3.2451,-3.1782,-3.1615,-3.002,-2.9407,-2.9328,-2.8776,-2.8118,-2.7295,-2.5967,-2.502,-2.4247,-2.347,-2.3223,-2.3199,-2.3144,-2.3664,-2.4462,-2.5208,-2.5998,-2.6788,-2.7526,-2.7701,-2.7672,-2.7539,-2.7881,-2.8425,-2.9096,-2.961,-3.0046,-3.0558,-3.0551,-3.0526,-3.0526,-3.0526,-3.0344,-2.9831,-2.9764,-2.9234,-2.7831,-2.8274,-2.7855,-2.5702,-2.6679,-2.7131,-2.6518,-2.8155,-2.8596,-2.704,-2.7187,-2.7422,-2.7654,-2.5047,-2.3788,-2.4014,-2.1885,-2.061,-2.0131,-1.9978,-1.9875,-1.9798,-1.9798,-1.9862,-1.9926,-1.9862,-2.019,-2.0889,-2.1433,-2.192,-2.2372,-2.3056,-2.3664,-2.4305,-2.4797,-2.5469,-2.6206,-3.6001,-3.5592,-3.5273,-3.5515,-3.556,-3.5572,-3.5651,-3.5651,-3.5477,-3.4982,-3.3866,-3.2929,-3.2377,-3.1246,-3.0548,-3.0605,-3.0583,-3.0568,-3.0568,-3.0501,-3.0422,-3.0359,-3.0297,-3.0522,-3.1019,-3.1206,-3.1962,-3.3337,-3.3771,-3.4143,-3.445,-3.445,-3.4363,-3.4197,-3.4197,-3.4197,-3.4197,-3.4197,-3.4197,-3.4048,-3.2451,-3.1782,-3.1615,-2.9894,-2.9262,-2.92,-2.8803,-2.8232,-2.7497,-2.6445,-2.5473,-2.4629,-2.412,-2.3576,-2.3095,-2.3095,-2.347,-2.4067,-2.5121,-2.577,-2.6402,-2.7438,-2.7701,-2.7612,-2.7324,-2.7495,-2.7845,-2.8448,-2.8779,-2.9237,-3.0336,-3.0294,-3.0195,-3.0477,-3.0278,-2.9947,-2.9466,-2.9185,-2.8688,-2.7831,-2.813,-2.7916,-2.6695,-2.7201,-2.7421,-2.6901,-2.8357,-2.8623,-2.7167,-2.7889,-2.821,-2.7886,-2.5574,-2.4346,-2.4417,-2.2501,-2.1219,-2.051,-2.0182,-1.9978,-1.9862,-1.9914,-2.0016,-2.0093,-1.9914,-2.0368,-2.1234,-2.1564,-2.2103,-2.2778,-2.3204,-2.3872,-2.452,-2.4925,-2.5612,-2.6391,-3.4944,-3.498,-3.5051,-3.5251,-3.5266,-3.5345,-3.5534,-3.5579,-3.5579,-3.5579,-3.4082,-3.2998,-3.2998,-3.1441,-3.043,-3.0556,-3.0518,-3.0492,-3.0492,-3.0417,-3.0299,-3.0109,-3.0095,-3.0022,-2.9902,-3.0625,-3.1442,-3.2371,-3.3802,-3.4394,-3.4197,-3.4197,-3.4197,-3.4197,-3.4197,-3.4197,-3.4197,-3.4117,-3.408,-3.395,-3.2335,-3.1644,-3.1455,-2.966,-2.898,-2.8892,-2.8316,-2.8102,-2.7923,-2.6884,-2.6033,-2.5384,-2.5279,-2.426,-2.3119,-2.319,-2.313,-2.3453,-2.498,-2.5401,-2.577,-2.7315,-2.7672,-2.7535,-2.7002,-2.6939,-2.7199,-2.8056,-2.7798,-2.7976,-3.0063,-2.9914,-2.9715,-3.041,-2.9897,-2.94,-2.935,-2.8738,-2.8345,-2.8345,-2.8395,-2.8412,-2.8412,-2.801,-2.7477,-2.686,-2.7672,-2.7674,-2.6486,-2.8354,-2.8587,-2.6741,-2.5585,-2.4975,-2.4883,-2.3195,-2.1893,-2.0993,-2.0321,-1.999,-2.0042,-2.0131,-2.0233,-2.0233,-2.0093,-2.065,-2.1695,-2.1678,-2.235,-2.3352,-2.3428,-2.4236,-2.5307,-2.5231,-2.5997,-2.7024,-3.4714,-3.4734,-3.4774,-3.5034,-3.5069,-3.5086,-3.5136,-3.5266,-3.5374,-3.5374,-3.4,-3.2998,-3.2998,-3.1309,-3.019,-3.0215,-3.0333,-3.0425,-3.0425,-3.0267,-3.015,-3.0089,-3.0007,-2.9934,-2.9902,-2.994,-3.0621,-3.1939,-3.29,-3.3673,-3.4197,-3.4197,-3.4197,-3.4197,-3.4197,-3.4197,-3.416,-3.334,-3.2963,-3.2834,-3.0998,-3.0257,-3.0148,-2.9028,-2.8621,-2.8554,-2.8219,-2.8102,-2.7861,-2.6231,-2.5559,-2.5191,-2.4032,-2.3375,-2.3225,-2.3839,-2.3576,-2.3453,-2.498,-2.5401,-2.577,-2.7315,-2.743,-2.6948,-2.6063,-2.6118,-2.6428,-2.6687,-2.7462,-2.8439,-2.9483,-2.9996,-3.0311,-3.0493,-2.9897,-2.9218,-2.8704,-2.803,-2.7582,-2.7582,-2.808,-2.8412,-2.8412,-2.8295,-2.8388,-2.8695,-2.896,-2.8887,-2.8416,-2.9423,-2.9195,-2.7415,-2.6609,-2.5771,-2.4898,-2.3976,-2.2698,-2.1126,-2.0472,-2.0131,-2.0131,-2.0182,-2.0283,-2.0398,-2.0233,-2.0643,-2.1429,-2.1745,-2.2278,-2.3019,-2.3923,-2.4679,-2.5345,-2.5897,-2.6581,-2.7214,-3.4439,-3.4439,-3.4505,-3.4773,-3.4812,-3.4851,-3.4926,-3.5053,-3.4969,-3.4568,-3.3467,-3.2575,-3.2173,-3.0863,-3.0007,-3.0007,-3.0099,-3.0161,-3.0161,-3.0071,-2.9977,-2.988,-2.9801,-2.9734,-2.9663,-2.9551,-3.0087,-3.1244,-3.2414,-3.3213,-3.3658,-3.3907,-3.4023,-3.4005,-3.3489,-3.3272,-3.3217,-3.2261,-3.1861,-3.1751,-3.0374,-2.9805,-2.9689,-2.8701,-2.8324,-2.8298,-2.802,-2.7926,-2.7773,-2.6775,-2.6226,-2.5875,-2.5366,-2.4717,-2.4243,-2.4664,-2.3997,-2.3453,-2.498,-2.532,-2.5575,-2.7018,-2.7181,-2.6838,-2.6168,-2.6184,-2.6528,-2.7101,-2.7561,-2.829,-2.9665,-2.9963,-3.0013,-3.0013,-2.9417,-2.8688,-2.8014,-2.7566,-2.7433,-2.7765,-2.8406,-2.8986,-2.9334,-2.935,-2.9367,-2.9417,-2.9731,-2.9599,-2.8942,-2.963,-2.9265,-2.7625,-2.723,-2.6624,-2.5678,-2.4407,-2.3032,-2.1513,-2.0944,-2.066,-2.066,-2.0485,-2.0498,-2.0562,-2.0398,-2.0823,-2.1663,-2.1905,-2.2523,-2.3386,-2.4236,-2.4993,-2.5625,-2.6168,-2.683,-2.7403,-3.4197,-3.4197,-3.4269,-3.4495,-3.4539,-3.4604,-3.4772,-3.4831,-3.4548,-3.3658,-3.2881,-3.2065,-3.121,-3.0343,-2.9853,-2.9853,-2.9836,-2.9836,-2.9902,-2.9869,-2.9786,-2.9608,-2.957,-2.9531,-2.9407,-2.9365,-2.9715,-3.0531,-3.1881,-3.258,-3.271,-3.329,-3.357,-3.3506,-3.272,-3.2299,-3.2136,-3.1302,-3.0858,-3.0677,-2.9827,-2.9475,-2.9376,-2.8425,-2.8047,-2.7992,-2.7771,-2.7701,-2.7683,-2.7561,-2.7122,-2.67,-2.7192,-2.6426,-2.5347,-2.5347,-2.448,-2.3746,-2.4987,-2.5338,-2.5562,-2.6681,-2.694,-2.6858,-2.6471,-2.6554,-2.6954,-2.7886,-2.781,-2.8125,-2.988,-2.9764,-2.9417,-2.9417,-2.8837,-2.8246,-2.7715,-2.7549,-2.7748,-2.8439,-2.9052,-2.9698,-3.0444,-3.0427,-3.0145,-2.9615,-2.998,-2.9821,-2.8818,-2.9279,-2.8966,-2.761,-2.766,-2.7345,-2.6602,-2.4575,-2.313,-2.2175,-2.1568,-2.1237,-2.1237,-2.0927,-2.0791,-2.0712,-2.0653,-2.1238,-2.2156,-2.2156,-2.2898,-2.4014,-2.4576,-2.5257,-2.584,-2.6414,-2.696,-2.7523,-3.4148,-3.4197,-3.4221,-3.4245,-3.4269,-3.4269,-3.4298,-3.4498,-3.4327,-3.3462,-3.2789,-3.2065,-3.121,-3.0223,-2.9644,-2.9644,-2.9551,-2.9589,-2.9886,-2.9751,-2.9644,-2.9608,-2.9492,-2.9409,-2.9407,-2.9178,-2.9453,-3.0268,-3.0289,-3.0644,-3.1344,-3.2101,-3.2456,-3.2474,-3.2933,-3.2777,-3.2136,-3.1049,-3.0216,-2.9536,-2.8468,-2.8035,-2.8006,-2.7824,-2.7771,-2.7742,-2.7713,-2.7701,-2.7596,-2.6981,-2.67,-2.6507,-2.5946,-2.5439,-2.5062,-2.5062,-2.5183,-2.5257,-2.5098,-2.5855,-2.6683,-2.6674,-2.6674,-2.6438,-2.5546,-2.6291,-2.7072,-2.6617,-2.7893,-2.9003,-2.8754,-2.9102,-2.9417,-2.9417,-2.8837,-2.8539,-2.9019,-2.8572,-2.8472,-2.9168,-2.935,-2.9698,-3.0444,-2.9947,-2.9798,-3.0311,-2.9475,-2.9027,-2.9021,-2.8717,-2.8255,-2.7625,-2.7978,-2.7659,-2.6602,-2.4229,-2.3207,-2.358,-2.2062,-2.1361,-2.1388,-2.135,-2.1119,-2.0725,-2.1172,-2.1747,-2.2361,-2.2156,-2.2898,-2.4171,-2.5091,-2.5621,-2.5942,-2.6935,-2.7378,-2.7523,-3.3698,-3.385,-3.3972,-3.3972,-3.4099,-3.4197,-3.4197,-3.4293,-3.4087,-3.3246,-3.2903,-3.2253,-3.0959,-3.043,-2.9958,-2.953,-2.9429,-2.939,-2.9416,-2.9454,-2.9492,-2.9492,-2.9289,-2.9093,-2.892,-2.8785,-2.8919,-2.9265,-2.9639,-2.9987,-3.0368,-3.1,-3.1294,-3.1265,-3.1035,-3.0761,-3.0368,-2.942,-2.8811,-2.8428,-2.79,-2.7701,-2.7701,-2.7701,-2.7701,-2.7701,-2.7701,-2.7701,-2.7648,-2.7315,-2.7355,-2.7426,-2.6708,-2.6563,-2.6502,-2.5661,-2.5877,-2.6262,-2.5922,-2.6571,-2.7215,-2.6534,-2.638,-2.6262,-2.5824,-2.6518,-2.7334,-2.7363,-2.8456,-2.9317,-2.9003,-2.9201,-2.9284,-2.892,-2.8588,-2.8489,-2.8804,-2.8903,-2.9052,-2.9367,-2.9764,-3.0145,-3.0493,-3.0212,-3.0145,-3.0493,-2.976,-2.9366,-2.9467,-2.9012,-2.8496,-2.7978,-2.758,-2.7116,-2.6602,-2.5129,-2.4338,-2.4279,-2.3216,-2.26,-2.2263,-2.2019,-2.1849,-2.1616,-2.1877,-2.2309,-2.2818,-2.2721,-2.3228,-2.4204,-2.4979,-2.5488,-2.5929,-2.6765,-2.7262,-2.7523,-3.3327,-3.3494,-3.368,-3.368,-3.385,-3.4005,-3.4099,-3.4099,-3.3827,-3.3101,-3.2943,-3.2358,-3.0913,-3.072,-3.0415,-2.9806,-2.9751,-2.9591,-2.9185,-2.9365,-2.9385,-2.92,-2.8984,-2.8761,-2.8504,-2.8453,-2.8428,-2.8428,-2.9007,-2.9413,-2.9611,-2.9951,-3.0226,-3.0386,-2.9545,-2.9088,-2.886,-2.8245,-2.7877,-2.7701,-2.7701,-2.7701,-2.7701,-2.7701,-2.7701,-2.7719,-2.7835,-2.7752,-2.7647,-2.7762,-2.8042,-2.8196,-2.7535,-2.7635,-2.7777,-2.6587,-2.6826,-2.7367,-2.6908,-2.731,-2.764,-2.6706,-2.6584,-2.6717,-2.6717,-2.7263,-2.7926,-2.8506,-2.9036,-2.9367,-2.9201,-2.9036,-2.8804,-2.8478,-2.8412,-2.8489,-2.882,-2.9185,-2.9417,-2.9417,-2.9914,-3.0261,-3.0261,-3.0427,-3.0526,-3.0526,-3.007,-2.975,-2.9661,-2.9166,-2.8701,-2.8158,-2.7161,-2.6662,-2.6811,-2.6019,-2.5435,-2.5045,-2.4435,-2.3875,-2.3427,-2.2949,-2.2694,-2.2603,-2.2585,-2.2831,-2.321,-2.321,-2.3576,-2.4178,-2.4739,-2.5315,-2.589,-2.6465,-2.704,-2.7523,-3.3376,-3.3321,-3.335,-3.335,-3.3332,-3.3465,-3.3788,-3.3815,-3.3644,-3.3078,-3.2773,-3.2291,-3.1347,-3.1018,-3.0858,-3.0803,-3.0803,-3.0459,-2.9699,-2.9671,-2.9352,-2.8615,-2.8554,-2.8529,-2.8504,-2.8246,-2.8129,-2.8129,-2.7922,-2.8247,-2.8956,-2.9009,-2.9417,-3.012,-3.0036,-2.9597,-2.8895,-2.8842,-2.8386,-2.7701,-2.7701,-2.7701,-2.7701,-2.7701,-2.7701,-2.7759,-2.8181,-2.7944,-2.7476,-2.7909,-2.8083,-2.7998,-2.7245,-2.7352,-2.7702,-2.7601,-2.834,-2.8987,-2.7897,-2.7988,-2.8163,-2.7417,-2.7748,-2.8262,-2.8262,-2.8754,-2.9268,-2.9334,-2.9383,-2.9218,-2.8572,-2.7931,-2.7665,-2.8312,-2.8412,-2.8837,-3.0179,-2.9814,-2.9417,-2.9417,-2.9466,-2.9499,-2.9499,-3.0112,-3.0526,-3.0526,-3.007,-2.9617,-2.9166,-2.8638,-2.8158,-2.7675,-2.698,-2.6886,-2.755,-2.6243,-2.5899,-2.6437,-2.5345,-2.481,-2.4728,-2.4218,-2.3648,-2.3121,-2.3118,-2.3184,-2.321,-2.321,-2.3576,-2.4178,-2.4739,-2.5315,-2.589,-2.6465,-2.704,-2.7523,-3.2776,-3.2862,-3.3001,-3.3001,-3.3154,-3.335,-3.3465,-3.3494,-3.3413,-3.3214,-3.3095,-3.272,-3.1901,-3.1719,-3.1454,-3.0938,-3.0884,-3.0486,-2.9538,-2.9438,-2.908,-2.8281,-2.8246,-2.8166,-2.7992,-2.7897,-2.784,-2.784,-2.7742,-2.7859,-2.8157,-2.8157,-2.8315,-2.8614,-2.8614,-2.8438,-2.8157,-2.8157,-2.7982,-2.7701,-2.7569,-2.7509,-2.7509,-2.7338,-2.7276,-2.7348,-2.7977,-2.777,-2.7324,-2.8374,-2.8337,-2.7809,-2.7521,-2.7429,-2.7531,-2.7998,-2.8733,-2.9301,-2.8854,-2.8882,-2.8853,-2.818,-2.8213,-2.8412,-2.8412,-2.892,-2.9284,-2.887,-2.9483,-2.9599,-2.803,-2.7881,-2.7931,-2.7765,-2.7732,-2.808,-2.9052,-2.8953,-2.892,-2.9367,-2.9417,-2.9599,-3.0063,-3.0361,-3.0526,-3.0526,-2.981,-2.9303,-2.912,-2.8319,-2.7795,-2.7625,-2.732,-2.737,-2.7625,-2.6677,-2.6348,-2.6587,-2.6139,-2.5761,-2.54,-2.4864,-2.4475,-2.4313,-2.3896,-2.3772,-2.3772,-2.3772,-2.3903,-2.4138,-2.4347,-2.5001,-2.585,-2.6073,-2.6726,-2.7523,-3.2441,-3.2557,-3.2758,-3.2989,-3.3023,-3.314,-3.3484,-3.3304,-3.3184,-3.3291,-3.3214,-3.2925,-3.2385,-3.226,-3.1954,-3.1434,-3.1381,-3.0844,-2.9633,-2.9071,-2.855,-2.8,-2.7964,-2.7897,-2.7683,-2.7701,-2.7701,-2.7701,-2.7701,-2.7824,-2.807,-2.7824,-2.7824,-2.807,-2.7764,-2.763,-2.7582,-2.7522,-2.7491,-2.7461,-2.7324,-2.7261,-2.7261,-2.707,-2.7006,-2.7093,-2.7981,-2.7828,-2.742,-2.8738,-2.8777,-2.8159,-2.769,-2.7614,-2.7748,-2.8224,-2.9036,-2.9764,-2.9764,-2.9764,-2.9599,-2.8887,-2.8887,-2.9052,-2.9052,-2.9417,-2.9615,-2.9152,-2.9648,-2.9715,-2.8224,-2.7899,-2.7783,-2.775,-2.7421,-2.7539,-2.8486,-2.8421,-2.8453,-2.8927,-2.8976,-2.9172,-2.9678,-2.9923,-3.007,-3.007,-2.9483,-2.9028,-2.8889,-2.8042,-2.7625,-2.7625,-2.7625,-2.7625,-2.7625,-2.7126,-2.6901,-2.6901,-2.6901,-2.6688,-2.6293,-2.5744,-2.5511,-2.5495,-2.4721,-2.439,-2.439,-2.4171,-2.4217,-2.4387,-2.4387,-2.5079,-2.6086,-2.6086,-2.6817,-2.7798,-3.2546,-3.2388,-3.2634,-3.3353,-3.2897,-3.2737,-3.3835,-3.333,-3.2939,-3.3243,-3.3001,-3.2795,-3.2795,-3.2539,-3.2406,-3.2406,-3.2406,-3.1756,-3.0211,-2.8596,-2.7701,-2.7701,-2.7701,-2.7701,-2.7701,-2.7701,-2.7701,-2.7701,-2.7701,-2.8105,-2.8877,-2.807,-2.8122,-2.8829,-2.7844,-2.7404,-2.7373,-2.7103,-2.7006,-2.7006,-2.7006,-2.7006,-2.7006,-2.7006,-2.7006,-2.7128,-2.8277,-2.8253,-2.7866,-2.8998,-2.94,-2.9135,-2.7765,-2.7815,-2.8412,-2.8428,-2.94,-3.0526,-3.0526,-3.0526,-3.0344,-2.9599,-2.998,-3.0526,-3.0526,-3.0526,-3.0526,-3.0468,-2.993,-2.9417,-2.94,-2.7879,-2.7057,-2.8482,-2.7732,-2.7478,-2.8869,-2.8458,-2.7971,-2.7987,-2.7987,-2.7987,-2.7987,-2.8663,-2.9074,-2.9074,-2.9074,-2.8889,-2.8336,-2.7845,-2.7625,-2.7625,-2.7625,-2.7625,-2.7625,-2.7625,-2.7625,-2.7625,-2.7625,-2.7625,-2.7575,-2.6997,-2.6683,-2.663,-2.5495,-2.5018,-2.4948,-2.4345,-2.4465,-2.5035,-2.5035,-2.573,-2.6738,-2.6738,-2.7392,-2.8373,-3.1817,-3.1929,-3.2142,-3.2351,-3.2389,-3.251,-3.2824,-3.2682,-3.2557,-3.2657,-3.259,-3.2523,-3.2523,-3.2457,-3.2406,-3.2406,-3.2406,-3.1967,-3.0931,-2.9404,-2.8544,-2.8544,-2.7999,-2.7701,-2.7701,-2.7701,-2.7701,-2.7701,-2.7569,-2.76,-2.7826,-2.7428,-2.7351,-2.7558,-2.727,-2.7103,-2.7103,-2.7038,-2.7006,-2.6973,-2.6792,-2.6742,-2.6708,-2.6503,-2.6434,-2.6551,-2.7431,-2.7278,-2.6859,-2.8229,-2.8009,-2.7181,-2.7247,-2.7815,-2.8472,-2.8953,-2.9781,-3.0526,-3.0526,-3.0241,-3.0021,-3.0146,-3.0361,-3.0526,-3.0526,-3.0526,-3.0377,-2.9847,-2.998,-2.9741,-2.8404,-2.8111,-2.7936,-2.7492,-2.7146,-2.7076,-2.7501,-2.7375,-2.7406,-2.7924,-2.7987,-2.8221,-2.8711,-2.8963,-2.9074,-2.9074,-2.8732,-2.8304,-2.7845,-2.766,-2.7625,-2.7625,-2.7625,-2.785,-2.8293,-2.7814,-2.7625,-2.7625,-2.7625,-2.7625,-2.7575,-2.6997,-2.6683,-2.6645,-2.591,-2.553,-2.5571,-2.5374,-2.5419,-2.5563,-2.5563,-2.6321,-2.7413,-2.7413,-2.7833,-2.8544,-3.1504,-3.1617,-3.1815,-3.2107,-3.2119,-3.2159,-3.2437,-3.2317,-3.2196,-3.2196,-3.2319,-3.2406,-3.2406,-3.2406,-3.2406,-3.2406,-3.2004,-3.1655,-3.1481,-2.9654,-2.8702,-2.8997,-2.8004,-2.7461,-2.76,-2.7491,-2.7413,-2.7413,-2.7293,-2.723,-2.723,-2.707,-2.7006,-2.7006,-2.6875,-2.6859,-2.6825,-2.6725,-2.6691,-2.6657,-2.6503,-2.645,-2.6415,-2.6239,-2.622,-2.6303,-2.7031,-2.6998,-2.6816,-2.7976,-2.7595,-2.67,-2.7168,-2.7616,-2.8025,-2.8227,-2.9009,-2.9772,-2.9603,-2.9539,-2.9572,-2.9897,-2.9941,-2.9941,-2.9941,-2.9941,-2.9811,-2.9371,-2.9632,-2.9578,-2.8388,-2.8168,-2.7996,-2.7529,-2.707,-2.6856,-2.7118,-2.7165,-2.735,-2.7798,-2.7845,-2.8015,-2.8465,-2.8774,-2.9005,-2.9268,-2.874,-2.8303,-2.803,-2.7979,-2.7979,-2.7979,-2.8233,-2.8577,-2.8981,-2.8577,-2.8368,-2.8368,-2.8368,-2.8368,-2.8368,-2.7986,-2.7827,-2.7788,-2.7187,-2.6944,-2.6914,-2.6712,-2.6721,-2.6937,-2.6937,-2.7536,-2.8429,-2.8429,-2.8752,-2.9329,-3.1389,-3.1428,-3.1688,-3.2354,-3.1978,-3.1846,-3.2496,-3.2207,-3.1962,-3.1962,-3.2161,-3.2319,-3.2319,-3.2319,-3.2319,-3.2319,-3.1446,-3.1148,-3.1823,-2.9609,-2.8613,-2.9279,-2.7878,-2.7173,-2.7414,-2.7137,-2.7006,-2.7006,-2.6973,-2.6973,-2.6973,-2.694,-2.694,-2.6908,-2.6657,-2.6572,-2.6554,-2.631,-2.622,-2.622,-2.622,-2.622,-2.622,-2.622,-2.622,-2.6303,-2.6949,-2.7218,-2.7317,-2.7997,-2.7781,-2.7234,-2.7247,-2.7226,-2.7168,-2.6828,-2.7648,-2.8571,-2.8287,-2.86,-2.9028,-2.9028,-2.8982,-2.8982,-2.9074,-2.9074,-2.9074,-2.9074,-2.9074,-2.909,-2.9028,-2.8124,-2.758,-2.8148,-2.7379,-2.6886,-2.7535,-2.7625,-2.7625,-2.7625,-2.7619,-2.7715,-2.7715,-2.8293,-2.8936,-2.9535,-2.9026,-2.8682,-2.8682,-2.8682,-2.8682,-2.8682,-2.9265,-2.9609,-2.9669,-2.9669,-2.9639,-2.9579,-2.9579,-2.9579,-2.9579,-2.9579,-2.9579,-2.9579,-2.899,-2.8766,-2.871,-2.8182,-2.8302,-2.8778,-2.8778,-2.9102,-2.9566,-2.9566,-2.9946,-3.0403,-3.0716,-3.0918,-3.1145,-3.1297,-3.1851,-3.2332,-3.2485,-3.2444,-3.2381,-3.2381,-3.1977,-3.1709,-3.1709,-3.1709,-3.1709,-3.1709,-3.1479,-3.1408,-3.1579,-3.0495,-2.9892,-3.0046,-2.8454,-2.7588,-2.7622,-2.7214,-2.7006,-2.7006,-2.6792,-2.6674,-2.6674,-2.6468,-2.6364,-2.6364,-2.631,-2.6274,-2.6274,-2.6203,-2.622,-2.622,-2.622,-2.622,-2.622,-2.622,-2.622,-2.6236,-2.6385,-2.6452,-2.6468,-2.6634,-2.6568,-2.6462,-2.6673,-2.6743,-2.6893,-2.7556,-2.7969,-2.8335,-2.8756,-2.867,-2.848,-2.848,-2.8222,-2.814,-2.8935,-2.9074,-2.9074,-2.9074,-2.9074,-2.8982,-2.8543,-2.8276,-2.799,-2.778,-2.754,-2.741,-2.7595,-2.7625,-2.7625,-2.7625,-2.8053,-2.8368,-2.8368,-2.8981,-2.943,-2.9564,-2.9445,-2.937,-2.937,-2.937,-2.937,-2.937,-2.9505,-2.9819,-3.0298,-3.0298,-3.0058,-2.9579,-2.9579,-2.9579,-2.9579,-2.9579,-2.9579,-2.9609,-2.9402,-2.9305,-2.9349,-2.9157,-2.9195,-2.9321,-2.9321,-2.9714,-3.0269,-3.0269,-3.0355,-3.0567,-3.0526,-3.0634,-3.0874,-3.1241,-3.1716,-3.2193,-3.2547,-3.2418,-3.232,-3.232,-3.1849,-3.1504,-3.1504,-3.1504,-3.1504,-3.1504,-3.1351,-3.1252,-3.1252,-3.0386,-2.9888,-2.9888,-2.8678,-2.7888,-2.7537,-2.7278,-2.6977,-2.6623,-2.6468,-2.6415,-2.6415,-2.6291,-2.622,-2.622,-2.622,-2.622,-2.622,-2.622,-2.622,-2.622,-2.622,-2.622,-2.622,-2.622,-2.622,-2.622,-2.622,-2.6079,-2.5864,-2.5864,-2.5754,-2.5616,-2.5725,-2.5798,-2.5943,-2.6565,-2.6967,-2.7283,-2.7798,-2.7944,-2.7978,-2.7978,-2.7795,-2.771,-2.8271,-2.8367,-2.8367,-2.8367,-2.8367,-2.8319,-2.8027,-2.7978,-2.7894,-2.761,-2.7844,-2.8068,-2.8068,-2.8068,-2.8068,-2.8068,-2.8382,-2.8846,-2.9445,-2.9819,-3.0163,-3.0492,-3.0208,-3.0028,-3.0028,-3.0028,-3.0028,-3.0028,-3.0342,-3.0672,-3.0986,-3.1001,-3.0836,-3.0507,-3.0507,-3.0507,-3.0507,-3.0507,-3.0507,-3.0466,-3.0452,-3.0455,-3.0426,-3.0453,-3.045,-3.045,-3.045,-3.0644,-3.097,-3.097,-3.097,-3.1087,-3.0675,-3.0609,-3.0791,-3.1653,-3.1802,-3.205,-3.2762,-3.251,-3.2194,-3.2194,-3.1698,-3.1312,-3.1312,-3.1312,-3.1312,-3.1312,-3.1078,-3.0895,-3.0895,-3.0068,-2.9599,-2.9599,-2.892,-2.8207,-2.7516,-2.7367,-2.6932,-2.622,-2.622,-2.622,-2.622,-2.622,-2.622,-2.622,-2.622,-2.622,-2.622,-2.622,-2.622,-2.622,-2.622,-2.622,-2.622,-2.622,-2.6132,-2.6079,-2.6079,-2.5775,-2.5389,-2.5389,-2.5176,-2.4902,-2.4823,-2.4878,-2.5033,-2.5287,-2.5771,-2.6336,-2.6669,-2.7156,-2.7625,-2.7625,-2.7625,-2.7625,-2.7625,-2.7625,-2.7625,-2.7625,-2.7625,-2.7625,-2.7625,-2.7625,-2.7655,-2.7724,-2.8233,-2.8637,-2.8742,-2.8771,-2.8771,-2.8771,-2.8861,-2.9385,-3.0567,-3.0672,-3.0911,-3.1437,-3.1001,-3.0672,-3.0672,-3.0672,-3.0672,-3.0672,-3.124,-3.1482,-3.1482,-3.1482,-3.1482,-3.1482,-3.1482,-3.1482,-3.1482,-3.1482,-3.1482,-3.1482,-3.1482,-3.1482,-3.1482,-3.1601,-3.1571,-3.1497,-3.1779,-3.1735,-3.1661,-3.1824,-3.1676,-3.1719,-3.1312,-3.0957,-3.094,-3.2299,-3.2547,-3.2796,-3.3524,-3.3056,-3.2619,-3.2619,-3.1482,-3.0634,-3.0634,-3.0634,-3.0634,-3.0634,-3.0593,-3.0568,-3.0568,-3.0427,-3.0377,-3.0377,-2.9665,-2.8953,-2.8296,-2.7649,-2.6932,-2.622,-2.622,-2.622,-2.622,-2.622,-2.622,-2.622,-2.622,-2.622,-2.622,-2.622,-2.622,-2.622,-2.622,-2.622,-2.622,-2.622,-2.5954,-2.5594,-2.5594,-2.5313,-2.4981,-2.4981,-2.4942,-2.4823,-2.4492,-2.4786,-2.5302,-2.55,-2.6023,-2.6684,-2.731,-2.755,-2.7625,-2.7625,-2.7625,-2.7625,-2.7625,-2.7625,-2.7625,-2.7625,-2.7625,-2.7625,-2.7625,-2.7625,-2.7769,-2.8368,-2.8547,-2.8801,-2.937,-2.9445,-2.9445,-2.9445,-2.9924,-3.0552,-3.1315,-3.1332,-3.1377,-3.1467,-3.145,-3.1332,-3.1332,-3.1332,-3.1332,-3.1332,-3.1422,-3.1482,-3.1482,-3.1482,-3.1482,-3.1482,-3.1482,-3.1482,-3.1482,-3.1482,-3.1482,-3.1482,-3.1482,-3.1482,-3.1511,-3.2153,-3.2048,-3.1644,-3.2781,-3.2886,-3.2452,-3.3021,-3.2512,-3.1719,-3.0539,-3.0902,-3.1338,-3.1984,-3.2762,-3.3408,-3.374,-3.316,-3.268,-3.268,-3.1421,-3.0526,-3.0526,-3.0526,-3.0526,-3.0526,-3.0526,-3.0526,-3.0526,-3.0526,-3.0526,-3.0526,-3.0212,-2.9516,-2.8406,-2.8097,-2.7238,-2.5811,-2.6079,-2.622,-2.622,-2.622,-2.6079,-2.5811,-2.5811,-2.5701,-2.5476,-2.5476,-2.5476,-2.5476,-2.5476,-2.5476,-2.5476,-2.5476,-2.5346,-2.516,-2.516,-2.4902,-2.462,-2.501,-2.4967,-2.479,-2.4969,-2.5243,-2.5576,-2.6006,-2.6363,-2.6737,-2.7445,-2.7625,-2.7625,-2.7625,-2.7625,-2.7625,-2.7625,-2.7874,-2.8143,-2.8143,-2.8143,-2.8248,-2.8622,-2.8397,-2.8368,-2.9041,-2.9445,-2.9759,-3.0058,-3.0103,-3.0103,-3.0103,-3.0342,-3.0776,-3.1407,-3.1482,-3.1482,-3.1482,-3.1482,-3.1482,-3.1482,-3.1482,-3.1482,-3.1482,-3.1482,-3.1482,-3.1482,-3.1482,-3.1482,-3.1482,-3.1482,-3.1482,-3.1482,-3.1482,-3.1482,-3.1482,-3.1482,-3.1482,-3.1497,-3.1795,-3.1794,-3.1541,-3.2168,-3.2437,-3.2587,-3.3245,-3.3125,-3.2706]}]]